<?xml version="1.0" encoding="UTF-8" standalone="no" ?>
<gpx xmlns="http://www.topografix.com/GPX/1/1" xmlns:xsi="http://www.w3.org/2001/XMLSchema-instance" xsi:schemaLocation="http://www.topografix.com/GPX/1/1 http://www.topografix.com/GPX/1/1/gpx.xsd" version="1.1" creator="VisuGPX - https://www.visugpx.com">
  <metadata>
    <name>140329ROBMazauguesCapeletteRedon</name>
    <desc><![CDATA[Sortie de Mazaugues]]></desc>
  </metadata>
  <trk>
    <name><![CDATA[140329ROBMazauguesCapeletteRedon]]></name>
    <trkseg>
      <trkpt lat="43.36455" lon="5.91367">
        <ele>364</ele>
        <time>2014-03-29T12:58:39Z</time>
      </trkpt>
      <trkpt lat="43.36455" lon="5.91367">
        <ele>364</ele>
        <time>2014-03-29T12:58:40Z</time>
      </trkpt>
      <trkpt lat="43.36456" lon="5.91367">
        <ele>364</ele>
        <time>2014-03-29T12:58:42Z</time>
      </trkpt>
      <trkpt lat="43.36456" lon="5.91366">
        <ele>364</ele>
        <time>2014-03-29T12:58:43Z</time>
      </trkpt>
      <trkpt lat="43.36459" lon="5.91362">
        <ele>364</ele>
        <time>2014-03-29T12:58:45Z</time>
      </trkpt>
      <trkpt lat="43.36467" lon="5.91355">
        <ele>365</ele>
        <time>2014-03-29T12:58:50Z</time>
      </trkpt>
      <trkpt lat="43.36475" lon="5.91343">
        <ele>365</ele>
        <time>2014-03-29T12:58:55Z</time>
      </trkpt>
      <trkpt lat="43.36476" lon="5.91341">
        <ele>365</ele>
        <time>2014-03-29T12:58:56Z</time>
      </trkpt>
      <trkpt lat="43.36481" lon="5.91334">
        <ele>366</ele>
        <time>2014-03-29T12:58:59Z</time>
      </trkpt>
      <trkpt lat="43.36501" lon="5.91321">
        <ele>367</ele>
        <time>2014-03-29T12:59:07Z</time>
      </trkpt>
      <trkpt lat="43.36526" lon="5.91308">
        <ele>369</ele>
        <time>2014-03-29T12:59:16Z</time>
      </trkpt>
      <trkpt lat="43.36544" lon="5.91296">
        <ele>370</ele>
        <time>2014-03-29T12:59:22Z</time>
      </trkpt>
      <trkpt lat="43.36555" lon="5.91288">
        <ele>371</ele>
        <time>2014-03-29T12:59:26Z</time>
      </trkpt>
      <trkpt lat="43.36559" lon="5.91283">
        <ele>371</ele>
        <time>2014-03-29T12:59:28Z</time>
      </trkpt>
      <trkpt lat="43.36573" lon="5.9126">
        <ele>372</ele>
        <time>2014-03-29T12:59:35Z</time>
      </trkpt>
      <trkpt lat="43.36586" lon="5.91235">
        <ele>373</ele>
        <time>2014-03-29T12:59:42Z</time>
      </trkpt>
      <trkpt lat="43.36596" lon="5.91215">
        <ele>374</ele>
        <time>2014-03-29T12:59:48Z</time>
      </trkpt>
      <trkpt lat="43.36607" lon="5.91192">
        <ele>375</ele>
        <time>2014-03-29T12:59:55Z</time>
      </trkpt>
      <trkpt lat="43.36613" lon="5.9118">
        <ele>375</ele>
        <time>2014-03-29T12:59:59Z</time>
      </trkpt>
      <trkpt lat="43.36618" lon="5.91171">
        <ele>375</ele>
        <time>2014-03-29T13:00:02Z</time>
      </trkpt>
      <trkpt lat="43.36621" lon="5.91165">
        <ele>375</ele>
        <time>2014-03-29T13:00:04Z</time>
      </trkpt>
      <trkpt lat="43.36623" lon="5.91162">
        <ele>375</ele>
        <time>2014-03-29T13:00:05Z</time>
      </trkpt>
      <trkpt lat="43.36636" lon="5.91141">
        <ele>377</ele>
        <time>2014-03-29T13:00:12Z</time>
      </trkpt>
      <trkpt lat="43.36657" lon="5.91115">
        <ele>378</ele>
        <time>2014-03-29T13:00:20Z</time>
      </trkpt>
      <trkpt lat="43.36675" lon="5.91094">
        <ele>378</ele>
        <time>2014-03-29T13:00:27Z</time>
      </trkpt>
      <trkpt lat="43.36697" lon="5.91068">
        <ele>379</ele>
        <time>2014-03-29T13:00:36Z</time>
      </trkpt>
      <trkpt lat="43.36715" lon="5.91045">
        <ele>380</ele>
        <time>2014-03-29T13:00:44Z</time>
      </trkpt>
      <trkpt lat="43.36763" lon="5.90986">
        <ele>380</ele>
        <time>2014-03-29T13:01:05Z</time>
      </trkpt>
      <trkpt lat="43.3678" lon="5.90967">
        <ele>380</ele>
        <time>2014-03-29T13:01:12Z</time>
      </trkpt>
      <trkpt lat="43.36794" lon="5.9095">
        <ele>380</ele>
        <time>2014-03-29T13:01:18Z</time>
      </trkpt>
      <trkpt lat="43.36803" lon="5.90939">
        <ele>380</ele>
        <time>2014-03-29T13:01:22Z</time>
      </trkpt>
      <trkpt lat="43.36816" lon="5.9092">
        <ele>380</ele>
        <time>2014-03-29T13:01:28Z</time>
      </trkpt>
      <trkpt lat="43.36824" lon="5.90913">
        <ele>381</ele>
        <time>2014-03-29T13:01:31Z</time>
      </trkpt>
      <trkpt lat="43.36859" lon="5.90889">
        <ele>383</ele>
        <time>2014-03-29T13:01:45Z</time>
      </trkpt>
      <trkpt lat="43.36872" lon="5.90878">
        <ele>383</ele>
        <time>2014-03-29T13:01:50Z</time>
      </trkpt>
      <trkpt lat="43.36881" lon="5.90869">
        <ele>384</ele>
        <time>2014-03-29T13:01:54Z</time>
      </trkpt>
      <trkpt lat="43.36887" lon="5.90863">
        <ele>384</ele>
        <time>2014-03-29T13:01:57Z</time>
      </trkpt>
      <trkpt lat="43.36903" lon="5.90844">
        <ele>384</ele>
        <time>2014-03-29T13:02:06Z</time>
      </trkpt>
      <trkpt lat="43.36918" lon="5.90825">
        <ele>385</ele>
        <time>2014-03-29T13:02:14Z</time>
      </trkpt>
      <trkpt lat="43.36922" lon="5.90821">
        <ele>385</ele>
        <time>2014-03-29T13:02:16Z</time>
      </trkpt>
      <trkpt lat="43.3693" lon="5.90814">
        <ele>386</ele>
        <time>2014-03-29T13:02:20Z</time>
      </trkpt>
      <trkpt lat="43.3694" lon="5.90806">
        <ele>386</ele>
        <time>2014-03-29T13:02:25Z</time>
      </trkpt>
      <trkpt lat="43.36943" lon="5.90803">
        <ele>386</ele>
        <time>2014-03-29T13:02:27Z</time>
      </trkpt>
      <trkpt lat="43.36948" lon="5.908">
        <ele>386</ele>
        <time>2014-03-29T13:02:29Z</time>
      </trkpt>
      <trkpt lat="43.36963" lon="5.90793">
        <ele>386</ele>
        <time>2014-03-29T13:02:36Z</time>
      </trkpt>
      <trkpt lat="43.36968" lon="5.90792">
        <ele>386</ele>
        <time>2014-03-29T13:02:38Z</time>
      </trkpt>
      <trkpt lat="43.36978" lon="5.9079">
        <ele>386</ele>
        <time>2014-03-29T13:02:42Z</time>
      </trkpt>
      <trkpt lat="43.36994" lon="5.90785">
        <ele>386</ele>
        <time>2014-03-29T13:02:49Z</time>
      </trkpt>
      <trkpt lat="43.37005" lon="5.90782">
        <ele>386</ele>
        <time>2014-03-29T13:02:54Z</time>
      </trkpt>
      <trkpt lat="43.3701" lon="5.9078">
        <ele>386</ele>
        <time>2014-03-29T13:02:56Z</time>
      </trkpt>
      <trkpt lat="43.37013" lon="5.90778">
        <ele>386</ele>
        <time>2014-03-29T13:02:58Z</time>
      </trkpt>
      <trkpt lat="43.37021" lon="5.90772">
        <ele>386</ele>
        <time>2014-03-29T13:03:02Z</time>
      </trkpt>
      <trkpt lat="43.37025" lon="5.90769">
        <ele>387</ele>
        <time>2014-03-29T13:03:04Z</time>
      </trkpt>
      <trkpt lat="43.37027" lon="5.90768">
        <ele>387</ele>
        <time>2014-03-29T13:03:05Z</time>
      </trkpt>
      <trkpt lat="43.37034" lon="5.90763">
        <ele>387</ele>
        <time>2014-03-29T13:03:09Z</time>
      </trkpt>
      <trkpt lat="43.37046" lon="5.90751">
        <ele>388</ele>
        <time>2014-03-29T13:03:15Z</time>
      </trkpt>
      <trkpt lat="43.3706" lon="5.90736">
        <ele>389</ele>
        <time>2014-03-29T13:03:22Z</time>
      </trkpt>
      <trkpt lat="43.37075" lon="5.90719">
        <ele>390</ele>
        <time>2014-03-29T13:03:29Z</time>
      </trkpt>
      <trkpt lat="43.37091" lon="5.90701">
        <ele>392</ele>
        <time>2014-03-29T13:03:36Z</time>
      </trkpt>
      <trkpt lat="43.37104" lon="5.90687">
        <ele>393</ele>
        <time>2014-03-29T13:03:42Z</time>
      </trkpt>
      <trkpt lat="43.37127" lon="5.90664">
        <ele>395</ele>
        <time>2014-03-29T13:03:53Z</time>
      </trkpt>
      <trkpt lat="43.37143" lon="5.90643">
        <ele>395</ele>
        <time>2014-03-29T13:04:01Z</time>
      </trkpt>
      <trkpt lat="43.3716" lon="5.90618">
        <ele>397</ele>
        <time>2014-03-29T13:04:10Z</time>
      </trkpt>
      <trkpt lat="43.37169" lon="5.90605">
        <ele>398</ele>
        <time>2014-03-29T13:04:15Z</time>
      </trkpt>
      <trkpt lat="43.37187" lon="5.90574">
        <ele>399</ele>
        <time>2014-03-29T13:04:25Z</time>
      </trkpt>
      <trkpt lat="43.37202" lon="5.90552">
        <ele>399</ele>
        <time>2014-03-29T13:04:33Z</time>
      </trkpt>
      <trkpt lat="43.37214" lon="5.90535">
        <ele>400</ele>
        <time>2014-03-29T13:04:40Z</time>
      </trkpt>
      <trkpt lat="43.37226" lon="5.90517">
        <ele>400</ele>
        <time>2014-03-29T13:04:47Z</time>
      </trkpt>
      <trkpt lat="43.3724" lon="5.90497">
        <ele>403</ele>
        <time>2014-03-29T13:04:56Z</time>
      </trkpt>
      <trkpt lat="43.37246" lon="5.90487">
        <ele>404</ele>
        <time>2014-03-29T13:05:00Z</time>
      </trkpt>
      <trkpt lat="43.37258" lon="5.90474">
        <ele>405</ele>
        <time>2014-03-29T13:05:07Z</time>
      </trkpt>
      <trkpt lat="43.37265" lon="5.9047">
        <ele>406</ele>
        <time>2014-03-29T13:05:12Z</time>
      </trkpt>
      <trkpt lat="43.37268" lon="5.90469">
        <ele>406</ele>
        <time>2014-03-29T13:05:14Z</time>
      </trkpt>
      <trkpt lat="43.3727" lon="5.90467">
        <ele>406</ele>
        <time>2014-03-29T13:05:15Z</time>
      </trkpt>
      <trkpt lat="43.37272" lon="5.90462">
        <ele>407</ele>
        <time>2014-03-29T13:05:18Z</time>
      </trkpt>
      <trkpt lat="43.37273" lon="5.90461">
        <ele>407</ele>
        <time>2014-03-29T13:05:19Z</time>
      </trkpt>
      <trkpt lat="43.3728" lon="5.90454">
        <ele>408</ele>
        <time>2014-03-29T13:05:24Z</time>
      </trkpt>
      <trkpt lat="43.37292" lon="5.90443">
        <ele>409</ele>
        <time>2014-03-29T13:05:33Z</time>
      </trkpt>
      <trkpt lat="43.37297" lon="5.90438">
        <ele>409</ele>
        <time>2014-03-29T13:05:37Z</time>
      </trkpt>
      <trkpt lat="43.37311" lon="5.9043">
        <ele>410</ele>
        <time>2014-03-29T13:05:46Z</time>
      </trkpt>
      <trkpt lat="43.37326" lon="5.90421">
        <ele>412</ele>
        <time>2014-03-29T13:05:57Z</time>
      </trkpt>
      <trkpt lat="43.37334" lon="5.90416">
        <ele>413</ele>
        <time>2014-03-29T13:06:03Z</time>
      </trkpt>
      <trkpt lat="43.37338" lon="5.9041">
        <ele>413</ele>
        <time>2014-03-29T13:06:08Z</time>
      </trkpt>
      <trkpt lat="43.37343" lon="5.90407">
        <ele>414</ele>
        <time>2014-03-29T13:06:12Z</time>
      </trkpt>
      <trkpt lat="43.37347" lon="5.90403">
        <ele>414</ele>
        <time>2014-03-29T13:06:16Z</time>
      </trkpt>
      <trkpt lat="43.37352" lon="5.90402">
        <ele>415</ele>
        <time>2014-03-29T13:06:19Z</time>
      </trkpt>
      <trkpt lat="43.37353" lon="5.90402">
        <ele>415</ele>
        <time>2014-03-29T13:06:20Z</time>
      </trkpt>
      <trkpt lat="43.37356" lon="5.90398">
        <ele>415</ele>
        <time>2014-03-29T13:06:23Z</time>
      </trkpt>
      <trkpt lat="43.3736" lon="5.90394">
        <ele>416</ele>
        <time>2014-03-29T13:06:26Z</time>
      </trkpt>
      <trkpt lat="43.37363" lon="5.90391">
        <ele>416</ele>
        <time>2014-03-29T13:06:28Z</time>
      </trkpt>
      <trkpt lat="43.3737" lon="5.9038">
        <ele>417</ele>
        <time>2014-03-29T13:06:34Z</time>
      </trkpt>
      <trkpt lat="43.37373" lon="5.90368">
        <ele>418</ele>
        <time>2014-03-29T13:06:41Z</time>
      </trkpt>
      <trkpt lat="43.37377" lon="5.90359">
        <ele>419</ele>
        <time>2014-03-29T13:06:46Z</time>
      </trkpt>
      <trkpt lat="43.3738" lon="5.90352">
        <ele>420</ele>
        <time>2014-03-29T13:06:51Z</time>
      </trkpt>
      <trkpt lat="43.37383" lon="5.90341">
        <ele>421</ele>
        <time>2014-03-29T13:06:57Z</time>
      </trkpt>
      <trkpt lat="43.37383" lon="5.90337">
        <ele>421</ele>
        <time>2014-03-29T13:06:59Z</time>
      </trkpt>
      <trkpt lat="43.37384" lon="5.90331">
        <ele>421</ele>
        <time>2014-03-29T13:07:03Z</time>
      </trkpt>
      <trkpt lat="43.37384" lon="5.90322">
        <ele>422</ele>
        <time>2014-03-29T13:07:08Z</time>
      </trkpt>
      <trkpt lat="43.37384" lon="5.90313">
        <ele>422</ele>
        <time>2014-03-29T13:07:12Z</time>
      </trkpt>
      <trkpt lat="43.37384" lon="5.90308">
        <ele>422</ele>
        <time>2014-03-29T13:07:14Z</time>
      </trkpt>
      <trkpt lat="43.37384" lon="5.90303">
        <ele>422</ele>
        <time>2014-03-29T13:07:16Z</time>
      </trkpt>
      <trkpt lat="43.37385" lon="5.90294">
        <ele>422</ele>
        <time>2014-03-29T13:07:20Z</time>
      </trkpt>
      <trkpt lat="43.37387" lon="5.90283">
        <ele>423</ele>
        <time>2014-03-29T13:07:26Z</time>
      </trkpt>
      <trkpt lat="43.3739" lon="5.90275">
        <ele>423</ele>
        <time>2014-03-29T13:07:30Z</time>
      </trkpt>
      <trkpt lat="43.37399" lon="5.90258">
        <ele>424</ele>
        <time>2014-03-29T13:07:41Z</time>
      </trkpt>
      <trkpt lat="43.37403" lon="5.90252">
        <ele>424</ele>
        <time>2014-03-29T13:07:45Z</time>
      </trkpt>
      <trkpt lat="43.37408" lon="5.90239">
        <ele>425</ele>
        <time>2014-03-29T13:07:53Z</time>
      </trkpt>
      <trkpt lat="43.37411" lon="5.90233">
        <ele>425</ele>
        <time>2014-03-29T13:07:57Z</time>
      </trkpt>
      <trkpt lat="43.37414" lon="5.90225">
        <ele>426</ele>
        <time>2014-03-29T13:08:02Z</time>
      </trkpt>
      <trkpt lat="43.37415" lon="5.90223">
        <ele>426</ele>
        <time>2014-03-29T13:08:03Z</time>
      </trkpt>
      <trkpt lat="43.37417" lon="5.9022">
        <ele>426</ele>
        <time>2014-03-29T13:08:05Z</time>
      </trkpt>
      <trkpt lat="43.37422" lon="5.90214">
        <ele>426</ele>
        <time>2014-03-29T13:08:09Z</time>
      </trkpt>
      <trkpt lat="43.37428" lon="5.90204">
        <ele>427</ele>
        <time>2014-03-29T13:08:16Z</time>
      </trkpt>
      <trkpt lat="43.37432" lon="5.90199">
        <ele>427</ele>
        <time>2014-03-29T13:08:20Z</time>
      </trkpt>
      <trkpt lat="43.37436" lon="5.90191">
        <ele>428</ele>
        <time>2014-03-29T13:08:25Z</time>
      </trkpt>
      <trkpt lat="43.3744" lon="5.90184">
        <ele>428</ele>
        <time>2014-03-29T13:08:30Z</time>
      </trkpt>
      <trkpt lat="43.37445" lon="5.90172">
        <ele>428</ele>
        <time>2014-03-29T13:08:38Z</time>
      </trkpt>
      <trkpt lat="43.37451" lon="5.9015">
        <ele>429</ele>
        <time>2014-03-29T13:08:50Z</time>
      </trkpt>
      <trkpt lat="43.37455" lon="5.9014">
        <ele>429</ele>
        <time>2014-03-29T13:08:56Z</time>
      </trkpt>
      <trkpt lat="43.37463" lon="5.90115">
        <ele>430</ele>
        <time>2014-03-29T13:09:09Z</time>
      </trkpt>
      <trkpt lat="43.37472" lon="5.90101">
        <ele>430</ele>
        <time>2014-03-29T13:09:17Z</time>
      </trkpt>
      <trkpt lat="43.37481" lon="5.90092">
        <ele>430</ele>
        <time>2014-03-29T13:09:24Z</time>
      </trkpt>
      <trkpt lat="43.37487" lon="5.90084">
        <ele>430</ele>
        <time>2014-03-29T13:09:29Z</time>
      </trkpt>
      <trkpt lat="43.37497" lon="5.90074">
        <ele>430</ele>
        <time>2014-03-29T13:09:36Z</time>
      </trkpt>
      <trkpt lat="43.37505" lon="5.90066">
        <ele>430</ele>
        <time>2014-03-29T13:09:41Z</time>
      </trkpt>
      <trkpt lat="43.37506" lon="5.90064">
        <ele>430</ele>
        <time>2014-03-29T13:09:42Z</time>
      </trkpt>
      <trkpt lat="43.37516" lon="5.90055">
        <ele>431</ele>
        <time>2014-03-29T13:09:49Z</time>
      </trkpt>
      <trkpt lat="43.37525" lon="5.90051">
        <ele>431</ele>
        <time>2014-03-29T13:09:56Z</time>
      </trkpt>
      <trkpt lat="43.3754" lon="5.90046">
        <ele>435</ele>
        <time>2014-03-29T13:10:05Z</time>
      </trkpt>
      <trkpt lat="43.37542" lon="5.90046">
        <ele>436</ele>
        <time>2014-03-29T13:10:06Z</time>
      </trkpt>
      <trkpt lat="43.37544" lon="5.90044">
        <ele>437</ele>
        <time>2014-03-29T13:10:08Z</time>
      </trkpt>
      <trkpt lat="43.37553" lon="5.90038">
        <ele>439</ele>
        <time>2014-03-29T13:10:14Z</time>
      </trkpt>
      <trkpt lat="43.37559" lon="5.90036">
        <ele>441</ele>
        <time>2014-03-29T13:10:18Z</time>
      </trkpt>
      <trkpt lat="43.37565" lon="5.90032">
        <ele>442</ele>
        <time>2014-03-29T13:10:25Z</time>
      </trkpt>
      <trkpt lat="43.37567" lon="5.90031">
        <ele>442</ele>
        <time>2014-03-29T13:10:27Z</time>
      </trkpt>
      <trkpt lat="43.3757" lon="5.90029">
        <ele>443</ele>
        <time>2014-03-29T13:10:30Z</time>
      </trkpt>
      <trkpt lat="43.37587" lon="5.9002">
        <ele>445</ele>
        <time>2014-03-29T13:10:43Z</time>
      </trkpt>
      <trkpt lat="43.37592" lon="5.90016">
        <ele>445</ele>
        <time>2014-03-29T13:10:46Z</time>
      </trkpt>
      <trkpt lat="43.37599" lon="5.90007">
        <ele>446</ele>
        <time>2014-03-29T13:10:52Z</time>
      </trkpt>
      <trkpt lat="43.37611" lon="5.89992">
        <ele>447</ele>
        <time>2014-03-29T13:11:00Z</time>
      </trkpt>
      <trkpt lat="43.37619" lon="5.89982">
        <ele>447</ele>
        <time>2014-03-29T13:11:06Z</time>
      </trkpt>
      <trkpt lat="43.37639" lon="5.89967">
        <ele>448</ele>
        <time>2014-03-29T13:11:17Z</time>
      </trkpt>
      <trkpt lat="43.37655" lon="5.89956">
        <ele>449</ele>
        <time>2014-03-29T13:11:25Z</time>
      </trkpt>
      <trkpt lat="43.37663" lon="5.8995">
        <ele>450</ele>
        <time>2014-03-29T13:11:29Z</time>
      </trkpt>
      <trkpt lat="43.37669" lon="5.89945">
        <ele>450</ele>
        <time>2014-03-29T13:11:32Z</time>
      </trkpt>
      <trkpt lat="43.37683" lon="5.8993">
        <ele>450</ele>
        <time>2014-03-29T13:11:39Z</time>
      </trkpt>
      <trkpt lat="43.37697" lon="5.8991">
        <ele>450</ele>
        <time>2014-03-29T13:11:45Z</time>
      </trkpt>
      <trkpt lat="43.377" lon="5.89891">
        <ele>451</ele>
        <time>2014-03-29T13:11:49Z</time>
      </trkpt>
      <trkpt lat="43.37696" lon="5.89877">
        <ele>451</ele>
        <time>2014-03-29T13:11:52Z</time>
      </trkpt>
      <trkpt lat="43.37693" lon="5.89863">
        <ele>451</ele>
        <time>2014-03-29T13:11:57Z</time>
      </trkpt>
      <trkpt lat="43.37693" lon="5.89855">
        <ele>451</ele>
        <time>2014-03-29T13:12:00Z</time>
      </trkpt>
      <trkpt lat="43.37691" lon="5.8985">
        <ele>451</ele>
        <time>2014-03-29T13:12:02Z</time>
      </trkpt>
      <trkpt lat="43.37689" lon="5.89843">
        <ele>452</ele>
        <time>2014-03-29T13:12:05Z</time>
      </trkpt>
      <trkpt lat="43.37687" lon="5.89838">
        <ele>452</ele>
        <time>2014-03-29T13:12:07Z</time>
      </trkpt>
      <trkpt lat="43.37685" lon="5.89834">
        <ele>452</ele>
        <time>2014-03-29T13:12:09Z</time>
      </trkpt>
      <trkpt lat="43.37685" lon="5.89823">
        <ele>452</ele>
        <time>2014-03-29T13:12:14Z</time>
      </trkpt>
      <trkpt lat="43.37684" lon="5.89818">
        <ele>453</ele>
        <time>2014-03-29T13:12:17Z</time>
      </trkpt>
      <trkpt lat="43.37684" lon="5.89814">
        <ele>453</ele>
        <time>2014-03-29T13:12:20Z</time>
      </trkpt>
      <trkpt lat="43.37688" lon="5.89802">
        <ele>453</ele>
        <time>2014-03-29T13:12:26Z</time>
      </trkpt>
      <trkpt lat="43.37693" lon="5.89786">
        <ele>453</ele>
        <time>2014-03-29T13:12:32Z</time>
      </trkpt>
      <trkpt lat="43.37694" lon="5.8978">
        <ele>453</ele>
        <time>2014-03-29T13:12:35Z</time>
      </trkpt>
      <trkpt lat="43.37695" lon="5.8976">
        <ele>454</ele>
        <time>2014-03-29T13:12:43Z</time>
      </trkpt>
      <trkpt lat="43.37696" lon="5.89746">
        <ele>454</ele>
        <time>2014-03-29T13:12:49Z</time>
      </trkpt>
      <trkpt lat="43.37696" lon="5.8974">
        <ele>454</ele>
        <time>2014-03-29T13:12:51Z</time>
      </trkpt>
      <trkpt lat="43.37693" lon="5.89725">
        <ele>455</ele>
        <time>2014-03-29T13:12:55Z</time>
      </trkpt>
      <trkpt lat="43.37691" lon="5.89718">
        <ele>455</ele>
        <time>2014-03-29T13:12:57Z</time>
      </trkpt>
      <trkpt lat="43.37689" lon="5.89711">
        <ele>455</ele>
        <time>2014-03-29T13:12:59Z</time>
      </trkpt>
      <trkpt lat="43.37688" lon="5.89705">
        <ele>455</ele>
        <time>2014-03-29T13:13:01Z</time>
      </trkpt>
      <trkpt lat="43.37687" lon="5.89702">
        <ele>455</ele>
        <time>2014-03-29T13:13:02Z</time>
      </trkpt>
      <trkpt lat="43.37686" lon="5.897">
        <ele>455</ele>
        <time>2014-03-29T13:13:03Z</time>
      </trkpt>
      <trkpt lat="43.37685" lon="5.897">
        <ele>455</ele>
        <time>2014-03-29T13:13:04Z</time>
      </trkpt>
      <trkpt lat="43.37684" lon="5.89693">
        <ele>455</ele>
        <time>2014-03-29T13:13:07Z</time>
      </trkpt>
      <trkpt lat="43.37685" lon="5.89685">
        <ele>456</ele>
        <time>2014-03-29T13:13:11Z</time>
      </trkpt>
      <trkpt lat="43.37685" lon="5.89664">
        <ele>456</ele>
        <time>2014-03-29T13:13:20Z</time>
      </trkpt>
      <trkpt lat="43.37685" lon="5.8966">
        <ele>456</ele>
        <time>2014-03-29T13:13:21Z</time>
      </trkpt>
      <trkpt lat="43.37681" lon="5.89654">
        <ele>456</ele>
        <time>2014-03-29T13:13:24Z</time>
      </trkpt>
      <trkpt lat="43.37679" lon="5.89648">
        <ele>457</ele>
        <time>2014-03-29T13:13:27Z</time>
      </trkpt>
      <trkpt lat="43.37674" lon="5.8964">
        <ele>457</ele>
        <time>2014-03-29T13:13:32Z</time>
      </trkpt>
      <trkpt lat="43.37668" lon="5.89632">
        <ele>457</ele>
        <time>2014-03-29T13:13:37Z</time>
      </trkpt>
      <trkpt lat="43.37667" lon="5.89631">
        <ele>457</ele>
        <time>2014-03-29T13:13:38Z</time>
      </trkpt>
      <trkpt lat="43.37666" lon="5.89629">
        <ele>457</ele>
        <time>2014-03-29T13:13:44Z</time>
      </trkpt>
      <trkpt lat="43.37666" lon="5.89629">
        <ele>457</ele>
        <time>2014-03-29T13:13:50Z</time>
      </trkpt>
      <trkpt lat="43.37664" lon="5.89625">
        <ele>457</ele>
        <time>2014-03-29T13:13:53Z</time>
      </trkpt>
      <trkpt lat="43.37661" lon="5.89618">
        <ele>458</ele>
        <time>2014-03-29T13:13:57Z</time>
      </trkpt>
      <trkpt lat="43.3766" lon="5.89614">
        <ele>458</ele>
        <time>2014-03-29T13:13:59Z</time>
      </trkpt>
      <trkpt lat="43.37658" lon="5.89604">
        <ele>458</ele>
        <time>2014-03-29T13:14:03Z</time>
      </trkpt>
      <trkpt lat="43.37656" lon="5.89588">
        <ele>458</ele>
        <time>2014-03-29T13:14:10Z</time>
      </trkpt>
      <trkpt lat="43.37656" lon="5.89586">
        <ele>459</ele>
        <time>2014-03-29T13:14:11Z</time>
      </trkpt>
      <trkpt lat="43.37656" lon="5.89578">
        <ele>459</ele>
        <time>2014-03-29T13:14:14Z</time>
      </trkpt>
      <trkpt lat="43.37654" lon="5.89568">
        <ele>459</ele>
        <time>2014-03-29T13:14:18Z</time>
      </trkpt>
      <trkpt lat="43.37654" lon="5.89557">
        <ele>459</ele>
        <time>2014-03-29T13:14:23Z</time>
      </trkpt>
      <trkpt lat="43.37654" lon="5.89527">
        <ele>460</ele>
        <time>2014-03-29T13:14:35Z</time>
      </trkpt>
      <trkpt lat="43.37654" lon="5.89523">
        <ele>460</ele>
        <time>2014-03-29T13:14:37Z</time>
      </trkpt>
      <trkpt lat="43.3765" lon="5.89496">
        <ele>461</ele>
        <time>2014-03-29T13:14:49Z</time>
      </trkpt>
      <trkpt lat="43.37652" lon="5.89482">
        <ele>462</ele>
        <time>2014-03-29T13:14:56Z</time>
      </trkpt>
      <trkpt lat="43.37654" lon="5.89474">
        <ele>462</ele>
        <time>2014-03-29T13:15:00Z</time>
      </trkpt>
      <trkpt lat="43.37655" lon="5.89473">
        <ele>463</ele>
        <time>2014-03-29T13:15:01Z</time>
      </trkpt>
      <trkpt lat="43.37658" lon="5.8947">
        <ele>463</ele>
        <time>2014-03-29T13:15:03Z</time>
      </trkpt>
      <trkpt lat="43.37659" lon="5.89469">
        <ele>463</ele>
        <time>2014-03-29T13:15:04Z</time>
      </trkpt>
      <trkpt lat="43.37662" lon="5.89469">
        <ele>463</ele>
        <time>2014-03-29T13:15:06Z</time>
      </trkpt>
      <trkpt lat="43.37667" lon="5.89469">
        <ele>463</ele>
        <time>2014-03-29T13:15:09Z</time>
      </trkpt>
      <trkpt lat="43.3767" lon="5.89468">
        <ele>463</ele>
        <time>2014-03-29T13:15:11Z</time>
      </trkpt>
      <trkpt lat="43.37673" lon="5.89464">
        <ele>463</ele>
        <time>2014-03-29T13:15:13Z</time>
      </trkpt>
      <trkpt lat="43.37678" lon="5.89455">
        <ele>463</ele>
        <time>2014-03-29T13:15:18Z</time>
      </trkpt>
      <trkpt lat="43.37685" lon="5.89445">
        <ele>464</ele>
        <time>2014-03-29T13:15:24Z</time>
      </trkpt>
      <trkpt lat="43.37693" lon="5.89435">
        <ele>465</ele>
        <time>2014-03-29T13:15:30Z</time>
      </trkpt>
      <trkpt lat="43.37693" lon="5.89433">
        <ele>465</ele>
        <time>2014-03-29T13:15:31Z</time>
      </trkpt>
      <trkpt lat="43.37692" lon="5.89422">
        <ele>466</ele>
        <time>2014-03-29T13:15:36Z</time>
      </trkpt>
      <trkpt lat="43.3769" lon="5.89413">
        <ele>466</ele>
        <time>2014-03-29T13:15:42Z</time>
      </trkpt>
      <trkpt lat="43.37688" lon="5.89401">
        <ele>467</ele>
        <time>2014-03-29T13:15:49Z</time>
      </trkpt>
      <trkpt lat="43.37688" lon="5.89396">
        <ele>467</ele>
        <time>2014-03-29T13:15:52Z</time>
      </trkpt>
      <trkpt lat="43.37689" lon="5.8938">
        <ele>468</ele>
        <time>2014-03-29T13:16:00Z</time>
      </trkpt>
      <trkpt lat="43.37689" lon="5.89368">
        <ele>469</ele>
        <time>2014-03-29T13:16:06Z</time>
      </trkpt>
      <trkpt lat="43.3769" lon="5.89364">
        <ele>469</ele>
        <time>2014-03-29T13:16:08Z</time>
      </trkpt>
      <trkpt lat="43.3769" lon="5.89356">
        <ele>470</ele>
        <time>2014-03-29T13:16:11Z</time>
      </trkpt>
      <trkpt lat="43.37694" lon="5.89347">
        <ele>470</ele>
        <time>2014-03-29T13:16:15Z</time>
      </trkpt>
      <trkpt lat="43.37696" lon="5.89343">
        <ele>470</ele>
        <time>2014-03-29T13:16:17Z</time>
      </trkpt>
      <trkpt lat="43.37698" lon="5.89338">
        <ele>470</ele>
        <time>2014-03-29T13:16:19Z</time>
      </trkpt>
      <trkpt lat="43.377" lon="5.89325">
        <ele>471</ele>
        <time>2014-03-29T13:16:24Z</time>
      </trkpt>
      <trkpt lat="43.37697" lon="5.89317">
        <ele>471</ele>
        <time>2014-03-29T13:16:28Z</time>
      </trkpt>
      <trkpt lat="43.37694" lon="5.8931">
        <ele>472</ele>
        <time>2014-03-29T13:16:32Z</time>
      </trkpt>
      <trkpt lat="43.37687" lon="5.89296">
        <ele>473</ele>
        <time>2014-03-29T13:16:41Z</time>
      </trkpt>
      <trkpt lat="43.37687" lon="5.89288">
        <ele>474</ele>
        <time>2014-03-29T13:16:45Z</time>
      </trkpt>
      <trkpt lat="43.37688" lon="5.89284">
        <ele>474</ele>
        <time>2014-03-29T13:16:47Z</time>
      </trkpt>
      <trkpt lat="43.37691" lon="5.89273">
        <ele>474</ele>
        <time>2014-03-29T13:16:54Z</time>
      </trkpt>
      <trkpt lat="43.37696" lon="5.89264">
        <ele>475</ele>
        <time>2014-03-29T13:17:01Z</time>
      </trkpt>
      <trkpt lat="43.37698" lon="5.89258">
        <ele>475</ele>
        <time>2014-03-29T13:17:04Z</time>
      </trkpt>
      <trkpt lat="43.37699" lon="5.89251">
        <ele>475</ele>
        <time>2014-03-29T13:17:07Z</time>
      </trkpt>
      <trkpt lat="43.37699" lon="5.89243">
        <ele>476</ele>
        <time>2014-03-29T13:17:11Z</time>
      </trkpt>
      <trkpt lat="43.37699" lon="5.89239">
        <ele>476</ele>
        <time>2014-03-29T13:17:13Z</time>
      </trkpt>
      <trkpt lat="43.37699" lon="5.89231">
        <ele>477</ele>
        <time>2014-03-29T13:17:17Z</time>
      </trkpt>
      <trkpt lat="43.377" lon="5.8922">
        <ele>477</ele>
        <time>2014-03-29T13:17:22Z</time>
      </trkpt>
      <trkpt lat="43.37701" lon="5.89207">
        <ele>478</ele>
        <time>2014-03-29T13:17:28Z</time>
      </trkpt>
      <trkpt lat="43.37701" lon="5.89205">
        <ele>478</ele>
        <time>2014-03-29T13:17:29Z</time>
      </trkpt>
      <trkpt lat="43.37706" lon="5.89186">
        <ele>479</ele>
        <time>2014-03-29T13:17:39Z</time>
      </trkpt>
      <trkpt lat="43.37711" lon="5.89168">
        <ele>479</ele>
        <time>2014-03-29T13:17:47Z</time>
      </trkpt>
      <trkpt lat="43.37711" lon="5.89154">
        <ele>479</ele>
        <time>2014-03-29T13:17:53Z</time>
      </trkpt>
      <trkpt lat="43.37712" lon="5.8913">
        <ele>478</ele>
        <time>2014-03-29T13:18:04Z</time>
      </trkpt>
      <trkpt lat="43.37712" lon="5.89128">
        <ele>478</ele>
        <time>2014-03-29T13:18:05Z</time>
      </trkpt>
      <trkpt lat="43.37709" lon="5.89121">
        <ele>478</ele>
        <time>2014-03-29T13:18:09Z</time>
      </trkpt>
      <trkpt lat="43.377" lon="5.89112">
        <ele>479</ele>
        <time>2014-03-29T13:18:16Z</time>
      </trkpt>
      <trkpt lat="43.37697" lon="5.89103">
        <ele>480</ele>
        <time>2014-03-29T13:18:20Z</time>
      </trkpt>
      <trkpt lat="43.37697" lon="5.89099">
        <ele>480</ele>
        <time>2014-03-29T13:18:22Z</time>
      </trkpt>
      <trkpt lat="43.37694" lon="5.89076">
        <ele>480</ele>
        <time>2014-03-29T13:18:33Z</time>
      </trkpt>
      <trkpt lat="43.37692" lon="5.89067">
        <ele>480</ele>
        <time>2014-03-29T13:18:38Z</time>
      </trkpt>
      <trkpt lat="43.37687" lon="5.89046">
        <ele>480</ele>
        <time>2014-03-29T13:18:49Z</time>
      </trkpt>
      <trkpt lat="43.37686" lon="5.8904">
        <ele>480</ele>
        <time>2014-03-29T13:18:52Z</time>
      </trkpt>
      <trkpt lat="43.37685" lon="5.89035">
        <ele>480</ele>
        <time>2014-03-29T13:18:55Z</time>
      </trkpt>
      <trkpt lat="43.37685" lon="5.89025">
        <ele>480</ele>
        <time>2014-03-29T13:19:00Z</time>
      </trkpt>
      <trkpt lat="43.37685" lon="5.89009">
        <ele>480</ele>
        <time>2014-03-29T13:19:07Z</time>
      </trkpt>
      <trkpt lat="43.37684" lon="5.88995">
        <ele>479</ele>
        <time>2014-03-29T13:19:13Z</time>
      </trkpt>
      <trkpt lat="43.37682" lon="5.8898">
        <ele>479</ele>
        <time>2014-03-29T13:19:19Z</time>
      </trkpt>
      <trkpt lat="43.37682" lon="5.88975">
        <ele>479</ele>
        <time>2014-03-29T13:19:22Z</time>
      </trkpt>
      <trkpt lat="43.3768" lon="5.88965">
        <ele>479</ele>
        <time>2014-03-29T13:19:26Z</time>
      </trkpt>
      <trkpt lat="43.3768" lon="5.88962">
        <ele>479</ele>
        <time>2014-03-29T13:19:30Z</time>
      </trkpt>
      <trkpt lat="43.3768" lon="5.88961">
        <ele>479</ele>
        <time>2014-03-29T13:19:37Z</time>
      </trkpt>
      <trkpt lat="43.3768" lon="5.88961">
        <ele>479</ele>
        <time>2014-03-29T13:19:59Z</time>
      </trkpt>
      <trkpt lat="43.3768" lon="5.88961">
        <ele>479</ele>
        <time>2014-03-29T13:20:08Z</time>
      </trkpt>
      <trkpt lat="43.37679" lon="5.88961">
        <ele>479</ele>
        <time>2014-03-29T13:20:18Z</time>
      </trkpt>
      <trkpt lat="43.37679" lon="5.88961">
        <ele>479</ele>
        <time>2014-03-29T13:20:28Z</time>
      </trkpt>
      <trkpt lat="43.37679" lon="5.88959">
        <ele>479</ele>
        <time>2014-03-29T13:20:35Z</time>
      </trkpt>
      <trkpt lat="43.37678" lon="5.88957">
        <ele>479</ele>
        <time>2014-03-29T13:20:36Z</time>
      </trkpt>
      <trkpt lat="43.37675" lon="5.88944">
        <ele>479</ele>
        <time>2014-03-29T13:20:40Z</time>
      </trkpt>
      <trkpt lat="43.37671" lon="5.88928">
        <ele>479</ele>
        <time>2014-03-29T13:20:44Z</time>
      </trkpt>
      <trkpt lat="43.3767" lon="5.88924">
        <ele>480</ele>
        <time>2014-03-29T13:20:45Z</time>
      </trkpt>
      <trkpt lat="43.37665" lon="5.8891">
        <ele>480</ele>
        <time>2014-03-29T13:20:49Z</time>
      </trkpt>
      <trkpt lat="43.37662" lon="5.8889">
        <ele>480</ele>
        <time>2014-03-29T13:20:54Z</time>
      </trkpt>
      <trkpt lat="43.37656" lon="5.88868">
        <ele>480</ele>
        <time>2014-03-29T13:20:59Z</time>
      </trkpt>
      <trkpt lat="43.37654" lon="5.88864">
        <ele>480</ele>
        <time>2014-03-29T13:21:00Z</time>
      </trkpt>
      <trkpt lat="43.37647" lon="5.88864">
        <ele>481</ele>
        <time>2014-03-29T13:21:02Z</time>
      </trkpt>
      <trkpt lat="43.37636" lon="5.88863">
        <ele>482</ele>
        <time>2014-03-29T13:21:06Z</time>
      </trkpt>
      <trkpt lat="43.3763" lon="5.88857">
        <ele>484</ele>
        <time>2014-03-29T13:21:10Z</time>
      </trkpt>
      <trkpt lat="43.3763" lon="5.8885">
        <ele>484</ele>
        <time>2014-03-29T13:21:13Z</time>
      </trkpt>
      <trkpt lat="43.37629" lon="5.88841">
        <ele>483</ele>
        <time>2014-03-29T13:21:16Z</time>
      </trkpt>
      <trkpt lat="43.37629" lon="5.88835">
        <ele>484</ele>
        <time>2014-03-29T13:21:18Z</time>
      </trkpt>
      <trkpt lat="43.37627" lon="5.88831">
        <ele>484</ele>
        <time>2014-03-29T13:21:19Z</time>
      </trkpt>
      <trkpt lat="43.37624" lon="5.88822">
        <ele>485</ele>
        <time>2014-03-29T13:21:22Z</time>
      </trkpt>
      <trkpt lat="43.37624" lon="5.88819">
        <ele>485</ele>
        <time>2014-03-29T13:21:23Z</time>
      </trkpt>
      <trkpt lat="43.37623" lon="5.88812">
        <ele>485</ele>
        <time>2014-03-29T13:21:25Z</time>
      </trkpt>
      <trkpt lat="43.37621" lon="5.88796">
        <ele>485</ele>
        <time>2014-03-29T13:21:30Z</time>
      </trkpt>
      <trkpt lat="43.37616" lon="5.88778">
        <ele>487</ele>
        <time>2014-03-29T13:21:36Z</time>
      </trkpt>
      <trkpt lat="43.37613" lon="5.88773">
        <ele>489</ele>
        <time>2014-03-29T13:21:38Z</time>
      </trkpt>
      <trkpt lat="43.37608" lon="5.88766">
        <ele>490</ele>
        <time>2014-03-29T13:21:41Z</time>
      </trkpt>
      <trkpt lat="43.37606" lon="5.88765">
        <ele>490</ele>
        <time>2014-03-29T13:21:42Z</time>
      </trkpt>
      <trkpt lat="43.37598" lon="5.88767">
        <ele>490</ele>
        <time>2014-03-29T13:21:46Z</time>
      </trkpt>
      <trkpt lat="43.37594" lon="5.88771">
        <ele>490</ele>
        <time>2014-03-29T13:21:50Z</time>
      </trkpt>
      <trkpt lat="43.37591" lon="5.88768">
        <ele>490</ele>
        <time>2014-03-29T13:21:52Z</time>
      </trkpt>
      <trkpt lat="43.37589" lon="5.88765">
        <ele>490</ele>
        <time>2014-03-29T13:21:54Z</time>
      </trkpt>
      <trkpt lat="43.37588" lon="5.8876">
        <ele>490</ele>
        <time>2014-03-29T13:21:56Z</time>
      </trkpt>
      <trkpt lat="43.37589" lon="5.88754">
        <ele>491</ele>
        <time>2014-03-29T13:21:58Z</time>
      </trkpt>
      <trkpt lat="43.37586" lon="5.88736">
        <ele>491</ele>
        <time>2014-03-29T13:22:04Z</time>
      </trkpt>
      <trkpt lat="43.37573" lon="5.88721">
        <ele>492</ele>
        <time>2014-03-29T13:22:10Z</time>
      </trkpt>
      <trkpt lat="43.3756" lon="5.887">
        <ele>492</ele>
        <time>2014-03-29T13:22:17Z</time>
      </trkpt>
      <trkpt lat="43.37557" lon="5.8869">
        <ele>492</ele>
        <time>2014-03-29T13:22:20Z</time>
      </trkpt>
      <trkpt lat="43.37561" lon="5.88659">
        <ele>494</ele>
        <time>2014-03-29T13:22:30Z</time>
      </trkpt>
      <trkpt lat="43.3756" lon="5.88646">
        <ele>494</ele>
        <time>2014-03-29T13:22:34Z</time>
      </trkpt>
      <trkpt lat="43.37562" lon="5.88638">
        <ele>494</ele>
        <time>2014-03-29T13:22:37Z</time>
      </trkpt>
      <trkpt lat="43.37569" lon="5.88621">
        <ele>495</ele>
        <time>2014-03-29T13:22:44Z</time>
      </trkpt>
      <trkpt lat="43.37571" lon="5.88614">
        <ele>495</ele>
        <time>2014-03-29T13:22:47Z</time>
      </trkpt>
      <trkpt lat="43.37571" lon="5.88609">
        <ele>496</ele>
        <time>2014-03-29T13:22:49Z</time>
      </trkpt>
      <trkpt lat="43.3757" lon="5.88604">
        <ele>496</ele>
        <time>2014-03-29T13:22:51Z</time>
      </trkpt>
      <trkpt lat="43.37567" lon="5.88592">
        <ele>496</ele>
        <time>2014-03-29T13:22:56Z</time>
      </trkpt>
      <trkpt lat="43.37563" lon="5.88576">
        <ele>497</ele>
        <time>2014-03-29T13:23:02Z</time>
      </trkpt>
      <trkpt lat="43.37558" lon="5.88561">
        <ele>498</ele>
        <time>2014-03-29T13:23:08Z</time>
      </trkpt>
      <trkpt lat="43.37558" lon="5.88545">
        <ele>498</ele>
        <time>2014-03-29T13:23:14Z</time>
      </trkpt>
      <trkpt lat="43.37558" lon="5.88538">
        <ele>498</ele>
        <time>2014-03-29T13:23:17Z</time>
      </trkpt>
      <trkpt lat="43.37558" lon="5.88536">
        <ele>498</ele>
        <time>2014-03-29T13:23:18Z</time>
      </trkpt>
      <trkpt lat="43.37558" lon="5.88535">
        <ele>498</ele>
        <time>2014-03-29T13:23:19Z</time>
      </trkpt>
      <trkpt lat="43.37559" lon="5.88533">
        <ele>498</ele>
        <time>2014-03-29T13:23:20Z</time>
      </trkpt>
      <trkpt lat="43.37559" lon="5.88528">
        <ele>498</ele>
        <time>2014-03-29T13:23:26Z</time>
      </trkpt>
      <trkpt lat="43.37559" lon="5.88528">
        <ele>498</ele>
        <time>2014-03-29T13:23:47Z</time>
      </trkpt>
      <trkpt lat="43.37559" lon="5.88528">
        <ele>498</ele>
        <time>2014-03-29T13:23:56Z</time>
      </trkpt>
      <trkpt lat="43.37559" lon="5.88526">
        <ele>498</ele>
        <time>2014-03-29T13:23:59Z</time>
      </trkpt>
      <trkpt lat="43.37558" lon="5.88516">
        <ele>499</ele>
        <time>2014-03-29T13:24:04Z</time>
      </trkpt>
      <trkpt lat="43.37558" lon="5.88505">
        <ele>500</ele>
        <time>2014-03-29T13:24:08Z</time>
      </trkpt>
      <trkpt lat="43.37557" lon="5.88502">
        <ele>500</ele>
        <time>2014-03-29T13:24:09Z</time>
      </trkpt>
      <trkpt lat="43.37556" lon="5.88493">
        <ele>500</ele>
        <time>2014-03-29T13:24:12Z</time>
      </trkpt>
      <trkpt lat="43.37557" lon="5.88485">
        <ele>500</ele>
        <time>2014-03-29T13:24:16Z</time>
      </trkpt>
      <trkpt lat="43.37556" lon="5.88479">
        <ele>500</ele>
        <time>2014-03-29T13:24:19Z</time>
      </trkpt>
      <trkpt lat="43.37556" lon="5.88464">
        <ele>500</ele>
        <time>2014-03-29T13:24:25Z</time>
      </trkpt>
      <trkpt lat="43.37556" lon="5.8846">
        <ele>500</ele>
        <time>2014-03-29T13:24:26Z</time>
      </trkpt>
      <trkpt lat="43.37559" lon="5.88439">
        <ele>500</ele>
        <time>2014-03-29T13:24:32Z</time>
      </trkpt>
      <trkpt lat="43.37561" lon="5.88424">
        <ele>500</ele>
        <time>2014-03-29T13:24:38Z</time>
      </trkpt>
      <trkpt lat="43.37562" lon="5.88415">
        <ele>500</ele>
        <time>2014-03-29T13:24:42Z</time>
      </trkpt>
      <trkpt lat="43.37563" lon="5.88398">
        <ele>500</ele>
        <time>2014-03-29T13:24:47Z</time>
      </trkpt>
      <trkpt lat="43.37561" lon="5.88384">
        <ele>500</ele>
        <time>2014-03-29T13:24:51Z</time>
      </trkpt>
      <trkpt lat="43.37561" lon="5.88381">
        <ele>500</ele>
        <time>2014-03-29T13:24:52Z</time>
      </trkpt>
      <trkpt lat="43.37561" lon="5.88375">
        <ele>500</ele>
        <time>2014-03-29T13:24:54Z</time>
      </trkpt>
      <trkpt lat="43.37561" lon="5.88369">
        <ele>500</ele>
        <time>2014-03-29T13:24:56Z</time>
      </trkpt>
      <trkpt lat="43.3756" lon="5.88364">
        <ele>500</ele>
        <time>2014-03-29T13:24:58Z</time>
      </trkpt>
      <trkpt lat="43.37558" lon="5.88353">
        <ele>500</ele>
        <time>2014-03-29T13:25:03Z</time>
      </trkpt>
      <trkpt lat="43.37553" lon="5.88344">
        <ele>500</ele>
        <time>2014-03-29T13:25:07Z</time>
      </trkpt>
      <trkpt lat="43.37543" lon="5.88323">
        <ele>500</ele>
        <time>2014-03-29T13:25:15Z</time>
      </trkpt>
      <trkpt lat="43.37532" lon="5.88306">
        <ele>501</ele>
        <time>2014-03-29T13:25:22Z</time>
      </trkpt>
      <trkpt lat="43.37526" lon="5.88295">
        <ele>501</ele>
        <time>2014-03-29T13:25:26Z</time>
      </trkpt>
      <trkpt lat="43.37517" lon="5.88278">
        <ele>501</ele>
        <time>2014-03-29T13:25:32Z</time>
      </trkpt>
      <trkpt lat="43.37516" lon="5.88256">
        <ele>501</ele>
        <time>2014-03-29T13:25:37Z</time>
      </trkpt>
      <trkpt lat="43.37519" lon="5.88242">
        <ele>501</ele>
        <time>2014-03-29T13:25:41Z</time>
      </trkpt>
      <trkpt lat="43.37519" lon="5.88238">
        <ele>501</ele>
        <time>2014-03-29T13:25:42Z</time>
      </trkpt>
      <trkpt lat="43.37513" lon="5.88196">
        <ele>502</ele>
        <time>2014-03-29T13:25:54Z</time>
      </trkpt>
      <trkpt lat="43.37518" lon="5.88178">
        <ele>502</ele>
        <time>2014-03-29T13:26:00Z</time>
      </trkpt>
      <trkpt lat="43.37524" lon="5.8816">
        <ele>501</ele>
        <time>2014-03-29T13:26:06Z</time>
      </trkpt>
      <trkpt lat="43.37522" lon="5.88148">
        <ele>501</ele>
        <time>2014-03-29T13:26:11Z</time>
      </trkpt>
      <trkpt lat="43.37521" lon="5.88142">
        <ele>502</ele>
        <time>2014-03-29T13:26:14Z</time>
      </trkpt>
      <trkpt lat="43.37523" lon="5.8813">
        <ele>501</ele>
        <time>2014-03-29T13:26:19Z</time>
      </trkpt>
      <trkpt lat="43.37526" lon="5.88103">
        <ele>501</ele>
        <time>2014-03-29T13:26:31Z</time>
      </trkpt>
      <trkpt lat="43.37524" lon="5.88091">
        <ele>502</ele>
        <time>2014-03-29T13:26:36Z</time>
      </trkpt>
      <trkpt lat="43.37523" lon="5.88083">
        <ele>502</ele>
        <time>2014-03-29T13:26:40Z</time>
      </trkpt>
      <trkpt lat="43.37523" lon="5.88072">
        <ele>502</ele>
        <time>2014-03-29T13:26:46Z</time>
      </trkpt>
      <trkpt lat="43.37522" lon="5.88068">
        <ele>502</ele>
        <time>2014-03-29T13:26:49Z</time>
      </trkpt>
      <trkpt lat="43.37522" lon="5.88066">
        <ele>502</ele>
        <time>2014-03-29T13:26:51Z</time>
      </trkpt>
      <trkpt lat="43.37521" lon="5.88058">
        <ele>502</ele>
        <time>2014-03-29T13:26:57Z</time>
      </trkpt>
      <trkpt lat="43.37521" lon="5.88055">
        <ele>502</ele>
        <time>2014-03-29T13:26:59Z</time>
      </trkpt>
      <trkpt lat="43.3752" lon="5.88051">
        <ele>503</ele>
        <time>2014-03-29T13:27:02Z</time>
      </trkpt>
      <trkpt lat="43.37518" lon="5.88046">
        <ele>503</ele>
        <time>2014-03-29T13:27:05Z</time>
      </trkpt>
      <trkpt lat="43.37516" lon="5.88039">
        <ele>503</ele>
        <time>2014-03-29T13:27:09Z</time>
      </trkpt>
      <trkpt lat="43.37515" lon="5.88037">
        <ele>503</ele>
        <time>2014-03-29T13:27:10Z</time>
      </trkpt>
      <trkpt lat="43.37514" lon="5.88027">
        <ele>503</ele>
        <time>2014-03-29T13:27:15Z</time>
      </trkpt>
      <trkpt lat="43.37514" lon="5.88019">
        <ele>503</ele>
        <time>2014-03-29T13:27:19Z</time>
      </trkpt>
      <trkpt lat="43.37513" lon="5.88015">
        <ele>503</ele>
        <time>2014-03-29T13:27:21Z</time>
      </trkpt>
      <trkpt lat="43.37513" lon="5.88003">
        <ele>503</ele>
        <time>2014-03-29T13:27:27Z</time>
      </trkpt>
      <trkpt lat="43.3751" lon="5.87994">
        <ele>503</ele>
        <time>2014-03-29T13:27:31Z</time>
      </trkpt>
      <trkpt lat="43.3751" lon="5.87975">
        <ele>504</ele>
        <time>2014-03-29T13:27:38Z</time>
      </trkpt>
      <trkpt lat="43.37509" lon="5.87957">
        <ele>504</ele>
        <time>2014-03-29T13:27:45Z</time>
      </trkpt>
      <trkpt lat="43.37507" lon="5.8792">
        <ele>504</ele>
        <time>2014-03-29T13:27:58Z</time>
      </trkpt>
      <trkpt lat="43.37502" lon="5.87892">
        <ele>505</ele>
        <time>2014-03-29T13:28:07Z</time>
      </trkpt>
      <trkpt lat="43.375" lon="5.87882">
        <ele>505</ele>
        <time>2014-03-29T13:28:10Z</time>
      </trkpt>
      <trkpt lat="43.37495" lon="5.8786">
        <ele>506</ele>
        <time>2014-03-29T13:28:16Z</time>
      </trkpt>
      <trkpt lat="43.37494" lon="5.87853">
        <ele>507</ele>
        <time>2014-03-29T13:28:18Z</time>
      </trkpt>
      <trkpt lat="43.37493" lon="5.87849">
        <ele>507</ele>
        <time>2014-03-29T13:28:19Z</time>
      </trkpt>
      <trkpt lat="43.37482" lon="5.8781">
        <ele>508</ele>
        <time>2014-03-29T13:28:28Z</time>
      </trkpt>
      <trkpt lat="43.37464" lon="5.87752">
        <ele>510</ele>
        <time>2014-03-29T13:28:40Z</time>
      </trkpt>
      <trkpt lat="43.37461" lon="5.87747">
        <ele>511</ele>
        <time>2014-03-29T13:28:41Z</time>
      </trkpt>
      <trkpt lat="43.3746" lon="5.87736">
        <ele>511</ele>
        <time>2014-03-29T13:28:43Z</time>
      </trkpt>
      <trkpt lat="43.37457" lon="5.87725">
        <ele>511</ele>
        <time>2014-03-29T13:28:45Z</time>
      </trkpt>
      <trkpt lat="43.37455" lon="5.87714">
        <ele>512</ele>
        <time>2014-03-29T13:28:47Z</time>
      </trkpt>
      <trkpt lat="43.37453" lon="5.87702">
        <ele>512</ele>
        <time>2014-03-29T13:28:49Z</time>
      </trkpt>
      <trkpt lat="43.37445" lon="5.87664">
        <ele>513</ele>
        <time>2014-03-29T13:28:57Z</time>
      </trkpt>
      <trkpt lat="43.3744" lon="5.87652">
        <ele>513</ele>
        <time>2014-03-29T13:29:00Z</time>
      </trkpt>
      <trkpt lat="43.37438" lon="5.87639">
        <ele>514</ele>
        <time>2014-03-29T13:29:03Z</time>
      </trkpt>
      <trkpt lat="43.37437" lon="5.87634">
        <ele>514</ele>
        <time>2014-03-29T13:29:04Z</time>
      </trkpt>
      <trkpt lat="43.3743" lon="5.87605">
        <ele>514</ele>
        <time>2014-03-29T13:29:11Z</time>
      </trkpt>
      <trkpt lat="43.37424" lon="5.87579">
        <ele>514</ele>
        <time>2014-03-29T13:29:17Z</time>
      </trkpt>
      <trkpt lat="43.37415" lon="5.87549">
        <ele>515</ele>
        <time>2014-03-29T13:29:23Z</time>
      </trkpt>
      <trkpt lat="43.37413" lon="5.87543">
        <ele>515</ele>
        <time>2014-03-29T13:29:24Z</time>
      </trkpt>
      <trkpt lat="43.3741" lon="5.87528">
        <ele>516</ele>
        <time>2014-03-29T13:29:27Z</time>
      </trkpt>
      <trkpt lat="43.37408" lon="5.87517">
        <ele>516</ele>
        <time>2014-03-29T13:29:32Z</time>
      </trkpt>
      <trkpt lat="43.37407" lon="5.87505">
        <ele>516</ele>
        <time>2014-03-29T13:29:37Z</time>
      </trkpt>
      <trkpt lat="43.37407" lon="5.87489">
        <ele>517</ele>
        <time>2014-03-29T13:29:42Z</time>
      </trkpt>
      <trkpt lat="43.37407" lon="5.87481">
        <ele>517</ele>
        <time>2014-03-29T13:29:47Z</time>
      </trkpt>
      <trkpt lat="43.37409" lon="5.87473">
        <ele>518</ele>
        <time>2014-03-29T13:29:51Z</time>
      </trkpt>
      <trkpt lat="43.37409" lon="5.87468">
        <ele>518</ele>
        <time>2014-03-29T13:29:53Z</time>
      </trkpt>
      <trkpt lat="43.37408" lon="5.8745">
        <ele>519</ele>
        <time>2014-03-29T13:30:00Z</time>
      </trkpt>
      <trkpt lat="43.37408" lon="5.87426">
        <ele>519</ele>
        <time>2014-03-29T13:30:07Z</time>
      </trkpt>
      <trkpt lat="43.37407" lon="5.87401">
        <ele>520</ele>
        <time>2014-03-29T13:30:13Z</time>
      </trkpt>
      <trkpt lat="43.37406" lon="5.8739">
        <ele>520</ele>
        <time>2014-03-29T13:30:16Z</time>
      </trkpt>
      <trkpt lat="43.37405" lon="5.87382">
        <ele>520</ele>
        <time>2014-03-29T13:30:18Z</time>
      </trkpt>
      <trkpt lat="43.37402" lon="5.87371">
        <ele>521</ele>
        <time>2014-03-29T13:30:21Z</time>
      </trkpt>
      <trkpt lat="43.37402" lon="5.87357">
        <ele>521</ele>
        <time>2014-03-29T13:30:25Z</time>
      </trkpt>
      <trkpt lat="43.374" lon="5.87349">
        <ele>521</ele>
        <time>2014-03-29T13:30:27Z</time>
      </trkpt>
      <trkpt lat="43.37399" lon="5.87343">
        <ele>521</ele>
        <time>2014-03-29T13:30:29Z</time>
      </trkpt>
      <trkpt lat="43.37396" lon="5.87333">
        <ele>522</ele>
        <time>2014-03-29T13:30:33Z</time>
      </trkpt>
      <trkpt lat="43.37395" lon="5.87329">
        <ele>522</ele>
        <time>2014-03-29T13:30:34Z</time>
      </trkpt>
      <trkpt lat="43.37395" lon="5.87312">
        <ele>523</ele>
        <time>2014-03-29T13:30:39Z</time>
      </trkpt>
      <trkpt lat="43.37392" lon="5.87289">
        <ele>523</ele>
        <time>2014-03-29T13:30:46Z</time>
      </trkpt>
      <trkpt lat="43.3739" lon="5.87276">
        <ele>523</ele>
        <time>2014-03-29T13:30:51Z</time>
      </trkpt>
      <trkpt lat="43.3739" lon="5.87274">
        <ele>523</ele>
        <time>2014-03-29T13:30:52Z</time>
      </trkpt>
      <trkpt lat="43.3739" lon="5.87273">
        <ele>523</ele>
        <time>2014-03-29T13:30:53Z</time>
      </trkpt>
      <trkpt lat="43.3739" lon="5.87272">
        <ele>523</ele>
        <time>2014-03-29T13:30:54Z</time>
      </trkpt>
      <trkpt lat="43.37389" lon="5.87268">
        <ele>523</ele>
        <time>2014-03-29T13:30:57Z</time>
      </trkpt>
      <trkpt lat="43.37389" lon="5.87267">
        <ele>523</ele>
        <time>2014-03-29T13:31:03Z</time>
      </trkpt>
      <trkpt lat="43.37391" lon="5.87264">
        <ele>523</ele>
        <time>2014-03-29T13:31:10Z</time>
      </trkpt>
      <trkpt lat="43.37396" lon="5.87258">
        <ele>523</ele>
        <time>2014-03-29T13:31:15Z</time>
      </trkpt>
      <trkpt lat="43.37403" lon="5.87248">
        <ele>524</ele>
        <time>2014-03-29T13:31:20Z</time>
      </trkpt>
      <trkpt lat="43.37406" lon="5.87246">
        <ele>523</ele>
        <time>2014-03-29T13:31:23Z</time>
      </trkpt>
      <trkpt lat="43.37411" lon="5.87238">
        <ele>523</ele>
        <time>2014-03-29T13:31:29Z</time>
      </trkpt>
      <trkpt lat="43.37414" lon="5.87233">
        <ele>523</ele>
        <time>2014-03-29T13:31:33Z</time>
      </trkpt>
      <trkpt lat="43.37416" lon="5.87228">
        <ele>523</ele>
        <time>2014-03-29T13:31:37Z</time>
      </trkpt>
      <trkpt lat="43.37429" lon="5.87216">
        <ele>522</ele>
        <time>2014-03-29T13:31:46Z</time>
      </trkpt>
      <trkpt lat="43.37436" lon="5.87203">
        <ele>521</ele>
        <time>2014-03-29T13:31:52Z</time>
      </trkpt>
      <trkpt lat="43.37436" lon="5.87199">
        <ele>521</ele>
        <time>2014-03-29T13:31:54Z</time>
      </trkpt>
      <trkpt lat="43.37437" lon="5.8718">
        <ele>521</ele>
        <time>2014-03-29T13:31:58Z</time>
      </trkpt>
      <trkpt lat="43.37435" lon="5.87162">
        <ele>521</ele>
        <time>2014-03-29T13:32:01Z</time>
      </trkpt>
      <trkpt lat="43.37434" lon="5.87157">
        <ele>521</ele>
        <time>2014-03-29T13:32:02Z</time>
      </trkpt>
      <trkpt lat="43.37432" lon="5.8715">
        <ele>521</ele>
        <time>2014-03-29T13:32:03Z</time>
      </trkpt>
      <trkpt lat="43.37429" lon="5.87144">
        <ele>521</ele>
        <time>2014-03-29T13:32:04Z</time>
      </trkpt>
      <trkpt lat="43.37429" lon="5.87137">
        <ele>521</ele>
        <time>2014-03-29T13:32:05Z</time>
      </trkpt>
      <trkpt lat="43.37428" lon="5.8713">
        <ele>522</ele>
        <time>2014-03-29T13:32:06Z</time>
      </trkpt>
      <trkpt lat="43.37428" lon="5.87124">
        <ele>522</ele>
        <time>2014-03-29T13:32:07Z</time>
      </trkpt>
      <trkpt lat="43.37427" lon="5.87118">
        <ele>522</ele>
        <time>2014-03-29T13:32:08Z</time>
      </trkpt>
      <trkpt lat="43.37426" lon="5.87109">
        <ele>523</ele>
        <time>2014-03-29T13:32:10Z</time>
      </trkpt>
      <trkpt lat="43.37426" lon="5.87087">
        <ele>523</ele>
        <time>2014-03-29T13:32:15Z</time>
      </trkpt>
      <trkpt lat="43.3743" lon="5.87075">
        <ele>522</ele>
        <time>2014-03-29T13:32:19Z</time>
      </trkpt>
      <trkpt lat="43.37434" lon="5.87053">
        <ele>521</ele>
        <time>2014-03-29T13:32:26Z</time>
      </trkpt>
      <trkpt lat="43.37438" lon="5.87029">
        <ele>521</ele>
        <time>2014-03-29T13:32:34Z</time>
      </trkpt>
      <trkpt lat="43.37442" lon="5.87008">
        <ele>520</ele>
        <time>2014-03-29T13:32:43Z</time>
      </trkpt>
      <trkpt lat="43.37442" lon="5.87004">
        <ele>520</ele>
        <time>2014-03-29T13:32:45Z</time>
      </trkpt>
      <trkpt lat="43.37445" lon="5.8699">
        <ele>519</ele>
        <time>2014-03-29T13:32:51Z</time>
      </trkpt>
      <trkpt lat="43.37445" lon="5.86984">
        <ele>520</ele>
        <time>2014-03-29T13:32:53Z</time>
      </trkpt>
      <trkpt lat="43.37445" lon="5.86982">
        <ele>520</ele>
        <time>2014-03-29T13:32:54Z</time>
      </trkpt>
      <trkpt lat="43.37443" lon="5.86972">
        <ele>520</ele>
        <time>2014-03-29T13:32:58Z</time>
      </trkpt>
      <trkpt lat="43.37444" lon="5.86965">
        <ele>520</ele>
        <time>2014-03-29T13:33:02Z</time>
      </trkpt>
      <trkpt lat="43.37443" lon="5.86958">
        <ele>520</ele>
        <time>2014-03-29T13:33:07Z</time>
      </trkpt>
      <trkpt lat="43.37443" lon="5.86956">
        <ele>520</ele>
        <time>2014-03-29T13:33:08Z</time>
      </trkpt>
      <trkpt lat="43.37443" lon="5.86944">
        <ele>520</ele>
        <time>2014-03-29T13:33:13Z</time>
      </trkpt>
      <trkpt lat="43.37442" lon="5.86938">
        <ele>521</ele>
        <time>2014-03-29T13:33:16Z</time>
      </trkpt>
      <trkpt lat="43.37442" lon="5.86926">
        <ele>521</ele>
        <time>2014-03-29T13:33:21Z</time>
      </trkpt>
      <trkpt lat="43.37441" lon="5.86913">
        <ele>522</ele>
        <time>2014-03-29T13:33:26Z</time>
      </trkpt>
      <trkpt lat="43.3744" lon="5.86894">
        <ele>522</ele>
        <time>2014-03-29T13:33:33Z</time>
      </trkpt>
      <trkpt lat="43.37437" lon="5.86878">
        <ele>523</ele>
        <time>2014-03-29T13:33:39Z</time>
      </trkpt>
      <trkpt lat="43.3744" lon="5.86862">
        <ele>522</ele>
        <time>2014-03-29T13:33:45Z</time>
      </trkpt>
      <trkpt lat="43.3744" lon="5.86847">
        <ele>522</ele>
        <time>2014-03-29T13:33:52Z</time>
      </trkpt>
      <trkpt lat="43.37439" lon="5.86842">
        <ele>523</ele>
        <time>2014-03-29T13:33:54Z</time>
      </trkpt>
      <trkpt lat="43.37438" lon="5.86837">
        <ele>523</ele>
        <time>2014-03-29T13:33:56Z</time>
      </trkpt>
      <trkpt lat="43.37437" lon="5.86834">
        <ele>523</ele>
        <time>2014-03-29T13:33:57Z</time>
      </trkpt>
      <trkpt lat="43.37437" lon="5.86819">
        <ele>523</ele>
        <time>2014-03-29T13:34:03Z</time>
      </trkpt>
      <trkpt lat="43.37434" lon="5.86797">
        <ele>524</ele>
        <time>2014-03-29T13:34:09Z</time>
      </trkpt>
      <trkpt lat="43.3743" lon="5.8678">
        <ele>526</ele>
        <time>2014-03-29T13:34:13Z</time>
      </trkpt>
      <trkpt lat="43.37429" lon="5.86776">
        <ele>526</ele>
        <time>2014-03-29T13:34:14Z</time>
      </trkpt>
      <trkpt lat="43.37428" lon="5.86761">
        <ele>526</ele>
        <time>2014-03-29T13:34:19Z</time>
      </trkpt>
      <trkpt lat="43.37427" lon="5.86747">
        <ele>527</ele>
        <time>2014-03-29T13:34:25Z</time>
      </trkpt>
      <trkpt lat="43.37425" lon="5.86736">
        <ele>527</ele>
        <time>2014-03-29T13:34:30Z</time>
      </trkpt>
      <trkpt lat="43.37424" lon="5.86732">
        <ele>528</ele>
        <time>2014-03-29T13:34:32Z</time>
      </trkpt>
      <trkpt lat="43.37425" lon="5.86722">
        <ele>527</ele>
        <time>2014-03-29T13:34:36Z</time>
      </trkpt>
      <trkpt lat="43.37421" lon="5.86706">
        <ele>529</ele>
        <time>2014-03-29T13:34:42Z</time>
      </trkpt>
      <trkpt lat="43.37421" lon="5.86696">
        <ele>529</ele>
        <time>2014-03-29T13:34:46Z</time>
      </trkpt>
      <trkpt lat="43.37418" lon="5.86678">
        <ele>530</ele>
        <time>2014-03-29T13:34:52Z</time>
      </trkpt>
      <trkpt lat="43.37417" lon="5.86667">
        <ele>531</ele>
        <time>2014-03-29T13:34:56Z</time>
      </trkpt>
      <trkpt lat="43.37416" lon="5.8666">
        <ele>531</ele>
        <time>2014-03-29T13:34:59Z</time>
      </trkpt>
      <trkpt lat="43.37416" lon="5.8665">
        <ele>532</ele>
        <time>2014-03-29T13:35:03Z</time>
      </trkpt>
      <trkpt lat="43.37415" lon="5.86633">
        <ele>532</ele>
        <time>2014-03-29T13:35:08Z</time>
      </trkpt>
      <trkpt lat="43.37413" lon="5.86612">
        <ele>533</ele>
        <time>2014-03-29T13:35:14Z</time>
      </trkpt>
      <trkpt lat="43.37411" lon="5.86597">
        <ele>534</ele>
        <time>2014-03-29T13:35:20Z</time>
      </trkpt>
      <trkpt lat="43.37409" lon="5.86578">
        <ele>534</ele>
        <time>2014-03-29T13:35:26Z</time>
      </trkpt>
      <trkpt lat="43.37404" lon="5.86548">
        <ele>535</ele>
        <time>2014-03-29T13:35:36Z</time>
      </trkpt>
      <trkpt lat="43.37403" lon="5.86535">
        <ele>536</ele>
        <time>2014-03-29T13:35:40Z</time>
      </trkpt>
      <trkpt lat="43.37402" lon="5.86514">
        <ele>536</ele>
        <time>2014-03-29T13:35:46Z</time>
      </trkpt>
      <trkpt lat="43.37401" lon="5.86506">
        <ele>536</ele>
        <time>2014-03-29T13:35:48Z</time>
      </trkpt>
      <trkpt lat="43.37399" lon="5.86497">
        <ele>536</ele>
        <time>2014-03-29T13:35:50Z</time>
      </trkpt>
      <trkpt lat="43.37393" lon="5.86475">
        <ele>538</ele>
        <time>2014-03-29T13:35:56Z</time>
      </trkpt>
      <trkpt lat="43.37387" lon="5.86444">
        <ele>538</ele>
        <time>2014-03-29T13:36:01Z</time>
      </trkpt>
      <trkpt lat="43.37386" lon="5.86437">
        <ele>538</ele>
        <time>2014-03-29T13:36:02Z</time>
      </trkpt>
      <trkpt lat="43.37386" lon="5.86431">
        <ele>538</ele>
        <time>2014-03-29T13:36:03Z</time>
      </trkpt>
      <trkpt lat="43.37385" lon="5.86419">
        <ele>538</ele>
        <time>2014-03-29T13:36:05Z</time>
      </trkpt>
      <trkpt lat="43.37388" lon="5.86403">
        <ele>538</ele>
        <time>2014-03-29T13:36:09Z</time>
      </trkpt>
      <trkpt lat="43.3739" lon="5.86382">
        <ele>538</ele>
        <time>2014-03-29T13:36:14Z</time>
      </trkpt>
      <trkpt lat="43.37388" lon="5.86369">
        <ele>539</ele>
        <time>2014-03-29T13:36:18Z</time>
      </trkpt>
      <trkpt lat="43.37388" lon="5.86351">
        <ele>539</ele>
        <time>2014-03-29T13:36:22Z</time>
      </trkpt>
      <trkpt lat="43.37387" lon="5.86336">
        <ele>539</ele>
        <time>2014-03-29T13:36:26Z</time>
      </trkpt>
      <trkpt lat="43.37387" lon="5.86333">
        <ele>539</ele>
        <time>2014-03-29T13:36:27Z</time>
      </trkpt>
      <trkpt lat="43.3739" lon="5.86323">
        <ele>539</ele>
        <time>2014-03-29T13:36:30Z</time>
      </trkpt>
      <trkpt lat="43.37389" lon="5.86311">
        <ele>540</ele>
        <time>2014-03-29T13:36:34Z</time>
      </trkpt>
      <trkpt lat="43.37387" lon="5.86304">
        <ele>540</ele>
        <time>2014-03-29T13:36:36Z</time>
      </trkpt>
      <trkpt lat="43.37386" lon="5.86291">
        <ele>540</ele>
        <time>2014-03-29T13:36:40Z</time>
      </trkpt>
      <trkpt lat="43.37381" lon="5.86267">
        <ele>540</ele>
        <time>2014-03-29T13:36:46Z</time>
      </trkpt>
      <trkpt lat="43.37383" lon="5.86255">
        <ele>540</ele>
        <time>2014-03-29T13:36:50Z</time>
      </trkpt>
      <trkpt lat="43.37379" lon="5.86242">
        <ele>540</ele>
        <time>2014-03-29T13:36:54Z</time>
      </trkpt>
      <trkpt lat="43.37374" lon="5.86237">
        <ele>540</ele>
        <time>2014-03-29T13:36:57Z</time>
      </trkpt>
      <trkpt lat="43.37371" lon="5.86236">
        <ele>540</ele>
        <time>2014-03-29T13:36:58Z</time>
      </trkpt>
      <trkpt lat="43.37367" lon="5.86232">
        <ele>540</ele>
        <time>2014-03-29T13:37:00Z</time>
      </trkpt>
      <trkpt lat="43.37365" lon="5.8623">
        <ele>540</ele>
        <time>2014-03-29T13:37:01Z</time>
      </trkpt>
      <trkpt lat="43.37361" lon="5.86213">
        <ele>540</ele>
        <time>2014-03-29T13:37:05Z</time>
      </trkpt>
      <trkpt lat="43.37358" lon="5.86193">
        <ele>540</ele>
        <time>2014-03-29T13:37:10Z</time>
      </trkpt>
      <trkpt lat="43.37357" lon="5.86187">
        <ele>540</ele>
        <time>2014-03-29T13:37:11Z</time>
      </trkpt>
      <trkpt lat="43.37363" lon="5.86152">
        <ele>540</ele>
        <time>2014-03-29T13:37:16Z</time>
      </trkpt>
      <trkpt lat="43.37363" lon="5.86141">
        <ele>540</ele>
        <time>2014-03-29T13:37:18Z</time>
      </trkpt>
      <trkpt lat="43.37363" lon="5.86122">
        <ele>540</ele>
        <time>2014-03-29T13:37:22Z</time>
      </trkpt>
      <trkpt lat="43.37363" lon="5.86117">
        <ele>540</ele>
        <time>2014-03-29T13:37:23Z</time>
      </trkpt>
      <trkpt lat="43.37362" lon="5.86102">
        <ele>540</ele>
        <time>2014-03-29T13:37:26Z</time>
      </trkpt>
      <trkpt lat="43.37361" lon="5.86097">
        <ele>540</ele>
        <time>2014-03-29T13:37:27Z</time>
      </trkpt>
      <trkpt lat="43.37363" lon="5.86071">
        <ele>539</ele>
        <time>2014-03-29T13:37:32Z</time>
      </trkpt>
      <trkpt lat="43.37362" lon="5.86061">
        <ele>538</ele>
        <time>2014-03-29T13:37:34Z</time>
      </trkpt>
      <trkpt lat="43.37356" lon="5.86047">
        <ele>538</ele>
        <time>2014-03-29T13:37:37Z</time>
      </trkpt>
      <trkpt lat="43.37354" lon="5.86041">
        <ele>538</ele>
        <time>2014-03-29T13:37:38Z</time>
      </trkpt>
      <trkpt lat="43.37355" lon="5.86026">
        <ele>538</ele>
        <time>2014-03-29T13:37:40Z</time>
      </trkpt>
      <trkpt lat="43.37356" lon="5.86017">
        <ele>537</ele>
        <time>2014-03-29T13:37:41Z</time>
      </trkpt>
      <trkpt lat="43.37356" lon="5.86008">
        <ele>537</ele>
        <time>2014-03-29T13:37:42Z</time>
      </trkpt>
      <trkpt lat="43.37356" lon="5.85997">
        <ele>536</ele>
        <time>2014-03-29T13:37:43Z</time>
      </trkpt>
      <trkpt lat="43.37356" lon="5.85988">
        <ele>536</ele>
        <time>2014-03-29T13:37:44Z</time>
      </trkpt>
      <trkpt lat="43.37357" lon="5.85978">
        <ele>535</ele>
        <time>2014-03-29T13:37:45Z</time>
      </trkpt>
      <trkpt lat="43.37357" lon="5.85968">
        <ele>535</ele>
        <time>2014-03-29T13:37:46Z</time>
      </trkpt>
      <trkpt lat="43.37357" lon="5.85959">
        <ele>535</ele>
        <time>2014-03-29T13:37:47Z</time>
      </trkpt>
      <trkpt lat="43.37357" lon="5.85952">
        <ele>535</ele>
        <time>2014-03-29T13:37:48Z</time>
      </trkpt>
      <trkpt lat="43.37357" lon="5.85946">
        <ele>535</ele>
        <time>2014-03-29T13:37:49Z</time>
      </trkpt>
      <trkpt lat="43.37355" lon="5.85926">
        <ele>534</ele>
        <time>2014-03-29T13:37:53Z</time>
      </trkpt>
      <trkpt lat="43.37355" lon="5.85922">
        <ele>534</ele>
        <time>2014-03-29T13:37:54Z</time>
      </trkpt>
      <trkpt lat="43.37354" lon="5.85899">
        <ele>533</ele>
        <time>2014-03-29T13:37:59Z</time>
      </trkpt>
      <trkpt lat="43.37355" lon="5.85876">
        <ele>532</ele>
        <time>2014-03-29T13:38:03Z</time>
      </trkpt>
      <trkpt lat="43.37354" lon="5.85849">
        <ele>532</ele>
        <time>2014-03-29T13:38:06Z</time>
      </trkpt>
      <trkpt lat="43.37352" lon="5.85841">
        <ele>531</ele>
        <time>2014-03-29T13:38:07Z</time>
      </trkpt>
      <trkpt lat="43.37347" lon="5.85826">
        <ele>531</ele>
        <time>2014-03-29T13:38:09Z</time>
      </trkpt>
      <trkpt lat="43.37344" lon="5.85819">
        <ele>530</ele>
        <time>2014-03-29T13:38:10Z</time>
      </trkpt>
      <trkpt lat="43.37341" lon="5.85812">
        <ele>530</ele>
        <time>2014-03-29T13:38:11Z</time>
      </trkpt>
      <trkpt lat="43.3734" lon="5.85806">
        <ele>530</ele>
        <time>2014-03-29T13:38:12Z</time>
      </trkpt>
      <trkpt lat="43.37331" lon="5.85771">
        <ele>530</ele>
        <time>2014-03-29T13:38:17Z</time>
      </trkpt>
      <trkpt lat="43.3733" lon="5.85762">
        <ele>530</ele>
        <time>2014-03-29T13:38:19Z</time>
      </trkpt>
      <trkpt lat="43.37333" lon="5.85758">
        <ele>529</ele>
        <time>2014-03-29T13:38:20Z</time>
      </trkpt>
      <trkpt lat="43.37338" lon="5.85751">
        <ele>529</ele>
        <time>2014-03-29T13:38:22Z</time>
      </trkpt>
      <trkpt lat="43.37345" lon="5.85741">
        <ele>528</ele>
        <time>2014-03-29T13:38:24Z</time>
      </trkpt>
      <trkpt lat="43.37347" lon="5.85736">
        <ele>528</ele>
        <time>2014-03-29T13:38:25Z</time>
      </trkpt>
      <trkpt lat="43.37349" lon="5.85732">
        <ele>528</ele>
        <time>2014-03-29T13:38:26Z</time>
      </trkpt>
      <trkpt lat="43.37352" lon="5.85722">
        <ele>527</ele>
        <time>2014-03-29T13:38:30Z</time>
      </trkpt>
      <trkpt lat="43.37354" lon="5.85713">
        <ele>527</ele>
        <time>2014-03-29T13:38:34Z</time>
      </trkpt>
      <trkpt lat="43.37355" lon="5.85711">
        <ele>527</ele>
        <time>2014-03-29T13:38:35Z</time>
      </trkpt>
      <trkpt lat="43.37357" lon="5.8571">
        <ele>527</ele>
        <time>2014-03-29T13:38:37Z</time>
      </trkpt>
      <trkpt lat="43.37358" lon="5.85709">
        <ele>527</ele>
        <time>2014-03-29T13:38:40Z</time>
      </trkpt>
      <trkpt lat="43.37358" lon="5.85709">
        <ele>527</ele>
        <time>2014-03-29T13:39:02Z</time>
      </trkpt>
      <trkpt lat="43.37358" lon="5.85709">
        <ele>527</ele>
        <time>2014-03-29T13:39:14Z</time>
      </trkpt>
      <trkpt lat="43.37363" lon="5.85707">
        <ele>526</ele>
        <time>2014-03-29T13:39:18Z</time>
      </trkpt>
      <trkpt lat="43.3737" lon="5.85712">
        <ele>526</ele>
        <time>2014-03-29T13:39:22Z</time>
      </trkpt>
      <trkpt lat="43.37383" lon="5.85724">
        <ele>525</ele>
        <time>2014-03-29T13:39:28Z</time>
      </trkpt>
      <trkpt lat="43.374" lon="5.85738">
        <ele>525</ele>
        <time>2014-03-29T13:39:34Z</time>
      </trkpt>
      <trkpt lat="43.37403" lon="5.85741">
        <ele>525</ele>
        <time>2014-03-29T13:39:35Z</time>
      </trkpt>
      <trkpt lat="43.37427" lon="5.85766">
        <ele>526</ele>
        <time>2014-03-29T13:39:42Z</time>
      </trkpt>
      <trkpt lat="43.37435" lon="5.85773">
        <ele>526</ele>
        <time>2014-03-29T13:39:44Z</time>
      </trkpt>
      <trkpt lat="43.37439" lon="5.85776">
        <ele>526</ele>
        <time>2014-03-29T13:39:45Z</time>
      </trkpt>
      <trkpt lat="43.37448" lon="5.85781">
        <ele>525</ele>
        <time>2014-03-29T13:39:47Z</time>
      </trkpt>
      <trkpt lat="43.37474" lon="5.85786">
        <ele>520</ele>
        <time>2014-03-29T13:39:52Z</time>
      </trkpt>
      <trkpt lat="43.37479" lon="5.85787">
        <ele>520</ele>
        <time>2014-03-29T13:39:53Z</time>
      </trkpt>
      <trkpt lat="43.37495" lon="5.85784">
        <ele>520</ele>
        <time>2014-03-29T13:39:56Z</time>
      </trkpt>
      <trkpt lat="43.37505" lon="5.85779">
        <ele>520</ele>
        <time>2014-03-29T13:39:58Z</time>
      </trkpt>
      <trkpt lat="43.37513" lon="5.85772">
        <ele>519</ele>
        <time>2014-03-29T13:40:00Z</time>
      </trkpt>
      <trkpt lat="43.37517" lon="5.85767">
        <ele>519</ele>
        <time>2014-03-29T13:40:01Z</time>
      </trkpt>
      <trkpt lat="43.37531" lon="5.85743">
        <ele>517</ele>
        <time>2014-03-29T13:40:05Z</time>
      </trkpt>
      <trkpt lat="43.3754" lon="5.85726">
        <ele>517</ele>
        <time>2014-03-29T13:40:08Z</time>
      </trkpt>
      <trkpt lat="43.37564" lon="5.85686">
        <ele>518</ele>
        <time>2014-03-29T13:40:16Z</time>
      </trkpt>
      <trkpt lat="43.37582" lon="5.85671">
        <ele>518</ele>
        <time>2014-03-29T13:40:21Z</time>
      </trkpt>
      <trkpt lat="43.37585" lon="5.85669">
        <ele>518</ele>
        <time>2014-03-29T13:40:22Z</time>
      </trkpt>
      <trkpt lat="43.37594" lon="5.85663">
        <ele>518</ele>
        <time>2014-03-29T13:40:24Z</time>
      </trkpt>
      <trkpt lat="43.37608" lon="5.85655">
        <ele>518</ele>
        <time>2014-03-29T13:40:27Z</time>
      </trkpt>
      <trkpt lat="43.37628" lon="5.85649">
        <ele>519</ele>
        <time>2014-03-29T13:40:31Z</time>
      </trkpt>
      <trkpt lat="43.37638" lon="5.85648">
        <ele>519</ele>
        <time>2014-03-29T13:40:33Z</time>
      </trkpt>
      <trkpt lat="43.37676" lon="5.8564">
        <ele>519</ele>
        <time>2014-03-29T13:40:41Z</time>
      </trkpt>
      <trkpt lat="43.37701" lon="5.8563">
        <ele>519</ele>
        <time>2014-03-29T13:40:46Z</time>
      </trkpt>
      <trkpt lat="43.37706" lon="5.85622">
        <ele>519</ele>
        <time>2014-03-29T13:40:48Z</time>
      </trkpt>
      <trkpt lat="43.37709" lon="5.85614">
        <ele>519</ele>
        <time>2014-03-29T13:40:50Z</time>
      </trkpt>
      <trkpt lat="43.3771" lon="5.85611">
        <ele>519</ele>
        <time>2014-03-29T13:40:51Z</time>
      </trkpt>
      <trkpt lat="43.37716" lon="5.85599">
        <ele>519</ele>
        <time>2014-03-29T13:40:55Z</time>
      </trkpt>
      <trkpt lat="43.37717" lon="5.85594">
        <ele>520</ele>
        <time>2014-03-29T13:40:57Z</time>
      </trkpt>
      <trkpt lat="43.37719" lon="5.85589">
        <ele>520</ele>
        <time>2014-03-29T13:40:59Z</time>
      </trkpt>
      <trkpt lat="43.3772" lon="5.85587">
        <ele>520</ele>
        <time>2014-03-29T13:41:00Z</time>
      </trkpt>
      <trkpt lat="43.37721" lon="5.85585">
        <ele>520</ele>
        <time>2014-03-29T13:41:01Z</time>
      </trkpt>
      <trkpt lat="43.37722" lon="5.8558">
        <ele>520</ele>
        <time>2014-03-29T13:41:03Z</time>
      </trkpt>
      <trkpt lat="43.37727" lon="5.85565">
        <ele>520</ele>
        <time>2014-03-29T13:41:09Z</time>
      </trkpt>
      <trkpt lat="43.37732" lon="5.85553">
        <ele>520</ele>
        <time>2014-03-29T13:41:14Z</time>
      </trkpt>
      <trkpt lat="43.37735" lon="5.85544">
        <ele>521</ele>
        <time>2014-03-29T13:41:18Z</time>
      </trkpt>
      <trkpt lat="43.37737" lon="5.85542">
        <ele>521</ele>
        <time>2014-03-29T13:41:20Z</time>
      </trkpt>
      <trkpt lat="43.37739" lon="5.8554">
        <ele>521</ele>
        <time>2014-03-29T13:41:22Z</time>
      </trkpt>
      <trkpt lat="43.37745" lon="5.85534">
        <ele>523</ele>
        <time>2014-03-29T13:41:27Z</time>
      </trkpt>
      <trkpt lat="43.37743" lon="5.85524">
        <ele>524</ele>
        <time>2014-03-29T13:41:33Z</time>
      </trkpt>
      <trkpt lat="43.37744" lon="5.85521">
        <ele>524</ele>
        <time>2014-03-29T13:41:34Z</time>
      </trkpt>
      <trkpt lat="43.37746" lon="5.85517">
        <ele>525</ele>
        <time>2014-03-29T13:41:37Z</time>
      </trkpt>
      <trkpt lat="43.37749" lon="5.85504">
        <ele>528</ele>
        <time>2014-03-29T13:41:44Z</time>
      </trkpt>
      <trkpt lat="43.3775" lon="5.85493">
        <ele>530</ele>
        <time>2014-03-29T13:41:49Z</time>
      </trkpt>
      <trkpt lat="43.37751" lon="5.85485">
        <ele>531</ele>
        <time>2014-03-29T13:41:53Z</time>
      </trkpt>
      <trkpt lat="43.37753" lon="5.85482">
        <ele>532</ele>
        <time>2014-03-29T13:41:55Z</time>
      </trkpt>
      <trkpt lat="43.37753" lon="5.85472">
        <ele>533</ele>
        <time>2014-03-29T13:42:00Z</time>
      </trkpt>
      <trkpt lat="43.37753" lon="5.85458">
        <ele>535</ele>
        <time>2014-03-29T13:42:07Z</time>
      </trkpt>
      <trkpt lat="43.37753" lon="5.85449">
        <ele>537</ele>
        <time>2014-03-29T13:42:12Z</time>
      </trkpt>
      <trkpt lat="43.37753" lon="5.85442">
        <ele>538</ele>
        <time>2014-03-29T13:42:16Z</time>
      </trkpt>
      <trkpt lat="43.37753" lon="5.85439">
        <ele>538</ele>
        <time>2014-03-29T13:42:18Z</time>
      </trkpt>
      <trkpt lat="43.37753" lon="5.85434">
        <ele>539</ele>
        <time>2014-03-29T13:42:21Z</time>
      </trkpt>
      <trkpt lat="43.37752" lon="5.85429">
        <ele>539</ele>
        <time>2014-03-29T13:42:25Z</time>
      </trkpt>
      <trkpt lat="43.37749" lon="5.85416">
        <ele>540</ele>
        <time>2014-03-29T13:42:32Z</time>
      </trkpt>
      <trkpt lat="43.37749" lon="5.85415">
        <ele>540</ele>
        <time>2014-03-29T13:42:33Z</time>
      </trkpt>
      <trkpt lat="43.37748" lon="5.85411">
        <ele>540</ele>
        <time>2014-03-29T13:42:35Z</time>
      </trkpt>
      <trkpt lat="43.37744" lon="5.85403">
        <ele>540</ele>
        <time>2014-03-29T13:42:41Z</time>
      </trkpt>
      <trkpt lat="43.37738" lon="5.85389">
        <ele>541</ele>
        <time>2014-03-29T13:42:50Z</time>
      </trkpt>
      <trkpt lat="43.37737" lon="5.8538">
        <ele>542</ele>
        <time>2014-03-29T13:42:57Z</time>
      </trkpt>
      <trkpt lat="43.37741" lon="5.85368">
        <ele>543</ele>
        <time>2014-03-29T13:43:05Z</time>
      </trkpt>
      <trkpt lat="43.37746" lon="5.85353">
        <ele>546</ele>
        <time>2014-03-29T13:43:17Z</time>
      </trkpt>
      <trkpt lat="43.37747" lon="5.85346">
        <ele>547</ele>
        <time>2014-03-29T13:43:23Z</time>
      </trkpt>
      <trkpt lat="43.37748" lon="5.85345">
        <ele>547</ele>
        <time>2014-03-29T13:43:24Z</time>
      </trkpt>
      <trkpt lat="43.37748" lon="5.85337">
        <ele>548</ele>
        <time>2014-03-29T13:43:29Z</time>
      </trkpt>
      <trkpt lat="43.37751" lon="5.85331">
        <ele>549</ele>
        <time>2014-03-29T13:43:34Z</time>
      </trkpt>
      <trkpt lat="43.37751" lon="5.85328">
        <ele>550</ele>
        <time>2014-03-29T13:43:36Z</time>
      </trkpt>
      <trkpt lat="43.37753" lon="5.8532">
        <ele>551</ele>
        <time>2014-03-29T13:43:42Z</time>
      </trkpt>
      <trkpt lat="43.37755" lon="5.85311">
        <ele>552</ele>
        <time>2014-03-29T13:43:49Z</time>
      </trkpt>
      <trkpt lat="43.37756" lon="5.85302">
        <ele>554</ele>
        <time>2014-03-29T13:43:55Z</time>
      </trkpt>
      <trkpt lat="43.37756" lon="5.85299">
        <ele>554</ele>
        <time>2014-03-29T13:43:57Z</time>
      </trkpt>
      <trkpt lat="43.37754" lon="5.85291">
        <ele>554</ele>
        <time>2014-03-29T13:44:03Z</time>
      </trkpt>
      <trkpt lat="43.37754" lon="5.8529">
        <ele>554</ele>
        <time>2014-03-29T13:44:04Z</time>
      </trkpt>
      <trkpt lat="43.37751" lon="5.85287">
        <ele>554</ele>
        <time>2014-03-29T13:44:08Z</time>
      </trkpt>
      <trkpt lat="43.37748" lon="5.85286">
        <ele>554</ele>
        <time>2014-03-29T13:44:12Z</time>
      </trkpt>
      <trkpt lat="43.37747" lon="5.85286">
        <ele>554</ele>
        <time>2014-03-29T13:44:13Z</time>
      </trkpt>
      <trkpt lat="43.37748" lon="5.85286">
        <ele>554</ele>
        <time>2014-03-29T13:44:14Z</time>
      </trkpt>
      <trkpt lat="43.37747" lon="5.85286">
        <ele>554</ele>
        <time>2014-03-29T13:44:17Z</time>
      </trkpt>
      <trkpt lat="43.37747" lon="5.85286">
        <ele>554</ele>
        <time>2014-03-29T13:44:30Z</time>
      </trkpt>
      <trkpt lat="43.37747" lon="5.85286">
        <ele>554</ele>
        <time>2014-03-29T13:44:42Z</time>
      </trkpt>
      <trkpt lat="43.37748" lon="5.85286">
        <ele>554</ele>
        <time>2014-03-29T13:44:44Z</time>
      </trkpt>
      <trkpt lat="43.37748" lon="5.85286">
        <ele>554</ele>
        <time>2014-03-29T13:45:03Z</time>
      </trkpt>
      <trkpt lat="43.37748" lon="5.85286">
        <ele>554</ele>
        <time>2014-03-29T13:46:14Z</time>
      </trkpt>
      <trkpt lat="43.37748" lon="5.85286">
        <ele>554</ele>
        <time>2014-03-29T13:46:28Z</time>
      </trkpt>
      <trkpt lat="43.37748" lon="5.85286">
        <ele>554</ele>
        <time>2014-03-29T13:46:31Z</time>
      </trkpt>
      <trkpt lat="43.37748" lon="5.85286">
        <ele>554</ele>
        <time>2014-03-29T13:46:44Z</time>
      </trkpt>
      <trkpt lat="43.37748" lon="5.85286">
        <ele>554</ele>
        <time>2014-03-29T13:46:48Z</time>
      </trkpt>
      <trkpt lat="43.37746" lon="5.85285">
        <ele>554</ele>
        <time>2014-03-29T13:46:56Z</time>
      </trkpt>
      <trkpt lat="43.37746" lon="5.85285">
        <ele>554</ele>
        <time>2014-03-29T13:46:57Z</time>
      </trkpt>
      <trkpt lat="43.37744" lon="5.85286">
        <ele>553</ele>
        <time>2014-03-29T13:46:59Z</time>
      </trkpt>
      <trkpt lat="43.3774" lon="5.85288">
        <ele>552</ele>
        <time>2014-03-29T13:47:03Z</time>
      </trkpt>
      <trkpt lat="43.3774" lon="5.85288">
        <ele>552</ele>
        <time>2014-03-29T13:47:04Z</time>
      </trkpt>
      <trkpt lat="43.37734" lon="5.85289">
        <ele>551</ele>
        <time>2014-03-29T13:47:08Z</time>
      </trkpt>
      <trkpt lat="43.37732" lon="5.8529">
        <ele>551</ele>
        <time>2014-03-29T13:47:10Z</time>
      </trkpt>
      <trkpt lat="43.37724" lon="5.85292">
        <ele>549</ele>
        <time>2014-03-29T13:47:15Z</time>
      </trkpt>
      <trkpt lat="43.37722" lon="5.85291">
        <ele>549</ele>
        <time>2014-03-29T13:47:17Z</time>
      </trkpt>
      <trkpt lat="43.37716" lon="5.85287">
        <ele>549</ele>
        <time>2014-03-29T13:47:21Z</time>
      </trkpt>
      <trkpt lat="43.37712" lon="5.85284">
        <ele>549</ele>
        <time>2014-03-29T13:47:25Z</time>
      </trkpt>
      <trkpt lat="43.37711" lon="5.85281">
        <ele>549</ele>
        <time>2014-03-29T13:47:27Z</time>
      </trkpt>
      <trkpt lat="43.37704" lon="5.85268">
        <ele>550</ele>
        <time>2014-03-29T13:47:35Z</time>
      </trkpt>
      <trkpt lat="43.37701" lon="5.85264">
        <ele>550</ele>
        <time>2014-03-29T13:47:38Z</time>
      </trkpt>
      <trkpt lat="43.377" lon="5.85262">
        <ele>550</ele>
        <time>2014-03-29T13:47:39Z</time>
      </trkpt>
      <trkpt lat="43.37695" lon="5.85248">
        <ele>550</ele>
        <time>2014-03-29T13:47:50Z</time>
      </trkpt>
      <trkpt lat="43.37692" lon="5.85242">
        <ele>551</ele>
        <time>2014-03-29T13:47:54Z</time>
      </trkpt>
      <trkpt lat="43.37688" lon="5.85239">
        <ele>551</ele>
        <time>2014-03-29T13:47:59Z</time>
      </trkpt>
      <trkpt lat="43.37688" lon="5.85239">
        <ele>552</ele>
        <time>2014-03-29T13:48:01Z</time>
      </trkpt>
      <trkpt lat="43.37688" lon="5.85239">
        <ele>552</ele>
        <time>2014-03-29T13:48:19Z</time>
      </trkpt>
      <trkpt lat="43.37688" lon="5.85239">
        <ele>552</ele>
        <time>2014-03-29T13:48:34Z</time>
      </trkpt>
      <trkpt lat="43.37687" lon="5.85238">
        <ele>552</ele>
        <time>2014-03-29T13:48:46Z</time>
      </trkpt>
      <trkpt lat="43.37683" lon="5.85236">
        <ele>552</ele>
        <time>2014-03-29T13:48:49Z</time>
      </trkpt>
      <trkpt lat="43.37675" lon="5.85234">
        <ele>552</ele>
        <time>2014-03-29T13:48:53Z</time>
      </trkpt>
      <trkpt lat="43.37662" lon="5.85229">
        <ele>552</ele>
        <time>2014-03-29T13:48:58Z</time>
      </trkpt>
      <trkpt lat="43.37649" lon="5.85228">
        <ele>552</ele>
        <time>2014-03-29T13:49:03Z</time>
      </trkpt>
      <trkpt lat="43.37642" lon="5.85214">
        <ele>553</ele>
        <time>2014-03-29T13:49:08Z</time>
      </trkpt>
      <trkpt lat="43.37636" lon="5.85192">
        <ele>554</ele>
        <time>2014-03-29T13:49:14Z</time>
      </trkpt>
      <trkpt lat="43.3763" lon="5.85171">
        <ele>555</ele>
        <time>2014-03-29T13:49:20Z</time>
      </trkpt>
      <trkpt lat="43.37621" lon="5.85147">
        <ele>555</ele>
        <time>2014-03-29T13:49:27Z</time>
      </trkpt>
      <trkpt lat="43.37613" lon="5.8513">
        <ele>556</ele>
        <time>2014-03-29T13:49:33Z</time>
      </trkpt>
      <trkpt lat="43.37588" lon="5.85097">
        <ele>556</ele>
        <time>2014-03-29T13:49:46Z</time>
      </trkpt>
      <trkpt lat="43.3758" lon="5.85078">
        <ele>556</ele>
        <time>2014-03-29T13:49:52Z</time>
      </trkpt>
      <trkpt lat="43.37566" lon="5.85057">
        <ele>556</ele>
        <time>2014-03-29T13:50:00Z</time>
      </trkpt>
      <trkpt lat="43.37559" lon="5.85047">
        <ele>556</ele>
        <time>2014-03-29T13:50:04Z</time>
      </trkpt>
      <trkpt lat="43.3755" lon="5.85022">
        <ele>557</ele>
        <time>2014-03-29T13:50:12Z</time>
      </trkpt>
      <trkpt lat="43.37548" lon="5.85004">
        <ele>557</ele>
        <time>2014-03-29T13:50:18Z</time>
      </trkpt>
      <trkpt lat="43.37542" lon="5.84991">
        <ele>558</ele>
        <time>2014-03-29T13:50:24Z</time>
      </trkpt>
      <trkpt lat="43.37535" lon="5.84974">
        <ele>558</ele>
        <time>2014-03-29T13:50:31Z</time>
      </trkpt>
      <trkpt lat="43.37525" lon="5.84953">
        <ele>559</ele>
        <time>2014-03-29T13:50:38Z</time>
      </trkpt>
      <trkpt lat="43.37522" lon="5.84935">
        <ele>559</ele>
        <time>2014-03-29T13:50:44Z</time>
      </trkpt>
      <trkpt lat="43.37523" lon="5.84915">
        <ele>560</ele>
        <time>2014-03-29T13:50:50Z</time>
      </trkpt>
      <trkpt lat="43.37518" lon="5.84906">
        <ele>560</ele>
        <time>2014-03-29T13:50:54Z</time>
      </trkpt>
      <trkpt lat="43.37516" lon="5.84904">
        <ele>560</ele>
        <time>2014-03-29T13:50:55Z</time>
      </trkpt>
      <trkpt lat="43.3751" lon="5.84903">
        <ele>559</ele>
        <time>2014-03-29T13:50:58Z</time>
      </trkpt>
      <trkpt lat="43.37506" lon="5.84901">
        <ele>559</ele>
        <time>2014-03-29T13:51:00Z</time>
      </trkpt>
      <trkpt lat="43.37496" lon="5.84892">
        <ele>560</ele>
        <time>2014-03-29T13:51:05Z</time>
      </trkpt>
      <trkpt lat="43.37494" lon="5.84891">
        <ele>560</ele>
        <time>2014-03-29T13:51:06Z</time>
      </trkpt>
      <trkpt lat="43.37478" lon="5.84883">
        <ele>560</ele>
        <time>2014-03-29T13:51:13Z</time>
      </trkpt>
      <trkpt lat="43.37462" lon="5.84872">
        <ele>560</ele>
        <time>2014-03-29T13:51:21Z</time>
      </trkpt>
      <trkpt lat="43.37457" lon="5.84861">
        <ele>560</ele>
        <time>2014-03-29T13:51:26Z</time>
      </trkpt>
      <trkpt lat="43.37452" lon="5.8485">
        <ele>560</ele>
        <time>2014-03-29T13:51:31Z</time>
      </trkpt>
      <trkpt lat="43.37442" lon="5.84846">
        <ele>560</ele>
        <time>2014-03-29T13:51:37Z</time>
      </trkpt>
      <trkpt lat="43.37435" lon="5.84848">
        <ele>560</ele>
        <time>2014-03-29T13:51:41Z</time>
      </trkpt>
      <trkpt lat="43.37434" lon="5.84849">
        <ele>560</ele>
        <time>2014-03-29T13:51:42Z</time>
      </trkpt>
      <trkpt lat="43.37424" lon="5.84846">
        <ele>560</ele>
        <time>2014-03-29T13:51:47Z</time>
      </trkpt>
      <trkpt lat="43.37415" lon="5.8484">
        <ele>560</ele>
        <time>2014-03-29T13:51:53Z</time>
      </trkpt>
      <trkpt lat="43.37402" lon="5.84831">
        <ele>561</ele>
        <time>2014-03-29T13:51:58Z</time>
      </trkpt>
      <trkpt lat="43.37385" lon="5.84823">
        <ele>561</ele>
        <time>2014-03-29T13:52:06Z</time>
      </trkpt>
      <trkpt lat="43.3737" lon="5.8482">
        <ele>561</ele>
        <time>2014-03-29T13:52:12Z</time>
      </trkpt>
      <trkpt lat="43.37353" lon="5.84815">
        <ele>561</ele>
        <time>2014-03-29T13:52:18Z</time>
      </trkpt>
      <trkpt lat="43.37337" lon="5.84792">
        <ele>561</ele>
        <time>2014-03-29T13:52:29Z</time>
      </trkpt>
      <trkpt lat="43.37328" lon="5.84777">
        <ele>561</ele>
        <time>2014-03-29T13:52:36Z</time>
      </trkpt>
      <trkpt lat="43.37322" lon="5.84771">
        <ele>562</ele>
        <time>2014-03-29T13:52:40Z</time>
      </trkpt>
      <trkpt lat="43.3732" lon="5.84763">
        <ele>562</ele>
        <time>2014-03-29T13:52:43Z</time>
      </trkpt>
      <trkpt lat="43.37323" lon="5.84741">
        <ele>562</ele>
        <time>2014-03-29T13:52:52Z</time>
      </trkpt>
      <trkpt lat="43.37325" lon="5.84726">
        <ele>562</ele>
        <time>2014-03-29T13:52:58Z</time>
      </trkpt>
      <trkpt lat="43.37326" lon="5.84716">
        <ele>562</ele>
        <time>2014-03-29T13:53:02Z</time>
      </trkpt>
      <trkpt lat="43.37328" lon="5.847">
        <ele>563</ele>
        <time>2014-03-29T13:53:09Z</time>
      </trkpt>
      <trkpt lat="43.37326" lon="5.84696">
        <ele>563</ele>
        <time>2014-03-29T13:53:11Z</time>
      </trkpt>
      <trkpt lat="43.37318" lon="5.84683">
        <ele>564</ele>
        <time>2014-03-29T13:53:19Z</time>
      </trkpt>
      <trkpt lat="43.37318" lon="5.84683">
        <ele>564</ele>
        <time>2014-03-29T13:53:20Z</time>
      </trkpt>
      <trkpt lat="43.37319" lon="5.84677">
        <ele>564</ele>
        <time>2014-03-29T13:53:23Z</time>
      </trkpt>
      <trkpt lat="43.37323" lon="5.84669">
        <ele>564</ele>
        <time>2014-03-29T13:53:29Z</time>
      </trkpt>
      <trkpt lat="43.37326" lon="5.84666">
        <ele>564</ele>
        <time>2014-03-29T13:53:33Z</time>
      </trkpt>
      <trkpt lat="43.37328" lon="5.84665">
        <ele>563</ele>
        <time>2014-03-29T13:53:35Z</time>
      </trkpt>
      <trkpt lat="43.37331" lon="5.84665">
        <ele>563</ele>
        <time>2014-03-29T13:53:40Z</time>
      </trkpt>
      <trkpt lat="43.37331" lon="5.84665">
        <ele>563</ele>
        <time>2014-03-29T13:53:44Z</time>
      </trkpt>
      <trkpt lat="43.37331" lon="5.84665">
        <ele>563</ele>
        <time>2014-03-29T13:53:57Z</time>
      </trkpt>
      <trkpt lat="43.37331" lon="5.84665">
        <ele>563</ele>
        <time>2014-03-29T13:54:07Z</time>
      </trkpt>
      <trkpt lat="43.37333" lon="5.84666">
        <ele>563</ele>
        <time>2014-03-29T13:54:13Z</time>
      </trkpt>
      <trkpt lat="43.37344" lon="5.8466">
        <ele>563</ele>
        <time>2014-03-29T13:54:19Z</time>
      </trkpt>
      <trkpt lat="43.37347" lon="5.84652">
        <ele>563</ele>
        <time>2014-03-29T13:54:23Z</time>
      </trkpt>
      <trkpt lat="43.37347" lon="5.84647">
        <ele>563</ele>
        <time>2014-03-29T13:54:25Z</time>
      </trkpt>
      <trkpt lat="43.37346" lon="5.84642">
        <ele>563</ele>
        <time>2014-03-29T13:54:27Z</time>
      </trkpt>
      <trkpt lat="43.37344" lon="5.84631">
        <ele>564</ele>
        <time>2014-03-29T13:54:32Z</time>
      </trkpt>
      <trkpt lat="43.37345" lon="5.84627">
        <ele>564</ele>
        <time>2014-03-29T13:54:34Z</time>
      </trkpt>
      <trkpt lat="43.37346" lon="5.84623">
        <ele>564</ele>
        <time>2014-03-29T13:54:36Z</time>
      </trkpt>
      <trkpt lat="43.37348" lon="5.8462">
        <ele>563</ele>
        <time>2014-03-29T13:54:38Z</time>
      </trkpt>
      <trkpt lat="43.37354" lon="5.84617">
        <ele>563</ele>
        <time>2014-03-29T13:54:42Z</time>
      </trkpt>
      <trkpt lat="43.37356" lon="5.84617">
        <ele>563</ele>
        <time>2014-03-29T13:54:44Z</time>
      </trkpt>
      <trkpt lat="43.37365" lon="5.84616">
        <ele>563</ele>
        <time>2014-03-29T13:54:50Z</time>
      </trkpt>
      <trkpt lat="43.37368" lon="5.8461">
        <ele>563</ele>
        <time>2014-03-29T13:54:53Z</time>
      </trkpt>
      <trkpt lat="43.3737" lon="5.84605">
        <ele>563</ele>
        <time>2014-03-29T13:54:55Z</time>
      </trkpt>
      <trkpt lat="43.37371" lon="5.84595">
        <ele>563</ele>
        <time>2014-03-29T13:54:59Z</time>
      </trkpt>
      <trkpt lat="43.37367" lon="5.84567">
        <ele>563</ele>
        <time>2014-03-29T13:55:09Z</time>
      </trkpt>
      <trkpt lat="43.37365" lon="5.8455">
        <ele>564</ele>
        <time>2014-03-29T13:55:15Z</time>
      </trkpt>
      <trkpt lat="43.37364" lon="5.84543">
        <ele>564</ele>
        <time>2014-03-29T13:55:17Z</time>
      </trkpt>
      <trkpt lat="43.37364" lon="5.84529">
        <ele>564</ele>
        <time>2014-03-29T13:55:21Z</time>
      </trkpt>
      <trkpt lat="43.3736" lon="5.84514">
        <ele>564</ele>
        <time>2014-03-29T13:55:26Z</time>
      </trkpt>
      <trkpt lat="43.37354" lon="5.84503">
        <ele>564</ele>
        <time>2014-03-29T13:55:30Z</time>
      </trkpt>
      <trkpt lat="43.3735" lon="5.84497">
        <ele>565</ele>
        <time>2014-03-29T13:55:32Z</time>
      </trkpt>
      <trkpt lat="43.37341" lon="5.84485">
        <ele>565</ele>
        <time>2014-03-29T13:55:37Z</time>
      </trkpt>
      <trkpt lat="43.37332" lon="5.84463">
        <ele>566</ele>
        <time>2014-03-29T13:55:42Z</time>
      </trkpt>
      <trkpt lat="43.37322" lon="5.84442">
        <ele>567</ele>
        <time>2014-03-29T13:55:47Z</time>
      </trkpt>
      <trkpt lat="43.37311" lon="5.84421">
        <ele>569</ele>
        <time>2014-03-29T13:55:52Z</time>
      </trkpt>
      <trkpt lat="43.373" lon="5.84398">
        <ele>570</ele>
        <time>2014-03-29T13:55:57Z</time>
      </trkpt>
      <trkpt lat="43.37294" lon="5.84378">
        <ele>569</ele>
        <time>2014-03-29T13:56:01Z</time>
      </trkpt>
      <trkpt lat="43.37292" lon="5.84364">
        <ele>568</ele>
        <time>2014-03-29T13:56:03Z</time>
      </trkpt>
      <trkpt lat="43.3729" lon="5.84349">
        <ele>567</ele>
        <time>2014-03-29T13:56:05Z</time>
      </trkpt>
      <trkpt lat="43.37288" lon="5.84343">
        <ele>566</ele>
        <time>2014-03-29T13:56:06Z</time>
      </trkpt>
      <trkpt lat="43.37285" lon="5.84331">
        <ele>566</ele>
        <time>2014-03-29T13:56:08Z</time>
      </trkpt>
      <trkpt lat="43.37284" lon="5.84325">
        <ele>565</ele>
        <time>2014-03-29T13:56:09Z</time>
      </trkpt>
      <trkpt lat="43.37278" lon="5.84316">
        <ele>565</ele>
        <time>2014-03-29T13:56:11Z</time>
      </trkpt>
      <trkpt lat="43.37266" lon="5.84311">
        <ele>566</ele>
        <time>2014-03-29T13:56:14Z</time>
      </trkpt>
      <trkpt lat="43.37259" lon="5.84308">
        <ele>566</ele>
        <time>2014-03-29T13:56:16Z</time>
      </trkpt>
      <trkpt lat="43.37249" lon="5.84303">
        <ele>567</ele>
        <time>2014-03-29T13:56:19Z</time>
      </trkpt>
      <trkpt lat="43.37245" lon="5.84301">
        <ele>567</ele>
        <time>2014-03-29T13:56:21Z</time>
      </trkpt>
      <trkpt lat="43.3724" lon="5.843">
        <ele>567</ele>
        <time>2014-03-29T13:56:23Z</time>
      </trkpt>
      <trkpt lat="43.37238" lon="5.84301">
        <ele>568</ele>
        <time>2014-03-29T13:56:24Z</time>
      </trkpt>
      <trkpt lat="43.37235" lon="5.84302">
        <ele>568</ele>
        <time>2014-03-29T13:56:25Z</time>
      </trkpt>
      <trkpt lat="43.37234" lon="5.84303">
        <ele>568</ele>
        <time>2014-03-29T13:56:26Z</time>
      </trkpt>
      <trkpt lat="43.37228" lon="5.84308">
        <ele>569</ele>
        <time>2014-03-29T13:56:29Z</time>
      </trkpt>
      <trkpt lat="43.37223" lon="5.84309">
        <ele>569</ele>
        <time>2014-03-29T13:56:31Z</time>
      </trkpt>
      <trkpt lat="43.37214" lon="5.84313">
        <ele>570</ele>
        <time>2014-03-29T13:56:36Z</time>
      </trkpt>
      <trkpt lat="43.37212" lon="5.84316">
        <ele>571</ele>
        <time>2014-03-29T13:56:38Z</time>
      </trkpt>
      <trkpt lat="43.37197" lon="5.84318">
        <ele>572</ele>
        <time>2014-03-29T13:56:46Z</time>
      </trkpt>
      <trkpt lat="43.37194" lon="5.84318">
        <ele>572</ele>
        <time>2014-03-29T13:56:48Z</time>
      </trkpt>
      <trkpt lat="43.37193" lon="5.8432">
        <ele>573</ele>
        <time>2014-03-29T13:56:50Z</time>
      </trkpt>
      <trkpt lat="43.37186" lon="5.84323">
        <ele>573</ele>
        <time>2014-03-29T13:56:55Z</time>
      </trkpt>
      <trkpt lat="43.3718" lon="5.84325">
        <ele>574</ele>
        <time>2014-03-29T13:56:59Z</time>
      </trkpt>
      <trkpt lat="43.3718" lon="5.84326">
        <ele>574</ele>
        <time>2014-03-29T13:57:00Z</time>
      </trkpt>
      <trkpt lat="43.37165" lon="5.84327">
        <ele>575</ele>
        <time>2014-03-29T13:57:08Z</time>
      </trkpt>
      <trkpt lat="43.37149" lon="5.84328">
        <ele>577</ele>
        <time>2014-03-29T13:57:15Z</time>
      </trkpt>
      <trkpt lat="43.37142" lon="5.84333">
        <ele>579</ele>
        <time>2014-03-29T13:57:19Z</time>
      </trkpt>
      <trkpt lat="43.37138" lon="5.84338">
        <ele>579</ele>
        <time>2014-03-29T13:57:23Z</time>
      </trkpt>
      <trkpt lat="43.37133" lon="5.8434">
        <ele>579</ele>
        <time>2014-03-29T13:57:26Z</time>
      </trkpt>
      <trkpt lat="43.37125" lon="5.84343">
        <ele>580</ele>
        <time>2014-03-29T13:57:31Z</time>
      </trkpt>
      <trkpt lat="43.37115" lon="5.84348">
        <ele>580</ele>
        <time>2014-03-29T13:57:38Z</time>
      </trkpt>
      <trkpt lat="43.37106" lon="5.84353">
        <ele>580</ele>
        <time>2014-03-29T13:57:44Z</time>
      </trkpt>
      <trkpt lat="43.37103" lon="5.84354">
        <ele>580</ele>
        <time>2014-03-29T13:57:46Z</time>
      </trkpt>
      <trkpt lat="43.37096" lon="5.84359">
        <ele>580</ele>
        <time>2014-03-29T13:57:50Z</time>
      </trkpt>
      <trkpt lat="43.3709" lon="5.84363">
        <ele>580</ele>
        <time>2014-03-29T13:57:55Z</time>
      </trkpt>
      <trkpt lat="43.37088" lon="5.84363">
        <ele>580</ele>
        <time>2014-03-29T13:57:56Z</time>
      </trkpt>
      <trkpt lat="43.3708" lon="5.84364">
        <ele>580</ele>
        <time>2014-03-29T13:58:02Z</time>
      </trkpt>
      <trkpt lat="43.37078" lon="5.84365">
        <ele>580</ele>
        <time>2014-03-29T13:58:04Z</time>
      </trkpt>
      <trkpt lat="43.37076" lon="5.84365">
        <ele>580</ele>
        <time>2014-03-29T13:58:06Z</time>
      </trkpt>
      <trkpt lat="43.37076" lon="5.84365">
        <ele>580</ele>
        <time>2014-03-29T13:58:10Z</time>
      </trkpt>
      <trkpt lat="43.37075" lon="5.84366">
        <ele>580</ele>
        <time>2014-03-29T13:58:14Z</time>
      </trkpt>
      <trkpt lat="43.37075" lon="5.84366">
        <ele>580</ele>
        <time>2014-03-29T13:58:26Z</time>
      </trkpt>
      <trkpt lat="43.37074" lon="5.84366">
        <ele>580</ele>
        <time>2014-03-29T13:58:37Z</time>
      </trkpt>
      <trkpt lat="43.37074" lon="5.84366">
        <ele>580</ele>
        <time>2014-03-29T13:58:46Z</time>
      </trkpt>
      <trkpt lat="43.3707" lon="5.84367">
        <ele>580</ele>
        <time>2014-03-29T13:58:49Z</time>
      </trkpt>
      <trkpt lat="43.37069" lon="5.84367">
        <ele>580</ele>
        <time>2014-03-29T13:58:50Z</time>
      </trkpt>
      <trkpt lat="43.37068" lon="5.84367">
        <ele>580</ele>
        <time>2014-03-29T13:58:51Z</time>
      </trkpt>
      <trkpt lat="43.37067" lon="5.84367">
        <ele>580</ele>
        <time>2014-03-29T13:58:52Z</time>
      </trkpt>
      <trkpt lat="43.37063" lon="5.84364">
        <ele>580</ele>
        <time>2014-03-29T13:58:55Z</time>
      </trkpt>
      <trkpt lat="43.37061" lon="5.84363">
        <ele>580</ele>
        <time>2014-03-29T13:58:57Z</time>
      </trkpt>
      <trkpt lat="43.37056" lon="5.84365">
        <ele>580</ele>
        <time>2014-03-29T13:59:02Z</time>
      </trkpt>
      <trkpt lat="43.37052" lon="5.84363">
        <ele>580</ele>
        <time>2014-03-29T13:59:05Z</time>
      </trkpt>
      <trkpt lat="43.37049" lon="5.84365">
        <ele>580</ele>
        <time>2014-03-29T13:59:07Z</time>
      </trkpt>
      <trkpt lat="43.37046" lon="5.84365">
        <ele>580</ele>
        <time>2014-03-29T13:59:09Z</time>
      </trkpt>
      <trkpt lat="43.37042" lon="5.84367">
        <ele>580</ele>
        <time>2014-03-29T13:59:14Z</time>
      </trkpt>
      <trkpt lat="43.37042" lon="5.84367">
        <ele>580</ele>
        <time>2014-03-29T13:59:40Z</time>
      </trkpt>
      <trkpt lat="43.37042" lon="5.84367">
        <ele>580</ele>
        <time>2014-03-29T13:59:49Z</time>
      </trkpt>
      <trkpt lat="43.37042" lon="5.84367">
        <ele>580</ele>
        <time>2014-03-29T13:59:53Z</time>
      </trkpt>
      <trkpt lat="43.37042" lon="5.84367">
        <ele>580</ele>
        <time>2014-03-29T14:00:16Z</time>
      </trkpt>
      <trkpt lat="43.37042" lon="5.84367">
        <ele>580</ele>
        <time>2014-03-29T14:00:27Z</time>
      </trkpt>
      <trkpt lat="43.37037" lon="5.8437">
        <ele>581</ele>
        <time>2014-03-29T14:00:31Z</time>
      </trkpt>
      <trkpt lat="43.37035" lon="5.84371">
        <ele>581</ele>
        <time>2014-03-29T14:00:32Z</time>
      </trkpt>
      <trkpt lat="43.37028" lon="5.84381">
        <ele>581</ele>
        <time>2014-03-29T14:00:38Z</time>
      </trkpt>
      <trkpt lat="43.37023" lon="5.84381">
        <ele>582</ele>
        <time>2014-03-29T14:00:41Z</time>
      </trkpt>
      <trkpt lat="43.3702" lon="5.8438">
        <ele>582</ele>
        <time>2014-03-29T14:00:43Z</time>
      </trkpt>
      <trkpt lat="43.37018" lon="5.84379">
        <ele>582</ele>
        <time>2014-03-29T14:00:44Z</time>
      </trkpt>
      <trkpt lat="43.37015" lon="5.84376">
        <ele>582</ele>
        <time>2014-03-29T14:00:46Z</time>
      </trkpt>
      <trkpt lat="43.37013" lon="5.84375">
        <ele>583</ele>
        <time>2014-03-29T14:00:47Z</time>
      </trkpt>
      <trkpt lat="43.37008" lon="5.84374">
        <ele>583</ele>
        <time>2014-03-29T14:00:50Z</time>
      </trkpt>
      <trkpt lat="43.37008" lon="5.84374">
        <ele>583</ele>
        <time>2014-03-29T14:00:51Z</time>
      </trkpt>
      <trkpt lat="43.37006" lon="5.84374">
        <ele>583</ele>
        <time>2014-03-29T14:00:52Z</time>
      </trkpt>
      <trkpt lat="43.36992" lon="5.8439">
        <ele>585</ele>
        <time>2014-03-29T14:00:59Z</time>
      </trkpt>
      <trkpt lat="43.36986" lon="5.84394">
        <ele>585</ele>
        <time>2014-03-29T14:01:02Z</time>
      </trkpt>
      <trkpt lat="43.36984" lon="5.84395">
        <ele>585</ele>
        <time>2014-03-29T14:01:03Z</time>
      </trkpt>
      <trkpt lat="43.36976" lon="5.84397">
        <ele>586</ele>
        <time>2014-03-29T14:01:07Z</time>
      </trkpt>
      <trkpt lat="43.36972" lon="5.844">
        <ele>586</ele>
        <time>2014-03-29T14:01:09Z</time>
      </trkpt>
      <trkpt lat="43.36961" lon="5.84395">
        <ele>586</ele>
        <time>2014-03-29T14:01:15Z</time>
      </trkpt>
      <trkpt lat="43.36958" lon="5.84391">
        <ele>586</ele>
        <time>2014-03-29T14:01:17Z</time>
      </trkpt>
      <trkpt lat="43.36951" lon="5.84382">
        <ele>587</ele>
        <time>2014-03-29T14:01:22Z</time>
      </trkpt>
      <trkpt lat="43.36949" lon="5.84379">
        <ele>587</ele>
        <time>2014-03-29T14:01:24Z</time>
      </trkpt>
      <trkpt lat="43.36945" lon="5.84379">
        <ele>587</ele>
        <time>2014-03-29T14:01:26Z</time>
      </trkpt>
      <trkpt lat="43.36942" lon="5.8438">
        <ele>587</ele>
        <time>2014-03-29T14:01:27Z</time>
      </trkpt>
      <trkpt lat="43.36938" lon="5.84381">
        <ele>587</ele>
        <time>2014-03-29T14:01:28Z</time>
      </trkpt>
      <trkpt lat="43.36933" lon="5.84377">
        <ele>588</ele>
        <time>2014-03-29T14:01:30Z</time>
      </trkpt>
      <trkpt lat="43.36927" lon="5.8436">
        <ele>588</ele>
        <time>2014-03-29T14:01:35Z</time>
      </trkpt>
      <trkpt lat="43.36922" lon="5.84339">
        <ele>589</ele>
        <time>2014-03-29T14:01:42Z</time>
      </trkpt>
      <trkpt lat="43.36919" lon="5.84324">
        <ele>590</ele>
        <time>2014-03-29T14:01:47Z</time>
      </trkpt>
      <trkpt lat="43.36911" lon="5.84305">
        <ele>591</ele>
        <time>2014-03-29T14:01:54Z</time>
      </trkpt>
      <trkpt lat="43.36905" lon="5.84291">
        <ele>592</ele>
        <time>2014-03-29T14:01:59Z</time>
      </trkpt>
      <trkpt lat="43.36902" lon="5.84286">
        <ele>592</ele>
        <time>2014-03-29T14:02:01Z</time>
      </trkpt>
      <trkpt lat="43.369" lon="5.84276">
        <ele>593</ele>
        <time>2014-03-29T14:02:05Z</time>
      </trkpt>
      <trkpt lat="43.36895" lon="5.84265">
        <ele>594</ele>
        <time>2014-03-29T14:02:10Z</time>
      </trkpt>
      <trkpt lat="43.36893" lon="5.84263">
        <ele>594</ele>
        <time>2014-03-29T14:02:11Z</time>
      </trkpt>
      <trkpt lat="43.36889" lon="5.8426">
        <ele>595</ele>
        <time>2014-03-29T14:02:14Z</time>
      </trkpt>
      <trkpt lat="43.36872" lon="5.84232">
        <ele>596</ele>
        <time>2014-03-29T14:02:25Z</time>
      </trkpt>
      <trkpt lat="43.36867" lon="5.84225">
        <ele>597</ele>
        <time>2014-03-29T14:02:28Z</time>
      </trkpt>
      <trkpt lat="43.36861" lon="5.84212">
        <ele>598</ele>
        <time>2014-03-29T14:02:33Z</time>
      </trkpt>
      <trkpt lat="43.36852" lon="5.84187">
        <ele>600</ele>
        <time>2014-03-29T14:02:43Z</time>
      </trkpt>
      <trkpt lat="43.3685" lon="5.84185">
        <ele>600</ele>
        <time>2014-03-29T14:02:44Z</time>
      </trkpt>
      <trkpt lat="43.36836" lon="5.84166">
        <ele>601</ele>
        <time>2014-03-29T14:02:55Z</time>
      </trkpt>
      <trkpt lat="43.36826" lon="5.84161">
        <ele>601</ele>
        <time>2014-03-29T14:03:02Z</time>
      </trkpt>
      <trkpt lat="43.36823" lon="5.84159">
        <ele>601</ele>
        <time>2014-03-29T14:03:04Z</time>
      </trkpt>
      <trkpt lat="43.3682" lon="5.84156">
        <ele>601</ele>
        <time>2014-03-29T14:03:07Z</time>
      </trkpt>
      <trkpt lat="43.36814" lon="5.84149">
        <ele>601</ele>
        <time>2014-03-29T14:03:13Z</time>
      </trkpt>
      <trkpt lat="43.36809" lon="5.84142">
        <ele>601</ele>
        <time>2014-03-29T14:03:18Z</time>
      </trkpt>
      <trkpt lat="43.36807" lon="5.8414">
        <ele>601</ele>
        <time>2014-03-29T14:03:19Z</time>
      </trkpt>
      <trkpt lat="43.36803" lon="5.8413">
        <ele>601</ele>
        <time>2014-03-29T14:03:25Z</time>
      </trkpt>
      <trkpt lat="43.36802" lon="5.84125">
        <ele>601</ele>
        <time>2014-03-29T14:03:28Z</time>
      </trkpt>
      <trkpt lat="43.36801" lon="5.84118">
        <ele>601</ele>
        <time>2014-03-29T14:03:31Z</time>
      </trkpt>
      <trkpt lat="43.36802" lon="5.84106">
        <ele>601</ele>
        <time>2014-03-29T14:03:37Z</time>
      </trkpt>
      <trkpt lat="43.36799" lon="5.84094">
        <ele>602</ele>
        <time>2014-03-29T14:03:43Z</time>
      </trkpt>
      <trkpt lat="43.36797" lon="5.84083">
        <ele>602</ele>
        <time>2014-03-29T14:03:50Z</time>
      </trkpt>
      <trkpt lat="43.36795" lon="5.84081">
        <ele>602</ele>
        <time>2014-03-29T14:03:52Z</time>
      </trkpt>
      <trkpt lat="43.36789" lon="5.84077">
        <ele>603</ele>
        <time>2014-03-29T14:03:58Z</time>
      </trkpt>
      <trkpt lat="43.36784" lon="5.84075">
        <ele>603</ele>
        <time>2014-03-29T14:04:02Z</time>
      </trkpt>
      <trkpt lat="43.36781" lon="5.84075">
        <ele>603</ele>
        <time>2014-03-29T14:04:05Z</time>
      </trkpt>
      <trkpt lat="43.36777" lon="5.84074">
        <ele>603</ele>
        <time>2014-03-29T14:04:08Z</time>
      </trkpt>
      <trkpt lat="43.36774" lon="5.84073">
        <ele>603</ele>
        <time>2014-03-29T14:04:10Z</time>
      </trkpt>
      <trkpt lat="43.36773" lon="5.84073">
        <ele>603</ele>
        <time>2014-03-29T14:04:13Z</time>
      </trkpt>
      <trkpt lat="43.36773" lon="5.84073">
        <ele>603</ele>
        <time>2014-03-29T14:04:24Z</time>
      </trkpt>
      <trkpt lat="43.36773" lon="5.84073">
        <ele>603</ele>
        <time>2014-03-29T14:04:34Z</time>
      </trkpt>
      <trkpt lat="43.36773" lon="5.84072">
        <ele>603</ele>
        <time>2014-03-29T14:04:35Z</time>
      </trkpt>
      <trkpt lat="43.36772" lon="5.84071">
        <ele>603</ele>
        <time>2014-03-29T14:04:36Z</time>
      </trkpt>
      <trkpt lat="43.36766" lon="5.84063">
        <ele>603</ele>
        <time>2014-03-29T14:04:41Z</time>
      </trkpt>
      <trkpt lat="43.36765" lon="5.84059">
        <ele>603</ele>
        <time>2014-03-29T14:04:43Z</time>
      </trkpt>
      <trkpt lat="43.36761" lon="5.84048">
        <ele>604</ele>
        <time>2014-03-29T14:04:48Z</time>
      </trkpt>
      <trkpt lat="43.3676" lon="5.84042">
        <ele>604</ele>
        <time>2014-03-29T14:04:51Z</time>
      </trkpt>
      <trkpt lat="43.36758" lon="5.84032">
        <ele>605</ele>
        <time>2014-03-29T14:04:55Z</time>
      </trkpt>
      <trkpt lat="43.36752" lon="5.84006">
        <ele>606</ele>
        <time>2014-03-29T14:05:06Z</time>
      </trkpt>
      <trkpt lat="43.36742" lon="5.83979">
        <ele>607</ele>
        <time>2014-03-29T14:05:18Z</time>
      </trkpt>
      <trkpt lat="43.36734" lon="5.83962">
        <ele>608</ele>
        <time>2014-03-29T14:05:26Z</time>
      </trkpt>
      <trkpt lat="43.36734" lon="5.83947">
        <ele>608</ele>
        <time>2014-03-29T14:05:33Z</time>
      </trkpt>
      <trkpt lat="43.3673" lon="5.83936">
        <ele>609</ele>
        <time>2014-03-29T14:05:39Z</time>
      </trkpt>
      <trkpt lat="43.36728" lon="5.83929">
        <ele>609</ele>
        <time>2014-03-29T14:05:42Z</time>
      </trkpt>
      <trkpt lat="43.36725" lon="5.83921">
        <ele>610</ele>
        <time>2014-03-29T14:05:46Z</time>
      </trkpt>
      <trkpt lat="43.36719" lon="5.8391">
        <ele>611</ele>
        <time>2014-03-29T14:05:52Z</time>
      </trkpt>
      <trkpt lat="43.36717" lon="5.839">
        <ele>612</ele>
        <time>2014-03-29T14:05:57Z</time>
      </trkpt>
      <trkpt lat="43.36716" lon="5.83891">
        <ele>612</ele>
        <time>2014-03-29T14:06:01Z</time>
      </trkpt>
      <trkpt lat="43.36716" lon="5.83885">
        <ele>613</ele>
        <time>2014-03-29T14:06:04Z</time>
      </trkpt>
      <trkpt lat="43.36714" lon="5.8388">
        <ele>613</ele>
        <time>2014-03-29T14:06:07Z</time>
      </trkpt>
      <trkpt lat="43.3671" lon="5.83877">
        <ele>614</ele>
        <time>2014-03-29T14:06:10Z</time>
      </trkpt>
      <trkpt lat="43.36708" lon="5.83875">
        <ele>615</ele>
        <time>2014-03-29T14:06:14Z</time>
      </trkpt>
      <trkpt lat="43.36701" lon="5.83856">
        <ele>618</ele>
        <time>2014-03-29T14:06:24Z</time>
      </trkpt>
      <trkpt lat="43.36695" lon="5.83836">
        <ele>620</ele>
        <time>2014-03-29T14:06:35Z</time>
      </trkpt>
      <trkpt lat="43.36694" lon="5.83829">
        <ele>620</ele>
        <time>2014-03-29T14:06:38Z</time>
      </trkpt>
      <trkpt lat="43.36694" lon="5.83827">
        <ele>620</ele>
        <time>2014-03-29T14:06:39Z</time>
      </trkpt>
      <trkpt lat="43.36693" lon="5.83823">
        <ele>620</ele>
        <time>2014-03-29T14:06:41Z</time>
      </trkpt>
      <trkpt lat="43.36691" lon="5.83812">
        <ele>620</ele>
        <time>2014-03-29T14:06:47Z</time>
      </trkpt>
      <trkpt lat="43.36691" lon="5.8381">
        <ele>620</ele>
        <time>2014-03-29T14:06:52Z</time>
      </trkpt>
      <trkpt lat="43.36691" lon="5.8381">
        <ele>620</ele>
        <time>2014-03-29T14:07:14Z</time>
      </trkpt>
      <trkpt lat="43.36691" lon="5.8381">
        <ele>620</ele>
        <time>2014-03-29T14:07:34Z</time>
      </trkpt>
      <trkpt lat="43.36691" lon="5.8381">
        <ele>620</ele>
        <time>2014-03-29T14:07:54Z</time>
      </trkpt>
      <trkpt lat="43.3669" lon="5.83806">
        <ele>620</ele>
        <time>2014-03-29T14:08:01Z</time>
      </trkpt>
      <trkpt lat="43.36685" lon="5.8379">
        <ele>620</ele>
        <time>2014-03-29T14:08:09Z</time>
      </trkpt>
      <trkpt lat="43.36684" lon="5.83779">
        <ele>620</ele>
        <time>2014-03-29T14:08:14Z</time>
      </trkpt>
      <trkpt lat="43.36684" lon="5.83775">
        <ele>620</ele>
        <time>2014-03-29T14:08:16Z</time>
      </trkpt>
      <trkpt lat="43.36683" lon="5.83768">
        <ele>620</ele>
        <time>2014-03-29T14:08:19Z</time>
      </trkpt>
      <trkpt lat="43.36681" lon="5.83741">
        <ele>620</ele>
        <time>2014-03-29T14:08:28Z</time>
      </trkpt>
      <trkpt lat="43.36674" lon="5.83722">
        <ele>620</ele>
        <time>2014-03-29T14:08:34Z</time>
      </trkpt>
      <trkpt lat="43.36673" lon="5.83703">
        <ele>620</ele>
        <time>2014-03-29T14:08:40Z</time>
      </trkpt>
      <trkpt lat="43.36663" lon="5.83683">
        <ele>620</ele>
        <time>2014-03-29T14:08:47Z</time>
      </trkpt>
      <trkpt lat="43.36655" lon="5.83674">
        <ele>620</ele>
        <time>2014-03-29T14:08:51Z</time>
      </trkpt>
      <trkpt lat="43.36641" lon="5.83665">
        <ele>620</ele>
        <time>2014-03-29T14:08:56Z</time>
      </trkpt>
      <trkpt lat="43.36635" lon="5.83653">
        <ele>620</ele>
        <time>2014-03-29T14:09:00Z</time>
      </trkpt>
      <trkpt lat="43.36633" lon="5.83651">
        <ele>620</ele>
        <time>2014-03-29T14:09:01Z</time>
      </trkpt>
      <trkpt lat="43.36623" lon="5.83638">
        <ele>620</ele>
        <time>2014-03-29T14:09:07Z</time>
      </trkpt>
      <trkpt lat="43.36622" lon="5.83636">
        <ele>620</ele>
        <time>2014-03-29T14:09:08Z</time>
      </trkpt>
      <trkpt lat="43.36621" lon="5.83633">
        <ele>620</ele>
        <time>2014-03-29T14:09:09Z</time>
      </trkpt>
      <trkpt lat="43.36619" lon="5.83627">
        <ele>620</ele>
        <time>2014-03-29T14:09:11Z</time>
      </trkpt>
      <trkpt lat="43.36607" lon="5.83609">
        <ele>620</ele>
        <time>2014-03-29T14:09:19Z</time>
      </trkpt>
      <trkpt lat="43.36604" lon="5.83604">
        <ele>620</ele>
        <time>2014-03-29T14:09:21Z</time>
      </trkpt>
      <trkpt lat="43.36601" lon="5.83589">
        <ele>620</ele>
        <time>2014-03-29T14:09:26Z</time>
      </trkpt>
      <trkpt lat="43.36592" lon="5.83574">
        <ele>621</ele>
        <time>2014-03-29T14:09:32Z</time>
      </trkpt>
      <trkpt lat="43.36591" lon="5.83571">
        <ele>621</ele>
        <time>2014-03-29T14:09:33Z</time>
      </trkpt>
      <trkpt lat="43.36588" lon="5.83558">
        <ele>622</ele>
        <time>2014-03-29T14:09:37Z</time>
      </trkpt>
      <trkpt lat="43.36586" lon="5.83549">
        <ele>622</ele>
        <time>2014-03-29T14:09:40Z</time>
      </trkpt>
      <trkpt lat="43.36583" lon="5.83541">
        <ele>622</ele>
        <time>2014-03-29T14:09:42Z</time>
      </trkpt>
      <trkpt lat="43.36585" lon="5.83526">
        <ele>622</ele>
        <time>2014-03-29T14:09:46Z</time>
      </trkpt>
      <trkpt lat="43.36584" lon="5.83523">
        <ele>622</ele>
        <time>2014-03-29T14:09:47Z</time>
      </trkpt>
      <trkpt lat="43.3658" lon="5.83515">
        <ele>622</ele>
        <time>2014-03-29T14:09:50Z</time>
      </trkpt>
      <trkpt lat="43.36576" lon="5.83501">
        <ele>622</ele>
        <time>2014-03-29T14:09:54Z</time>
      </trkpt>
      <trkpt lat="43.36573" lon="5.83493">
        <ele>622</ele>
        <time>2014-03-29T14:09:57Z</time>
      </trkpt>
      <trkpt lat="43.3657" lon="5.83482">
        <ele>622</ele>
        <time>2014-03-29T14:10:01Z</time>
      </trkpt>
      <trkpt lat="43.36559" lon="5.83465">
        <ele>623</ele>
        <time>2014-03-29T14:10:07Z</time>
      </trkpt>
      <trkpt lat="43.36543" lon="5.83451">
        <ele>624</ele>
        <time>2014-03-29T14:10:14Z</time>
      </trkpt>
      <trkpt lat="43.36535" lon="5.83441">
        <ele>624</ele>
        <time>2014-03-29T14:10:19Z</time>
      </trkpt>
      <trkpt lat="43.36534" lon="5.8344">
        <ele>625</ele>
        <time>2014-03-29T14:10:20Z</time>
      </trkpt>
      <trkpt lat="43.36532" lon="5.83432">
        <ele>625</ele>
        <time>2014-03-29T14:10:24Z</time>
      </trkpt>
      <trkpt lat="43.36531" lon="5.83427">
        <ele>625</ele>
        <time>2014-03-29T14:10:27Z</time>
      </trkpt>
      <trkpt lat="43.3653" lon="5.83425">
        <ele>625</ele>
        <time>2014-03-29T14:10:30Z</time>
      </trkpt>
      <trkpt lat="43.3653" lon="5.83425">
        <ele>625</ele>
        <time>2014-03-29T14:10:40Z</time>
      </trkpt>
      <trkpt lat="43.3653" lon="5.83425">
        <ele>625</ele>
        <time>2014-03-29T14:10:45Z</time>
      </trkpt>
      <trkpt lat="43.36531" lon="5.83422">
        <ele>625</ele>
        <time>2014-03-29T14:10:50Z</time>
      </trkpt>
      <trkpt lat="43.3653" lon="5.83414">
        <ele>625</ele>
        <time>2014-03-29T14:10:54Z</time>
      </trkpt>
      <trkpt lat="43.36526" lon="5.83408">
        <ele>625</ele>
        <time>2014-03-29T14:10:57Z</time>
      </trkpt>
      <trkpt lat="43.36523" lon="5.83404">
        <ele>626</ele>
        <time>2014-03-29T14:10:59Z</time>
      </trkpt>
      <trkpt lat="43.36522" lon="5.83402">
        <ele>626</ele>
        <time>2014-03-29T14:11:00Z</time>
      </trkpt>
      <trkpt lat="43.36518" lon="5.83397">
        <ele>626</ele>
        <time>2014-03-29T14:11:02Z</time>
      </trkpt>
      <trkpt lat="43.36507" lon="5.83385">
        <ele>627</ele>
        <time>2014-03-29T14:11:07Z</time>
      </trkpt>
      <trkpt lat="43.36497" lon="5.8337">
        <ele>627</ele>
        <time>2014-03-29T14:11:12Z</time>
      </trkpt>
      <trkpt lat="43.36493" lon="5.83356">
        <ele>628</ele>
        <time>2014-03-29T14:11:16Z</time>
      </trkpt>
      <trkpt lat="43.36489" lon="5.83339">
        <ele>628</ele>
        <time>2014-03-29T14:11:21Z</time>
      </trkpt>
      <trkpt lat="43.36486" lon="5.83334">
        <ele>628</ele>
        <time>2014-03-29T14:11:23Z</time>
      </trkpt>
      <trkpt lat="43.36483" lon="5.83331">
        <ele>629</ele>
        <time>2014-03-29T14:11:24Z</time>
      </trkpt>
      <trkpt lat="43.36477" lon="5.83311">
        <ele>630</ele>
        <time>2014-03-29T14:11:30Z</time>
      </trkpt>
      <trkpt lat="43.3647" lon="5.83301">
        <ele>631</ele>
        <time>2014-03-29T14:11:34Z</time>
      </trkpt>
      <trkpt lat="43.36455" lon="5.83288">
        <ele>633</ele>
        <time>2014-03-29T14:11:42Z</time>
      </trkpt>
      <trkpt lat="43.36452" lon="5.83285">
        <ele>634</ele>
        <time>2014-03-29T14:11:44Z</time>
      </trkpt>
      <trkpt lat="43.36452" lon="5.83278">
        <ele>634</ele>
        <time>2014-03-29T14:11:46Z</time>
      </trkpt>
      <trkpt lat="43.36452" lon="5.83263">
        <ele>635</ele>
        <time>2014-03-29T14:11:51Z</time>
      </trkpt>
      <trkpt lat="43.36452" lon="5.83261">
        <ele>635</ele>
        <time>2014-03-29T14:11:52Z</time>
      </trkpt>
      <trkpt lat="43.36448" lon="5.83251">
        <ele>636</ele>
        <time>2014-03-29T14:11:58Z</time>
      </trkpt>
      <trkpt lat="43.36448" lon="5.8325">
        <ele>636</ele>
        <time>2014-03-29T14:11:59Z</time>
      </trkpt>
      <trkpt lat="43.36448" lon="5.8325">
        <ele>636</ele>
        <time>2014-03-29T14:12:18Z</time>
      </trkpt>
      <trkpt lat="43.36448" lon="5.8325">
        <ele>636</ele>
        <time>2014-03-29T14:12:38Z</time>
      </trkpt>
      <trkpt lat="43.36447" lon="5.83247">
        <ele>637</ele>
        <time>2014-03-29T14:12:44Z</time>
      </trkpt>
      <trkpt lat="43.36443" lon="5.83236">
        <ele>638</ele>
        <time>2014-03-29T14:12:50Z</time>
      </trkpt>
      <trkpt lat="43.36438" lon="5.83223">
        <ele>639</ele>
        <time>2014-03-29T14:12:56Z</time>
      </trkpt>
      <trkpt lat="43.36437" lon="5.83221">
        <ele>639</ele>
        <time>2014-03-29T14:12:57Z</time>
      </trkpt>
      <trkpt lat="43.36436" lon="5.83219">
        <ele>639</ele>
        <time>2014-03-29T14:12:58Z</time>
      </trkpt>
      <trkpt lat="43.36435" lon="5.83215">
        <ele>639</ele>
        <time>2014-03-29T14:13:00Z</time>
      </trkpt>
      <trkpt lat="43.3643" lon="5.83208">
        <ele>640</ele>
        <time>2014-03-29T14:13:03Z</time>
      </trkpt>
      <trkpt lat="43.36425" lon="5.83193">
        <ele>640</ele>
        <time>2014-03-29T14:13:09Z</time>
      </trkpt>
      <trkpt lat="43.36425" lon="5.83187">
        <ele>640</ele>
        <time>2014-03-29T14:13:12Z</time>
      </trkpt>
      <trkpt lat="43.36429" lon="5.83178">
        <ele>640</ele>
        <time>2014-03-29T14:13:16Z</time>
      </trkpt>
      <trkpt lat="43.3643" lon="5.83172">
        <ele>640</ele>
        <time>2014-03-29T14:13:19Z</time>
      </trkpt>
      <trkpt lat="43.36427" lon="5.83164">
        <ele>641</ele>
        <time>2014-03-29T14:13:23Z</time>
      </trkpt>
      <trkpt lat="43.36415" lon="5.83152">
        <ele>641</ele>
        <time>2014-03-29T14:13:31Z</time>
      </trkpt>
      <trkpt lat="43.36399" lon="5.83137">
        <ele>642</ele>
        <time>2014-03-29T14:13:41Z</time>
      </trkpt>
      <trkpt lat="43.36393" lon="5.83133">
        <ele>643</ele>
        <time>2014-03-29T14:13:45Z</time>
      </trkpt>
      <trkpt lat="43.3638" lon="5.83113">
        <ele>644</ele>
        <time>2014-03-29T14:13:56Z</time>
      </trkpt>
      <trkpt lat="43.36377" lon="5.83108">
        <ele>644</ele>
        <time>2014-03-29T14:14:00Z</time>
      </trkpt>
      <trkpt lat="43.36375" lon="5.83105">
        <ele>644</ele>
        <time>2014-03-29T14:14:02Z</time>
      </trkpt>
      <trkpt lat="43.36364" lon="5.83093">
        <ele>645</ele>
        <time>2014-03-29T14:14:09Z</time>
      </trkpt>
      <trkpt lat="43.36356" lon="5.83084">
        <ele>645</ele>
        <time>2014-03-29T14:14:15Z</time>
      </trkpt>
      <trkpt lat="43.36353" lon="5.83078">
        <ele>646</ele>
        <time>2014-03-29T14:14:18Z</time>
      </trkpt>
      <trkpt lat="43.36348" lon="5.83073">
        <ele>646</ele>
        <time>2014-03-29T14:14:22Z</time>
      </trkpt>
      <trkpt lat="43.36339" lon="5.83066">
        <ele>647</ele>
        <time>2014-03-29T14:14:28Z</time>
      </trkpt>
      <trkpt lat="43.36323" lon="5.83056">
        <ele>649</ele>
        <time>2014-03-29T14:14:38Z</time>
      </trkpt>
      <trkpt lat="43.36322" lon="5.83055">
        <ele>649</ele>
        <time>2014-03-29T14:14:39Z</time>
      </trkpt>
      <trkpt lat="43.36308" lon="5.83036">
        <ele>649</ele>
        <time>2014-03-29T14:14:49Z</time>
      </trkpt>
      <trkpt lat="43.36299" lon="5.83027">
        <ele>649</ele>
        <time>2014-03-29T14:14:55Z</time>
      </trkpt>
      <trkpt lat="43.3629" lon="5.83025">
        <ele>650</ele>
        <time>2014-03-29T14:15:00Z</time>
      </trkpt>
      <trkpt lat="43.36288" lon="5.83025">
        <ele>650</ele>
        <time>2014-03-29T14:15:01Z</time>
      </trkpt>
      <trkpt lat="43.36283" lon="5.83027">
        <ele>651</ele>
        <time>2014-03-29T14:15:04Z</time>
      </trkpt>
      <trkpt lat="43.36275" lon="5.83029">
        <ele>651</ele>
        <time>2014-03-29T14:15:08Z</time>
      </trkpt>
      <trkpt lat="43.36252" lon="5.83031">
        <ele>653</ele>
        <time>2014-03-29T14:15:20Z</time>
      </trkpt>
      <trkpt lat="43.36238" lon="5.83026">
        <ele>655</ele>
        <time>2014-03-29T14:15:27Z</time>
      </trkpt>
      <trkpt lat="43.36226" lon="5.83019">
        <ele>657</ele>
        <time>2014-03-29T14:15:34Z</time>
      </trkpt>
      <trkpt lat="43.36208" lon="5.8301">
        <ele>658</ele>
        <time>2014-03-29T14:15:44Z</time>
      </trkpt>
      <trkpt lat="43.36198" lon="5.83007">
        <ele>659</ele>
        <time>2014-03-29T14:15:50Z</time>
      </trkpt>
      <trkpt lat="43.36192" lon="5.83006">
        <ele>659</ele>
        <time>2014-03-29T14:15:54Z</time>
      </trkpt>
      <trkpt lat="43.36177" lon="5.82999">
        <ele>660</ele>
        <time>2014-03-29T14:16:03Z</time>
      </trkpt>
      <trkpt lat="43.36163" lon="5.82999">
        <ele>660</ele>
        <time>2014-03-29T14:16:11Z</time>
      </trkpt>
      <trkpt lat="43.36151" lon="5.82998">
        <ele>661</ele>
        <time>2014-03-29T14:16:18Z</time>
      </trkpt>
      <trkpt lat="43.36137" lon="5.82995">
        <ele>661</ele>
        <time>2014-03-29T14:16:26Z</time>
      </trkpt>
      <trkpt lat="43.36132" lon="5.82992">
        <ele>661</ele>
        <time>2014-03-29T14:16:29Z</time>
      </trkpt>
      <trkpt lat="43.36129" lon="5.8299">
        <ele>662</ele>
        <time>2014-03-29T14:16:31Z</time>
      </trkpt>
      <trkpt lat="43.36119" lon="5.82986">
        <ele>662</ele>
        <time>2014-03-29T14:16:37Z</time>
      </trkpt>
      <trkpt lat="43.36112" lon="5.82983">
        <ele>662</ele>
        <time>2014-03-29T14:16:41Z</time>
      </trkpt>
      <trkpt lat="43.36108" lon="5.82981">
        <ele>662</ele>
        <time>2014-03-29T14:16:44Z</time>
      </trkpt>
      <trkpt lat="43.36103" lon="5.82973">
        <ele>662</ele>
        <time>2014-03-29T14:16:49Z</time>
      </trkpt>
      <trkpt lat="43.36096" lon="5.82962">
        <ele>663</ele>
        <time>2014-03-29T14:16:55Z</time>
      </trkpt>
      <trkpt lat="43.36086" lon="5.82949">
        <ele>664</ele>
        <time>2014-03-29T14:17:02Z</time>
      </trkpt>
      <trkpt lat="43.36052" lon="5.82917">
        <ele>665</ele>
        <time>2014-03-29T14:17:25Z</time>
      </trkpt>
      <trkpt lat="43.36048" lon="5.82913">
        <ele>666</ele>
        <time>2014-03-29T14:17:28Z</time>
      </trkpt>
      <trkpt lat="43.36034" lon="5.82902">
        <ele>667</ele>
        <time>2014-03-29T14:17:36Z</time>
      </trkpt>
      <trkpt lat="43.36021" lon="5.82892">
        <ele>667</ele>
        <time>2014-03-29T14:17:43Z</time>
      </trkpt>
      <trkpt lat="43.36006" lon="5.82889">
        <ele>668</ele>
        <time>2014-03-29T14:17:50Z</time>
      </trkpt>
      <trkpt lat="43.35997" lon="5.82894">
        <ele>668</ele>
        <time>2014-03-29T14:17:55Z</time>
      </trkpt>
      <trkpt lat="43.35984" lon="5.82895">
        <ele>669</ele>
        <time>2014-03-29T14:18:01Z</time>
      </trkpt>
      <trkpt lat="43.35977" lon="5.82894">
        <ele>669</ele>
        <time>2014-03-29T14:18:05Z</time>
      </trkpt>
      <trkpt lat="43.35955" lon="5.82887">
        <ele>670</ele>
        <time>2014-03-29T14:18:15Z</time>
      </trkpt>
      <trkpt lat="43.35945" lon="5.82883">
        <ele>671</ele>
        <time>2014-03-29T14:18:20Z</time>
      </trkpt>
      <trkpt lat="43.35932" lon="5.82877">
        <ele>671</ele>
        <time>2014-03-29T14:18:27Z</time>
      </trkpt>
      <trkpt lat="43.3593" lon="5.82876">
        <ele>671</ele>
        <time>2014-03-29T14:18:28Z</time>
      </trkpt>
      <trkpt lat="43.35926" lon="5.82873">
        <ele>671</ele>
        <time>2014-03-29T14:18:31Z</time>
      </trkpt>
      <trkpt lat="43.35923" lon="5.82871">
        <ele>671</ele>
        <time>2014-03-29T14:18:33Z</time>
      </trkpt>
      <trkpt lat="43.3592" lon="5.82869">
        <ele>671</ele>
        <time>2014-03-29T14:18:35Z</time>
      </trkpt>
      <trkpt lat="43.35912" lon="5.82862">
        <ele>671</ele>
        <time>2014-03-29T14:18:41Z</time>
      </trkpt>
      <trkpt lat="43.35899" lon="5.82857">
        <ele>672</ele>
        <time>2014-03-29T14:18:48Z</time>
      </trkpt>
      <trkpt lat="43.35886" lon="5.82849">
        <ele>672</ele>
        <time>2014-03-29T14:18:56Z</time>
      </trkpt>
      <trkpt lat="43.35881" lon="5.82849">
        <ele>672</ele>
        <time>2014-03-29T14:18:59Z</time>
      </trkpt>
      <trkpt lat="43.3587" lon="5.8285">
        <ele>673</ele>
        <time>2014-03-29T14:19:05Z</time>
      </trkpt>
      <trkpt lat="43.35864" lon="5.82854">
        <ele>673</ele>
        <time>2014-03-29T14:19:09Z</time>
      </trkpt>
      <trkpt lat="43.35857" lon="5.82861">
        <ele>673</ele>
        <time>2014-03-29T14:19:14Z</time>
      </trkpt>
      <trkpt lat="43.35849" lon="5.82869">
        <ele>674</ele>
        <time>2014-03-29T14:19:20Z</time>
      </trkpt>
      <trkpt lat="43.35848" lon="5.8287">
        <ele>674</ele>
        <time>2014-03-29T14:19:21Z</time>
      </trkpt>
      <trkpt lat="43.35843" lon="5.82879">
        <ele>674</ele>
        <time>2014-03-29T14:19:27Z</time>
      </trkpt>
      <trkpt lat="43.35839" lon="5.82897">
        <ele>675</ele>
        <time>2014-03-29T14:19:32Z</time>
      </trkpt>
      <trkpt lat="43.35836" lon="5.8291">
        <ele>675</ele>
        <time>2014-03-29T14:19:35Z</time>
      </trkpt>
      <trkpt lat="43.35834" lon="5.82921">
        <ele>675</ele>
        <time>2014-03-29T14:19:37Z</time>
      </trkpt>
      <trkpt lat="43.35832" lon="5.82932">
        <ele>674</ele>
        <time>2014-03-29T14:19:39Z</time>
      </trkpt>
      <trkpt lat="43.35832" lon="5.82965">
        <ele>672</ele>
        <time>2014-03-29T14:19:45Z</time>
      </trkpt>
      <trkpt lat="43.35834" lon="5.82977">
        <ele>672</ele>
        <time>2014-03-29T14:19:47Z</time>
      </trkpt>
      <trkpt lat="43.35835" lon="5.82996">
        <ele>671</ele>
        <time>2014-03-29T14:19:50Z</time>
      </trkpt>
      <trkpt lat="43.35837" lon="5.83016">
        <ele>670</ele>
        <time>2014-03-29T14:19:53Z</time>
      </trkpt>
      <trkpt lat="43.35838" lon="5.83035">
        <ele>670</ele>
        <time>2014-03-29T14:19:56Z</time>
      </trkpt>
      <trkpt lat="43.35837" lon="5.83057">
        <ele>669</ele>
        <time>2014-03-29T14:20:00Z</time>
      </trkpt>
      <trkpt lat="43.35843" lon="5.83077">
        <ele>668</ele>
        <time>2014-03-29T14:20:04Z</time>
      </trkpt>
      <trkpt lat="43.35847" lon="5.83086">
        <ele>667</ele>
        <time>2014-03-29T14:20:06Z</time>
      </trkpt>
      <trkpt lat="43.35856" lon="5.83104">
        <ele>666</ele>
        <time>2014-03-29T14:20:10Z</time>
      </trkpt>
      <trkpt lat="43.35858" lon="5.83109">
        <ele>666</ele>
        <time>2014-03-29T14:20:11Z</time>
      </trkpt>
      <trkpt lat="43.35867" lon="5.83134">
        <ele>665</ele>
        <time>2014-03-29T14:20:16Z</time>
      </trkpt>
      <trkpt lat="43.35872" lon="5.83147">
        <ele>664</ele>
        <time>2014-03-29T14:20:19Z</time>
      </trkpt>
      <trkpt lat="43.3588" lon="5.83162">
        <ele>664</ele>
        <time>2014-03-29T14:20:22Z</time>
      </trkpt>
      <trkpt lat="43.35894" lon="5.8319">
        <ele>662</ele>
        <time>2014-03-29T14:20:27Z</time>
      </trkpt>
      <trkpt lat="43.35897" lon="5.8321">
        <ele>662</ele>
        <time>2014-03-29T14:20:30Z</time>
      </trkpt>
      <trkpt lat="43.35893" lon="5.83239">
        <ele>661</ele>
        <time>2014-03-29T14:20:34Z</time>
      </trkpt>
      <trkpt lat="43.35887" lon="5.83261">
        <ele>659</ele>
        <time>2014-03-29T14:20:37Z</time>
      </trkpt>
      <trkpt lat="43.35881" lon="5.83271">
        <ele>659</ele>
        <time>2014-03-29T14:20:39Z</time>
      </trkpt>
      <trkpt lat="43.35876" lon="5.83275">
        <ele>659</ele>
        <time>2014-03-29T14:20:40Z</time>
      </trkpt>
      <trkpt lat="43.35872" lon="5.83279">
        <ele>659</ele>
        <time>2014-03-29T14:20:41Z</time>
      </trkpt>
      <trkpt lat="43.35867" lon="5.83282">
        <ele>659</ele>
        <time>2014-03-29T14:20:42Z</time>
      </trkpt>
      <trkpt lat="43.3586" lon="5.83286">
        <ele>659</ele>
        <time>2014-03-29T14:20:43Z</time>
      </trkpt>
      <trkpt lat="43.35854" lon="5.83287">
        <ele>659</ele>
        <time>2014-03-29T14:20:44Z</time>
      </trkpt>
      <trkpt lat="43.35847" lon="5.83289">
        <ele>659</ele>
        <time>2014-03-29T14:20:45Z</time>
      </trkpt>
      <trkpt lat="43.35834" lon="5.83288">
        <ele>659</ele>
        <time>2014-03-29T14:20:47Z</time>
      </trkpt>
      <trkpt lat="43.35822" lon="5.83283">
        <ele>659</ele>
        <time>2014-03-29T14:20:49Z</time>
      </trkpt>
      <trkpt lat="43.35818" lon="5.83277">
        <ele>659</ele>
        <time>2014-03-29T14:20:50Z</time>
      </trkpt>
      <trkpt lat="43.35814" lon="5.83274">
        <ele>659</ele>
        <time>2014-03-29T14:20:51Z</time>
      </trkpt>
      <trkpt lat="43.35809" lon="5.83275">
        <ele>659</ele>
        <time>2014-03-29T14:20:52Z</time>
      </trkpt>
      <trkpt lat="43.35805" lon="5.83277">
        <ele>659</ele>
        <time>2014-03-29T14:20:53Z</time>
      </trkpt>
      <trkpt lat="43.35802" lon="5.83289">
        <ele>659</ele>
        <time>2014-03-29T14:20:55Z</time>
      </trkpt>
      <trkpt lat="43.35808" lon="5.8331">
        <ele>658</ele>
        <time>2014-03-29T14:20:58Z</time>
      </trkpt>
      <trkpt lat="43.35812" lon="5.83315">
        <ele>658</ele>
        <time>2014-03-29T14:20:59Z</time>
      </trkpt>
      <trkpt lat="43.35817" lon="5.83319">
        <ele>657</ele>
        <time>2014-03-29T14:21:00Z</time>
      </trkpt>
      <trkpt lat="43.35823" lon="5.83323">
        <ele>657</ele>
        <time>2014-03-29T14:21:01Z</time>
      </trkpt>
      <trkpt lat="43.35827" lon="5.83328">
        <ele>657</ele>
        <time>2014-03-29T14:21:02Z</time>
      </trkpt>
      <trkpt lat="43.35836" lon="5.83342">
        <ele>656</ele>
        <time>2014-03-29T14:21:05Z</time>
      </trkpt>
      <trkpt lat="43.35844" lon="5.8337">
        <ele>654</ele>
        <time>2014-03-29T14:21:09Z</time>
      </trkpt>
      <trkpt lat="43.35846" lon="5.83377">
        <ele>653</ele>
        <time>2014-03-29T14:21:10Z</time>
      </trkpt>
      <trkpt lat="43.3585" lon="5.83385">
        <ele>653</ele>
        <time>2014-03-29T14:21:11Z</time>
      </trkpt>
      <trkpt lat="43.35855" lon="5.834">
        <ele>652</ele>
        <time>2014-03-29T14:21:13Z</time>
      </trkpt>
      <trkpt lat="43.35858" lon="5.83416">
        <ele>650</ele>
        <time>2014-03-29T14:21:15Z</time>
      </trkpt>
      <trkpt lat="43.35858" lon="5.83424">
        <ele>649</ele>
        <time>2014-03-29T14:21:16Z</time>
      </trkpt>
      <trkpt lat="43.35859" lon="5.83433">
        <ele>648</ele>
        <time>2014-03-29T14:21:17Z</time>
      </trkpt>
      <trkpt lat="43.35858" lon="5.83462">
        <ele>647</ele>
        <time>2014-03-29T14:21:20Z</time>
      </trkpt>
      <trkpt lat="43.3586" lon="5.83473">
        <ele>646</ele>
        <time>2014-03-29T14:21:21Z</time>
      </trkpt>
      <trkpt lat="43.35862" lon="5.83483">
        <ele>645</ele>
        <time>2014-03-29T14:21:22Z</time>
      </trkpt>
      <trkpt lat="43.35869" lon="5.83498">
        <ele>643</ele>
        <time>2014-03-29T14:21:24Z</time>
      </trkpt>
      <trkpt lat="43.35876" lon="5.83513">
        <ele>642</ele>
        <time>2014-03-29T14:21:26Z</time>
      </trkpt>
      <trkpt lat="43.35881" lon="5.83521">
        <ele>641</ele>
        <time>2014-03-29T14:21:27Z</time>
      </trkpt>
      <trkpt lat="43.35885" lon="5.83529">
        <ele>641</ele>
        <time>2014-03-29T14:21:28Z</time>
      </trkpt>
      <trkpt lat="43.3589" lon="5.83537">
        <ele>640</ele>
        <time>2014-03-29T14:21:29Z</time>
      </trkpt>
      <trkpt lat="43.35896" lon="5.83543">
        <ele>640</ele>
        <time>2014-03-29T14:21:30Z</time>
      </trkpt>
      <trkpt lat="43.35921" lon="5.83561">
        <ele>640</ele>
        <time>2014-03-29T14:21:34Z</time>
      </trkpt>
      <trkpt lat="43.35943" lon="5.83577">
        <ele>639</ele>
        <time>2014-03-29T14:21:38Z</time>
      </trkpt>
      <trkpt lat="43.35951" lon="5.83588">
        <ele>639</ele>
        <time>2014-03-29T14:21:40Z</time>
      </trkpt>
      <trkpt lat="43.35958" lon="5.836">
        <ele>638</ele>
        <time>2014-03-29T14:21:42Z</time>
      </trkpt>
      <trkpt lat="43.35967" lon="5.83613">
        <ele>637</ele>
        <time>2014-03-29T14:21:44Z</time>
      </trkpt>
      <trkpt lat="43.35983" lon="5.83639">
        <ele>635</ele>
        <time>2014-03-29T14:21:48Z</time>
      </trkpt>
      <trkpt lat="43.35997" lon="5.83661">
        <ele>633</ele>
        <time>2014-03-29T14:21:51Z</time>
      </trkpt>
      <trkpt lat="43.36013" lon="5.83682">
        <ele>631</ele>
        <time>2014-03-29T14:21:54Z</time>
      </trkpt>
      <trkpt lat="43.36023" lon="5.83692">
        <ele>630</ele>
        <time>2014-03-29T14:21:56Z</time>
      </trkpt>
      <trkpt lat="43.36027" lon="5.83698">
        <ele>629</ele>
        <time>2014-03-29T14:21:57Z</time>
      </trkpt>
      <trkpt lat="43.36037" lon="5.83718">
        <ele>627</ele>
        <time>2014-03-29T14:22:00Z</time>
      </trkpt>
      <trkpt lat="43.36044" lon="5.8373">
        <ele>627</ele>
        <time>2014-03-29T14:22:02Z</time>
      </trkpt>
      <trkpt lat="43.36047" lon="5.83736">
        <ele>626</ele>
        <time>2014-03-29T14:22:03Z</time>
      </trkpt>
      <trkpt lat="43.3605" lon="5.83743">
        <ele>626</ele>
        <time>2014-03-29T14:22:04Z</time>
      </trkpt>
      <trkpt lat="43.36057" lon="5.83763">
        <ele>625</ele>
        <time>2014-03-29T14:22:07Z</time>
      </trkpt>
      <trkpt lat="43.36071" lon="5.8378">
        <ele>624</ele>
        <time>2014-03-29T14:22:10Z</time>
      </trkpt>
      <trkpt lat="43.36076" lon="5.83788">
        <ele>624</ele>
        <time>2014-03-29T14:22:11Z</time>
      </trkpt>
      <trkpt lat="43.36079" lon="5.83795">
        <ele>623</ele>
        <time>2014-03-29T14:22:12Z</time>
      </trkpt>
      <trkpt lat="43.36082" lon="5.83803">
        <ele>623</ele>
        <time>2014-03-29T14:22:13Z</time>
      </trkpt>
      <trkpt lat="43.36086" lon="5.83819">
        <ele>622</ele>
        <time>2014-03-29T14:22:15Z</time>
      </trkpt>
      <trkpt lat="43.36094" lon="5.8384">
        <ele>622</ele>
        <time>2014-03-29T14:22:18Z</time>
      </trkpt>
      <trkpt lat="43.36097" lon="5.83846">
        <ele>622</ele>
        <time>2014-03-29T14:22:19Z</time>
      </trkpt>
      <trkpt lat="43.36101" lon="5.83853">
        <ele>621</ele>
        <time>2014-03-29T14:22:20Z</time>
      </trkpt>
      <trkpt lat="43.36104" lon="5.83859">
        <ele>621</ele>
        <time>2014-03-29T14:22:21Z</time>
      </trkpt>
      <trkpt lat="43.36106" lon="5.83868">
        <ele>621</ele>
        <time>2014-03-29T14:22:22Z</time>
      </trkpt>
      <trkpt lat="43.36107" lon="5.83877">
        <ele>621</ele>
        <time>2014-03-29T14:22:23Z</time>
      </trkpt>
      <trkpt lat="43.36107" lon="5.83884">
        <ele>621</ele>
        <time>2014-03-29T14:22:24Z</time>
      </trkpt>
      <trkpt lat="43.36107" lon="5.83896">
        <ele>621</ele>
        <time>2014-03-29T14:22:26Z</time>
      </trkpt>
      <trkpt lat="43.36108" lon="5.83901">
        <ele>621</ele>
        <time>2014-03-29T14:22:27Z</time>
      </trkpt>
      <trkpt lat="43.36108" lon="5.83905">
        <ele>621</ele>
        <time>2014-03-29T14:22:28Z</time>
      </trkpt>
      <trkpt lat="43.36108" lon="5.83909">
        <ele>621</ele>
        <time>2014-03-29T14:22:29Z</time>
      </trkpt>
      <trkpt lat="43.36107" lon="5.83911">
        <ele>621</ele>
        <time>2014-03-29T14:22:30Z</time>
      </trkpt>
      <trkpt lat="43.36106" lon="5.83912">
        <ele>621</ele>
        <time>2014-03-29T14:22:31Z</time>
      </trkpt>
      <trkpt lat="43.36105" lon="5.83913">
        <ele>621</ele>
        <time>2014-03-29T14:22:32Z</time>
      </trkpt>
      <trkpt lat="43.36102" lon="5.83914">
        <ele>621</ele>
        <time>2014-03-29T14:22:34Z</time>
      </trkpt>
      <trkpt lat="43.36097" lon="5.83915">
        <ele>622</ele>
        <time>2014-03-29T14:22:37Z</time>
      </trkpt>
      <trkpt lat="43.36089" lon="5.83915">
        <ele>622</ele>
        <time>2014-03-29T14:22:42Z</time>
      </trkpt>
      <trkpt lat="43.36081" lon="5.83921">
        <ele>622</ele>
        <time>2014-03-29T14:22:46Z</time>
      </trkpt>
      <trkpt lat="43.36074" lon="5.83928">
        <ele>622</ele>
        <time>2014-03-29T14:22:50Z</time>
      </trkpt>
      <trkpt lat="43.36073" lon="5.8393">
        <ele>622</ele>
        <time>2014-03-29T14:22:51Z</time>
      </trkpt>
      <trkpt lat="43.36068" lon="5.8393">
        <ele>623</ele>
        <time>2014-03-29T14:22:54Z</time>
      </trkpt>
      <trkpt lat="43.36059" lon="5.83932">
        <ele>623</ele>
        <time>2014-03-29T14:22:58Z</time>
      </trkpt>
      <trkpt lat="43.36051" lon="5.83938">
        <ele>623</ele>
        <time>2014-03-29T14:23:02Z</time>
      </trkpt>
      <trkpt lat="43.36044" lon="5.83944">
        <ele>624</ele>
        <time>2014-03-29T14:23:05Z</time>
      </trkpt>
      <trkpt lat="43.36038" lon="5.83947">
        <ele>624</ele>
        <time>2014-03-29T14:23:07Z</time>
      </trkpt>
      <trkpt lat="43.36031" lon="5.83951">
        <ele>625</ele>
        <time>2014-03-29T14:23:09Z</time>
      </trkpt>
      <trkpt lat="43.36023" lon="5.83958">
        <ele>625</ele>
        <time>2014-03-29T14:23:12Z</time>
      </trkpt>
      <trkpt lat="43.36019" lon="5.83963">
        <ele>625</ele>
        <time>2014-03-29T14:23:14Z</time>
      </trkpt>
      <trkpt lat="43.36014" lon="5.83968">
        <ele>625</ele>
        <time>2014-03-29T14:23:16Z</time>
      </trkpt>
      <trkpt lat="43.36011" lon="5.83971">
        <ele>625</ele>
        <time>2014-03-29T14:23:18Z</time>
      </trkpt>
      <trkpt lat="43.36005" lon="5.83982">
        <ele>625</ele>
        <time>2014-03-29T14:23:23Z</time>
      </trkpt>
      <trkpt lat="43.36002" lon="5.83987">
        <ele>625</ele>
        <time>2014-03-29T14:23:26Z</time>
      </trkpt>
      <trkpt lat="43.35999" lon="5.8399">
        <ele>625</ele>
        <time>2014-03-29T14:23:28Z</time>
      </trkpt>
      <trkpt lat="43.35995" lon="5.83994">
        <ele>625</ele>
        <time>2014-03-29T14:23:30Z</time>
      </trkpt>
      <trkpt lat="43.35983" lon="5.84007">
        <ele>625</ele>
        <time>2014-03-29T14:23:40Z</time>
      </trkpt>
      <trkpt lat="43.35977" lon="5.84014">
        <ele>625</ele>
        <time>2014-03-29T14:23:44Z</time>
      </trkpt>
      <trkpt lat="43.3597" lon="5.84017">
        <ele>626</ele>
        <time>2014-03-29T14:23:49Z</time>
      </trkpt>
      <trkpt lat="43.35963" lon="5.84012">
        <ele>626</ele>
        <time>2014-03-29T14:23:55Z</time>
      </trkpt>
      <trkpt lat="43.35958" lon="5.84009">
        <ele>626</ele>
        <time>2014-03-29T14:23:59Z</time>
      </trkpt>
      <trkpt lat="43.35953" lon="5.84007">
        <ele>627</ele>
        <time>2014-03-29T14:24:02Z</time>
      </trkpt>
      <trkpt lat="43.35948" lon="5.84006">
        <ele>627</ele>
        <time>2014-03-29T14:24:06Z</time>
      </trkpt>
      <trkpt lat="43.3594" lon="5.84004">
        <ele>627</ele>
        <time>2014-03-29T14:24:11Z</time>
      </trkpt>
      <trkpt lat="43.35932" lon="5.83998">
        <ele>628</ele>
        <time>2014-03-29T14:24:17Z</time>
      </trkpt>
      <trkpt lat="43.35924" lon="5.83992">
        <ele>630</ele>
        <time>2014-03-29T14:24:23Z</time>
      </trkpt>
      <trkpt lat="43.35922" lon="5.83992">
        <ele>630</ele>
        <time>2014-03-29T14:24:24Z</time>
      </trkpt>
      <trkpt lat="43.35917" lon="5.83992">
        <ele>631</ele>
        <time>2014-03-29T14:24:27Z</time>
      </trkpt>
      <trkpt lat="43.35911" lon="5.83998">
        <ele>630</ele>
        <time>2014-03-29T14:24:32Z</time>
      </trkpt>
      <trkpt lat="43.35904" lon="5.84004">
        <ele>630</ele>
        <time>2014-03-29T14:24:36Z</time>
      </trkpt>
      <trkpt lat="43.35892" lon="5.8401">
        <ele>631</ele>
        <time>2014-03-29T14:24:43Z</time>
      </trkpt>
      <trkpt lat="43.35885" lon="5.84013">
        <ele>631</ele>
        <time>2014-03-29T14:24:46Z</time>
      </trkpt>
      <trkpt lat="43.35881" lon="5.84015">
        <ele>631</ele>
        <time>2014-03-29T14:24:48Z</time>
      </trkpt>
      <trkpt lat="43.35876" lon="5.84018">
        <ele>631</ele>
        <time>2014-03-29T14:24:50Z</time>
      </trkpt>
      <trkpt lat="43.35862" lon="5.84026">
        <ele>631</ele>
        <time>2014-03-29T14:24:55Z</time>
      </trkpt>
      <trkpt lat="43.35847" lon="5.84028">
        <ele>632</ele>
        <time>2014-03-29T14:25:01Z</time>
      </trkpt>
      <trkpt lat="43.35843" lon="5.8403">
        <ele>631</ele>
        <time>2014-03-29T14:25:03Z</time>
      </trkpt>
      <trkpt lat="43.35839" lon="5.84036">
        <ele>631</ele>
        <time>2014-03-29T14:25:06Z</time>
      </trkpt>
      <trkpt lat="43.3583" lon="5.8404">
        <ele>631</ele>
        <time>2014-03-29T14:25:10Z</time>
      </trkpt>
      <trkpt lat="43.35828" lon="5.8404">
        <ele>631</ele>
        <time>2014-03-29T14:25:12Z</time>
      </trkpt>
      <trkpt lat="43.35823" lon="5.84042">
        <ele>631</ele>
        <time>2014-03-29T14:25:16Z</time>
      </trkpt>
      <trkpt lat="43.35823" lon="5.84043">
        <ele>631</ele>
        <time>2014-03-29T14:25:17Z</time>
      </trkpt>
      <trkpt lat="43.35823" lon="5.84043">
        <ele>631</ele>
        <time>2014-03-29T14:25:28Z</time>
      </trkpt>
      <trkpt lat="43.35823" lon="5.84043">
        <ele>631</ele>
        <time>2014-03-29T14:25:48Z</time>
      </trkpt>
      <trkpt lat="43.35822" lon="5.84044">
        <ele>631</ele>
        <time>2014-03-29T14:25:50Z</time>
      </trkpt>
      <trkpt lat="43.3582" lon="5.84044">
        <ele>631</ele>
        <time>2014-03-29T14:25:58Z</time>
      </trkpt>
      <trkpt lat="43.3582" lon="5.84044">
        <ele>631</ele>
        <time>2014-03-29T14:26:31Z</time>
      </trkpt>
      <trkpt lat="43.3582" lon="5.84044">
        <ele>631</ele>
        <time>2014-03-29T14:27:16Z</time>
      </trkpt>
      <trkpt lat="43.3582" lon="5.84044">
        <ele>631</ele>
        <time>2014-03-29T14:27:35Z</time>
      </trkpt>
      <trkpt lat="43.3582" lon="5.84044">
        <ele>631</ele>
        <time>2014-03-29T14:28:05Z</time>
      </trkpt>
      <trkpt lat="43.3582" lon="5.84044">
        <ele>631</ele>
        <time>2014-03-29T14:28:20Z</time>
      </trkpt>
      <trkpt lat="43.35821" lon="5.84044">
        <ele>631</ele>
        <time>2014-03-29T14:28:28Z</time>
      </trkpt>
      <trkpt lat="43.35821" lon="5.84044">
        <ele>631</ele>
        <time>2014-03-29T14:29:01Z</time>
      </trkpt>
      <trkpt lat="43.35821" lon="5.84044">
        <ele>631</ele>
        <time>2014-03-29T14:29:21Z</time>
      </trkpt>
      <trkpt lat="43.35821" lon="5.84044">
        <ele>631</ele>
        <time>2014-03-29T14:29:46Z</time>
      </trkpt>
      <trkpt lat="43.35822" lon="5.84044">
        <ele>631</ele>
        <time>2014-03-29T14:29:47Z</time>
      </trkpt>
      <trkpt lat="43.35822" lon="5.84044">
        <ele>631</ele>
        <time>2014-03-29T14:30:11Z</time>
      </trkpt>
      <trkpt lat="43.35822" lon="5.84044">
        <ele>631</ele>
        <time>2014-03-29T14:30:29Z</time>
      </trkpt>
      <trkpt lat="43.35821" lon="5.84045">
        <ele>631</ele>
        <time>2014-03-29T14:30:36Z</time>
      </trkpt>
      <trkpt lat="43.35821" lon="5.84045">
        <ele>631</ele>
        <time>2014-03-29T14:30:48Z</time>
      </trkpt>
      <trkpt lat="43.35821" lon="5.84045">
        <ele>631</ele>
        <time>2014-03-29T14:31:06Z</time>
      </trkpt>
      <trkpt lat="43.3582" lon="5.84048">
        <ele>631</ele>
        <time>2014-03-29T14:31:10Z</time>
      </trkpt>
      <trkpt lat="43.35821" lon="5.84054">
        <ele>631</ele>
        <time>2014-03-29T14:31:13Z</time>
      </trkpt>
      <trkpt lat="43.35825" lon="5.84058">
        <ele>630</ele>
        <time>2014-03-29T14:31:15Z</time>
      </trkpt>
      <trkpt lat="43.35831" lon="5.84066">
        <ele>630</ele>
        <time>2014-03-29T14:31:18Z</time>
      </trkpt>
      <trkpt lat="43.35836" lon="5.84075">
        <ele>629</ele>
        <time>2014-03-29T14:31:20Z</time>
      </trkpt>
      <trkpt lat="43.35842" lon="5.84089">
        <ele>628</ele>
        <time>2014-03-29T14:31:23Z</time>
      </trkpt>
      <trkpt lat="43.35843" lon="5.84095">
        <ele>628</ele>
        <time>2014-03-29T14:31:24Z</time>
      </trkpt>
      <trkpt lat="43.35844" lon="5.84108">
        <ele>627</ele>
        <time>2014-03-29T14:31:26Z</time>
      </trkpt>
      <trkpt lat="43.35841" lon="5.84127">
        <ele>626</ele>
        <time>2014-03-29T14:31:29Z</time>
      </trkpt>
      <trkpt lat="43.35841" lon="5.84131">
        <ele>625</ele>
        <time>2014-03-29T14:31:30Z</time>
      </trkpt>
      <trkpt lat="43.35843" lon="5.84139">
        <ele>625</ele>
        <time>2014-03-29T14:31:32Z</time>
      </trkpt>
      <trkpt lat="43.35846" lon="5.84153">
        <ele>624</ele>
        <time>2014-03-29T14:31:36Z</time>
      </trkpt>
      <trkpt lat="43.3584" lon="5.84168">
        <ele>623</ele>
        <time>2014-03-29T14:31:39Z</time>
      </trkpt>
      <trkpt lat="43.35835" lon="5.8418">
        <ele>623</ele>
        <time>2014-03-29T14:31:41Z</time>
      </trkpt>
      <trkpt lat="43.35833" lon="5.84187">
        <ele>623</ele>
        <time>2014-03-29T14:31:42Z</time>
      </trkpt>
      <trkpt lat="43.35829" lon="5.84199">
        <ele>622</ele>
        <time>2014-03-29T14:31:44Z</time>
      </trkpt>
      <trkpt lat="43.35828" lon="5.84205">
        <ele>621</ele>
        <time>2014-03-29T14:31:45Z</time>
      </trkpt>
      <trkpt lat="43.35829" lon="5.84212">
        <ele>621</ele>
        <time>2014-03-29T14:31:46Z</time>
      </trkpt>
      <trkpt lat="43.3583" lon="5.8422">
        <ele>620</ele>
        <time>2014-03-29T14:31:47Z</time>
      </trkpt>
      <trkpt lat="43.35832" lon="5.84235">
        <ele>619</ele>
        <time>2014-03-29T14:31:49Z</time>
      </trkpt>
      <trkpt lat="43.35832" lon="5.84244">
        <ele>618</ele>
        <time>2014-03-29T14:31:50Z</time>
      </trkpt>
      <trkpt lat="43.35828" lon="5.84268">
        <ele>615</ele>
        <time>2014-03-29T14:31:53Z</time>
      </trkpt>
      <trkpt lat="43.35821" lon="5.84297">
        <ele>611</ele>
        <time>2014-03-29T14:31:57Z</time>
      </trkpt>
      <trkpt lat="43.35822" lon="5.84311">
        <ele>609</ele>
        <time>2014-03-29T14:31:59Z</time>
      </trkpt>
      <trkpt lat="43.35826" lon="5.84327">
        <ele>608</ele>
        <time>2014-03-29T14:32:01Z</time>
      </trkpt>
      <trkpt lat="43.35835" lon="5.84359">
        <ele>604</ele>
        <time>2014-03-29T14:32:05Z</time>
      </trkpt>
      <trkpt lat="43.3584" lon="5.84395">
        <ele>600</ele>
        <time>2014-03-29T14:32:09Z</time>
      </trkpt>
      <trkpt lat="43.35838" lon="5.84403">
        <ele>599</ele>
        <time>2014-03-29T14:32:10Z</time>
      </trkpt>
      <trkpt lat="43.35832" lon="5.84417">
        <ele>598</ele>
        <time>2014-03-29T14:32:12Z</time>
      </trkpt>
      <trkpt lat="43.35822" lon="5.84449">
        <ele>593</ele>
        <time>2014-03-29T14:32:16Z</time>
      </trkpt>
      <trkpt lat="43.3582" lon="5.84458">
        <ele>592</ele>
        <time>2014-03-29T14:32:17Z</time>
      </trkpt>
      <trkpt lat="43.35817" lon="5.84467">
        <ele>591</ele>
        <time>2014-03-29T14:32:18Z</time>
      </trkpt>
      <trkpt lat="43.35815" lon="5.84484">
        <ele>589</ele>
        <time>2014-03-29T14:32:20Z</time>
      </trkpt>
      <trkpt lat="43.35815" lon="5.84491">
        <ele>588</ele>
        <time>2014-03-29T14:32:21Z</time>
      </trkpt>
      <trkpt lat="43.35816" lon="5.84499">
        <ele>587</ele>
        <time>2014-03-29T14:32:22Z</time>
      </trkpt>
      <trkpt lat="43.35818" lon="5.84508">
        <ele>586</ele>
        <time>2014-03-29T14:32:23Z</time>
      </trkpt>
      <trkpt lat="43.35824" lon="5.84524">
        <ele>585</ele>
        <time>2014-03-29T14:32:25Z</time>
      </trkpt>
      <trkpt lat="43.35829" lon="5.84542">
        <ele>584</ele>
        <time>2014-03-29T14:32:27Z</time>
      </trkpt>
      <trkpt lat="43.35835" lon="5.8456">
        <ele>582</ele>
        <time>2014-03-29T14:32:29Z</time>
      </trkpt>
      <trkpt lat="43.35836" lon="5.84576">
        <ele>580</ele>
        <time>2014-03-29T14:32:31Z</time>
      </trkpt>
      <trkpt lat="43.3583" lon="5.8459">
        <ele>578</ele>
        <time>2014-03-29T14:32:33Z</time>
      </trkpt>
      <trkpt lat="43.35823" lon="5.84603">
        <ele>576</ele>
        <time>2014-03-29T14:32:35Z</time>
      </trkpt>
      <trkpt lat="43.3582" lon="5.84609">
        <ele>575</ele>
        <time>2014-03-29T14:32:36Z</time>
      </trkpt>
      <trkpt lat="43.35818" lon="5.84614">
        <ele>574</ele>
        <time>2014-03-29T14:32:37Z</time>
      </trkpt>
      <trkpt lat="43.35817" lon="5.84619">
        <ele>573</ele>
        <time>2014-03-29T14:32:38Z</time>
      </trkpt>
      <trkpt lat="43.35819" lon="5.84632">
        <ele>573</ele>
        <time>2014-03-29T14:32:40Z</time>
      </trkpt>
      <trkpt lat="43.35822" lon="5.8464">
        <ele>572</ele>
        <time>2014-03-29T14:32:41Z</time>
      </trkpt>
      <trkpt lat="43.35828" lon="5.84655">
        <ele>571</ele>
        <time>2014-03-29T14:32:43Z</time>
      </trkpt>
      <trkpt lat="43.35842" lon="5.84677">
        <ele>569</ele>
        <time>2014-03-29T14:32:46Z</time>
      </trkpt>
      <trkpt lat="43.35847" lon="5.84685">
        <ele>569</ele>
        <time>2014-03-29T14:32:47Z</time>
      </trkpt>
      <trkpt lat="43.35853" lon="5.84691">
        <ele>568</ele>
        <time>2014-03-29T14:32:48Z</time>
      </trkpt>
      <trkpt lat="43.35858" lon="5.84698">
        <ele>568</ele>
        <time>2014-03-29T14:32:49Z</time>
      </trkpt>
      <trkpt lat="43.35863" lon="5.84705">
        <ele>567</ele>
        <time>2014-03-29T14:32:50Z</time>
      </trkpt>
      <trkpt lat="43.35867" lon="5.84711">
        <ele>567</ele>
        <time>2014-03-29T14:32:51Z</time>
      </trkpt>
      <trkpt lat="43.3587" lon="5.84714">
        <ele>567</ele>
        <time>2014-03-29T14:32:52Z</time>
      </trkpt>
      <trkpt lat="43.35873" lon="5.84721">
        <ele>567</ele>
        <time>2014-03-29T14:32:53Z</time>
      </trkpt>
      <trkpt lat="43.35875" lon="5.8473">
        <ele>566</ele>
        <time>2014-03-29T14:32:54Z</time>
      </trkpt>
      <trkpt lat="43.35878" lon="5.84739">
        <ele>565</ele>
        <time>2014-03-29T14:32:55Z</time>
      </trkpt>
      <trkpt lat="43.3588" lon="5.84759">
        <ele>563</ele>
        <time>2014-03-29T14:32:58Z</time>
      </trkpt>
      <trkpt lat="43.35879" lon="5.84775">
        <ele>561</ele>
        <time>2014-03-29T14:33:00Z</time>
      </trkpt>
      <trkpt lat="43.35878" lon="5.8478">
        <ele>560</ele>
        <time>2014-03-29T14:33:01Z</time>
      </trkpt>
      <trkpt lat="43.35875" lon="5.84783">
        <ele>560</ele>
        <time>2014-03-29T14:33:02Z</time>
      </trkpt>
      <trkpt lat="43.35871" lon="5.84786">
        <ele>560</ele>
        <time>2014-03-29T14:33:03Z</time>
      </trkpt>
      <trkpt lat="43.35867" lon="5.84788">
        <ele>559</ele>
        <time>2014-03-29T14:33:04Z</time>
      </trkpt>
      <trkpt lat="43.35864" lon="5.84788">
        <ele>559</ele>
        <time>2014-03-29T14:33:05Z</time>
      </trkpt>
      <trkpt lat="43.35861" lon="5.84789">
        <ele>559</ele>
        <time>2014-03-29T14:33:06Z</time>
      </trkpt>
      <trkpt lat="43.35859" lon="5.84791">
        <ele>559</ele>
        <time>2014-03-29T14:33:07Z</time>
      </trkpt>
      <trkpt lat="43.35855" lon="5.84794">
        <ele>558</ele>
        <time>2014-03-29T14:33:08Z</time>
      </trkpt>
      <trkpt lat="43.35852" lon="5.84796">
        <ele>558</ele>
        <time>2014-03-29T14:33:09Z</time>
      </trkpt>
      <trkpt lat="43.35849" lon="5.84797">
        <ele>557</ele>
        <time>2014-03-29T14:33:10Z</time>
      </trkpt>
      <trkpt lat="43.35841" lon="5.848">
        <ele>556</ele>
        <time>2014-03-29T14:33:12Z</time>
      </trkpt>
      <trkpt lat="43.35838" lon="5.84803">
        <ele>556</ele>
        <time>2014-03-29T14:33:13Z</time>
      </trkpt>
      <trkpt lat="43.35834" lon="5.84807">
        <ele>555</ele>
        <time>2014-03-29T14:33:14Z</time>
      </trkpt>
      <trkpt lat="43.35831" lon="5.84811">
        <ele>554</ele>
        <time>2014-03-29T14:33:15Z</time>
      </trkpt>
      <trkpt lat="43.3583" lon="5.84818">
        <ele>553</ele>
        <time>2014-03-29T14:33:16Z</time>
      </trkpt>
      <trkpt lat="43.3583" lon="5.84826">
        <ele>552</ele>
        <time>2014-03-29T14:33:17Z</time>
      </trkpt>
      <trkpt lat="43.3583" lon="5.84833">
        <ele>552</ele>
        <time>2014-03-29T14:33:18Z</time>
      </trkpt>
      <trkpt lat="43.35832" lon="5.84841">
        <ele>551</ele>
        <time>2014-03-29T14:33:19Z</time>
      </trkpt>
      <trkpt lat="43.35836" lon="5.84858">
        <ele>549</ele>
        <time>2014-03-29T14:33:21Z</time>
      </trkpt>
      <trkpt lat="43.35837" lon="5.84864">
        <ele>548</ele>
        <time>2014-03-29T14:33:22Z</time>
      </trkpt>
      <trkpt lat="43.35839" lon="5.84869">
        <ele>548</ele>
        <time>2014-03-29T14:33:23Z</time>
      </trkpt>
      <trkpt lat="43.3584" lon="5.84874">
        <ele>547</ele>
        <time>2014-03-29T14:33:24Z</time>
      </trkpt>
      <trkpt lat="43.3584" lon="5.84879">
        <ele>546</ele>
        <time>2014-03-29T14:33:25Z</time>
      </trkpt>
      <trkpt lat="43.35839" lon="5.84883">
        <ele>546</ele>
        <time>2014-03-29T14:33:26Z</time>
      </trkpt>
      <trkpt lat="43.35833" lon="5.84889">
        <ele>545</ele>
        <time>2014-03-29T14:33:28Z</time>
      </trkpt>
      <trkpt lat="43.35825" lon="5.8489">
        <ele>545</ele>
        <time>2014-03-29T14:33:30Z</time>
      </trkpt>
      <trkpt lat="43.35822" lon="5.84892">
        <ele>544</ele>
        <time>2014-03-29T14:33:31Z</time>
      </trkpt>
      <trkpt lat="43.35814" lon="5.84893">
        <ele>544</ele>
        <time>2014-03-29T14:33:33Z</time>
      </trkpt>
      <trkpt lat="43.35812" lon="5.84893">
        <ele>544</ele>
        <time>2014-03-29T14:33:34Z</time>
      </trkpt>
      <trkpt lat="43.35805" lon="5.84891">
        <ele>544</ele>
        <time>2014-03-29T14:33:39Z</time>
      </trkpt>
      <trkpt lat="43.35804" lon="5.8489">
        <ele>544</ele>
        <time>2014-03-29T14:33:40Z</time>
      </trkpt>
      <trkpt lat="43.35799" lon="5.84888">
        <ele>545</ele>
        <time>2014-03-29T14:33:43Z</time>
      </trkpt>
      <trkpt lat="43.35794" lon="5.84889">
        <ele>545</ele>
        <time>2014-03-29T14:33:45Z</time>
      </trkpt>
      <trkpt lat="43.35793" lon="5.84891">
        <ele>545</ele>
        <time>2014-03-29T14:33:47Z</time>
      </trkpt>
      <trkpt lat="43.3579" lon="5.84897">
        <ele>545</ele>
        <time>2014-03-29T14:33:51Z</time>
      </trkpt>
      <trkpt lat="43.35788" lon="5.84903">
        <ele>544</ele>
        <time>2014-03-29T14:33:54Z</time>
      </trkpt>
      <trkpt lat="43.35785" lon="5.84911">
        <ele>544</ele>
        <time>2014-03-29T14:33:59Z</time>
      </trkpt>
      <trkpt lat="43.35782" lon="5.84925">
        <ele>543</ele>
        <time>2014-03-29T14:34:04Z</time>
      </trkpt>
      <trkpt lat="43.35782" lon="5.84932">
        <ele>543</ele>
        <time>2014-03-29T14:34:06Z</time>
      </trkpt>
      <trkpt lat="43.35782" lon="5.84935">
        <ele>543</ele>
        <time>2014-03-29T14:34:07Z</time>
      </trkpt>
      <trkpt lat="43.35782" lon="5.84941">
        <ele>543</ele>
        <time>2014-03-29T14:34:08Z</time>
      </trkpt>
      <trkpt lat="43.3578" lon="5.84945">
        <ele>543</ele>
        <time>2014-03-29T14:34:09Z</time>
      </trkpt>
      <trkpt lat="43.35778" lon="5.84951">
        <ele>543</ele>
        <time>2014-03-29T14:34:10Z</time>
      </trkpt>
      <trkpt lat="43.35777" lon="5.84956">
        <ele>544</ele>
        <time>2014-03-29T14:34:11Z</time>
      </trkpt>
      <trkpt lat="43.35778" lon="5.8496">
        <ele>544</ele>
        <time>2014-03-29T14:34:12Z</time>
      </trkpt>
      <trkpt lat="43.35779" lon="5.84968">
        <ele>544</ele>
        <time>2014-03-29T14:34:14Z</time>
      </trkpt>
      <trkpt lat="43.35778" lon="5.84973">
        <ele>545</ele>
        <time>2014-03-29T14:34:15Z</time>
      </trkpt>
      <trkpt lat="43.35778" lon="5.84978">
        <ele>545</ele>
        <time>2014-03-29T14:34:17Z</time>
      </trkpt>
      <trkpt lat="43.35778" lon="5.84978">
        <ele>545</ele>
        <time>2014-03-29T14:34:21Z</time>
      </trkpt>
      <trkpt lat="43.35778" lon="5.84982">
        <ele>546</ele>
        <time>2014-03-29T14:34:26Z</time>
      </trkpt>
      <trkpt lat="43.35785" lon="5.84993">
        <ele>545</ele>
        <time>2014-03-29T14:34:31Z</time>
      </trkpt>
      <trkpt lat="43.35785" lon="5.84993">
        <ele>545</ele>
        <time>2014-03-29T14:34:35Z</time>
      </trkpt>
      <trkpt lat="43.35785" lon="5.84995">
        <ele>545</ele>
        <time>2014-03-29T14:34:42Z</time>
      </trkpt>
      <trkpt lat="43.35785" lon="5.84995">
        <ele>545</ele>
        <time>2014-03-29T14:34:43Z</time>
      </trkpt>
      <trkpt lat="43.35785" lon="5.84995">
        <ele>545</ele>
        <time>2014-03-29T14:34:45Z</time>
      </trkpt>
      <trkpt lat="43.35785" lon="5.84995">
        <ele>545</ele>
        <time>2014-03-29T14:34:54Z</time>
      </trkpt>
      <trkpt lat="43.3579" lon="5.85004">
        <ele>544</ele>
        <time>2014-03-29T14:34:58Z</time>
      </trkpt>
      <trkpt lat="43.35795" lon="5.8501">
        <ele>542</ele>
        <time>2014-03-29T14:35:01Z</time>
      </trkpt>
      <trkpt lat="43.35795" lon="5.8501">
        <ele>542</ele>
        <time>2014-03-29T14:35:03Z</time>
      </trkpt>
      <trkpt lat="43.35795" lon="5.8501">
        <ele>542</ele>
        <time>2014-03-29T14:35:15Z</time>
      </trkpt>
      <trkpt lat="43.35797" lon="5.85012">
        <ele>542</ele>
        <time>2014-03-29T14:35:19Z</time>
      </trkpt>
      <trkpt lat="43.358" lon="5.85015">
        <ele>541</ele>
        <time>2014-03-29T14:35:28Z</time>
      </trkpt>
      <trkpt lat="43.3581" lon="5.85028">
        <ele>539</ele>
        <time>2014-03-29T14:35:34Z</time>
      </trkpt>
      <trkpt lat="43.35814" lon="5.85036">
        <ele>538</ele>
        <time>2014-03-29T14:35:36Z</time>
      </trkpt>
      <trkpt lat="43.35816" lon="5.85038">
        <ele>538</ele>
        <time>2014-03-29T14:35:37Z</time>
      </trkpt>
      <trkpt lat="43.3582" lon="5.85045">
        <ele>538</ele>
        <time>2014-03-29T14:35:39Z</time>
      </trkpt>
      <trkpt lat="43.35825" lon="5.85057">
        <ele>537</ele>
        <time>2014-03-29T14:35:41Z</time>
      </trkpt>
      <trkpt lat="43.35829" lon="5.85064">
        <ele>536</ele>
        <time>2014-03-29T14:35:42Z</time>
      </trkpt>
      <trkpt lat="43.35831" lon="5.85069">
        <ele>536</ele>
        <time>2014-03-29T14:35:43Z</time>
      </trkpt>
      <trkpt lat="43.35833" lon="5.85075">
        <ele>535</ele>
        <time>2014-03-29T14:35:44Z</time>
      </trkpt>
      <trkpt lat="43.3584" lon="5.85085">
        <ele>534</ele>
        <time>2014-03-29T14:35:46Z</time>
      </trkpt>
      <trkpt lat="43.35847" lon="5.85093">
        <ele>532</ele>
        <time>2014-03-29T14:35:48Z</time>
      </trkpt>
      <trkpt lat="43.35855" lon="5.85108">
        <ele>529</ele>
        <time>2014-03-29T14:35:51Z</time>
      </trkpt>
      <trkpt lat="43.35859" lon="5.85124">
        <ele>526</ele>
        <time>2014-03-29T14:35:54Z</time>
      </trkpt>
      <trkpt lat="43.3586" lon="5.85135">
        <ele>525</ele>
        <time>2014-03-29T14:35:56Z</time>
      </trkpt>
      <trkpt lat="43.35863" lon="5.85147">
        <ele>524</ele>
        <time>2014-03-29T14:35:58Z</time>
      </trkpt>
      <trkpt lat="43.35863" lon="5.85154">
        <ele>524</ele>
        <time>2014-03-29T14:35:59Z</time>
      </trkpt>
      <trkpt lat="43.35862" lon="5.85162">
        <ele>524</ele>
        <time>2014-03-29T14:36:00Z</time>
      </trkpt>
      <trkpt lat="43.35869" lon="5.85184">
        <ele>523</ele>
        <time>2014-03-29T14:36:03Z</time>
      </trkpt>
      <trkpt lat="43.35869" lon="5.85187">
        <ele>523</ele>
        <time>2014-03-29T14:36:04Z</time>
      </trkpt>
      <trkpt lat="43.35868" lon="5.85196">
        <ele>523</ele>
        <time>2014-03-29T14:36:06Z</time>
      </trkpt>
      <trkpt lat="43.35867" lon="5.85203">
        <ele>524</ele>
        <time>2014-03-29T14:36:07Z</time>
      </trkpt>
      <trkpt lat="43.35867" lon="5.85207">
        <ele>524</ele>
        <time>2014-03-29T14:36:08Z</time>
      </trkpt>
      <trkpt lat="43.3587" lon="5.85213">
        <ele>524</ele>
        <time>2014-03-29T14:36:09Z</time>
      </trkpt>
      <trkpt lat="43.35872" lon="5.85221">
        <ele>524</ele>
        <time>2014-03-29T14:36:10Z</time>
      </trkpt>
      <trkpt lat="43.35873" lon="5.85227">
        <ele>523</ele>
        <time>2014-03-29T14:36:11Z</time>
      </trkpt>
      <trkpt lat="43.35873" lon="5.85232">
        <ele>524</ele>
        <time>2014-03-29T14:36:12Z</time>
      </trkpt>
      <trkpt lat="43.35873" lon="5.85237">
        <ele>524</ele>
        <time>2014-03-29T14:36:14Z</time>
      </trkpt>
      <trkpt lat="43.35876" lon="5.85242">
        <ele>523</ele>
        <time>2014-03-29T14:36:16Z</time>
      </trkpt>
      <trkpt lat="43.35878" lon="5.85249">
        <ele>523</ele>
        <time>2014-03-29T14:36:18Z</time>
      </trkpt>
      <trkpt lat="43.3588" lon="5.85257">
        <ele>522</ele>
        <time>2014-03-29T14:36:19Z</time>
      </trkpt>
      <trkpt lat="43.3588" lon="5.85277">
        <ele>522</ele>
        <time>2014-03-29T14:36:23Z</time>
      </trkpt>
      <trkpt lat="43.35881" lon="5.85285">
        <ele>521</ele>
        <time>2014-03-29T14:36:24Z</time>
      </trkpt>
      <trkpt lat="43.35885" lon="5.85294">
        <ele>520</ele>
        <time>2014-03-29T14:36:25Z</time>
      </trkpt>
      <trkpt lat="43.35889" lon="5.85302">
        <ele>518</ele>
        <time>2014-03-29T14:36:26Z</time>
      </trkpt>
      <trkpt lat="43.35892" lon="5.85312">
        <ele>517</ele>
        <time>2014-03-29T14:36:27Z</time>
      </trkpt>
      <trkpt lat="43.35899" lon="5.85325">
        <ele>515</ele>
        <time>2014-03-29T14:36:29Z</time>
      </trkpt>
      <trkpt lat="43.35905" lon="5.85338">
        <ele>513</ele>
        <time>2014-03-29T14:36:31Z</time>
      </trkpt>
      <trkpt lat="43.35909" lon="5.85345">
        <ele>511</ele>
        <time>2014-03-29T14:36:32Z</time>
      </trkpt>
      <trkpt lat="43.35912" lon="5.8535">
        <ele>510</ele>
        <time>2014-03-29T14:36:33Z</time>
      </trkpt>
      <trkpt lat="43.35915" lon="5.85354">
        <ele>510</ele>
        <time>2014-03-29T14:36:34Z</time>
      </trkpt>
      <trkpt lat="43.35921" lon="5.85361">
        <ele>508</ele>
        <time>2014-03-29T14:36:36Z</time>
      </trkpt>
      <trkpt lat="43.35922" lon="5.85365">
        <ele>508</ele>
        <time>2014-03-29T14:36:37Z</time>
      </trkpt>
      <trkpt lat="43.35924" lon="5.85372">
        <ele>507</ele>
        <time>2014-03-29T14:36:38Z</time>
      </trkpt>
      <trkpt lat="43.35926" lon="5.85378">
        <ele>506</ele>
        <time>2014-03-29T14:36:39Z</time>
      </trkpt>
      <trkpt lat="43.35929" lon="5.85384">
        <ele>505</ele>
        <time>2014-03-29T14:36:40Z</time>
      </trkpt>
      <trkpt lat="43.35934" lon="5.85395">
        <ele>503</ele>
        <time>2014-03-29T14:36:42Z</time>
      </trkpt>
      <trkpt lat="43.35936" lon="5.85401">
        <ele>503</ele>
        <time>2014-03-29T14:36:43Z</time>
      </trkpt>
      <trkpt lat="43.35939" lon="5.85406">
        <ele>502</ele>
        <time>2014-03-29T14:36:44Z</time>
      </trkpt>
      <trkpt lat="43.35943" lon="5.85411">
        <ele>501</ele>
        <time>2014-03-29T14:36:45Z</time>
      </trkpt>
      <trkpt lat="43.35947" lon="5.85418">
        <ele>500</ele>
        <time>2014-03-29T14:36:46Z</time>
      </trkpt>
      <trkpt lat="43.35963" lon="5.85443">
        <ele>497</ele>
        <time>2014-03-29T14:36:50Z</time>
      </trkpt>
      <trkpt lat="43.35968" lon="5.85463">
        <ele>494</ele>
        <time>2014-03-29T14:36:53Z</time>
      </trkpt>
      <trkpt lat="43.35972" lon="5.85473">
        <ele>493</ele>
        <time>2014-03-29T14:36:55Z</time>
      </trkpt>
      <trkpt lat="43.35973" lon="5.85478">
        <ele>493</ele>
        <time>2014-03-29T14:36:56Z</time>
      </trkpt>
      <trkpt lat="43.35975" lon="5.8548">
        <ele>492</ele>
        <time>2014-03-29T14:36:57Z</time>
      </trkpt>
      <trkpt lat="43.35984" lon="5.85506">
        <ele>490</ele>
        <time>2014-03-29T14:37:03Z</time>
      </trkpt>
      <trkpt lat="43.35991" lon="5.85516">
        <ele>489</ele>
        <time>2014-03-29T14:37:04Z</time>
      </trkpt>
      <trkpt lat="43.35995" lon="5.85523">
        <ele>488</ele>
        <time>2014-03-29T14:37:05Z</time>
      </trkpt>
      <trkpt lat="43.35998" lon="5.85528">
        <ele>487</ele>
        <time>2014-03-29T14:37:06Z</time>
      </trkpt>
      <trkpt lat="43.36001" lon="5.85548">
        <ele>485</ele>
        <time>2014-03-29T14:37:09Z</time>
      </trkpt>
      <trkpt lat="43.36003" lon="5.85551">
        <ele>484</ele>
        <time>2014-03-29T14:37:10Z</time>
      </trkpt>
      <trkpt lat="43.36005" lon="5.85556">
        <ele>483</ele>
        <time>2014-03-29T14:37:11Z</time>
      </trkpt>
      <trkpt lat="43.36004" lon="5.85562">
        <ele>483</ele>
        <time>2014-03-29T14:37:12Z</time>
      </trkpt>
      <trkpt lat="43.36005" lon="5.85579">
        <ele>483</ele>
        <time>2014-03-29T14:37:15Z</time>
      </trkpt>
      <trkpt lat="43.36005" lon="5.85586">
        <ele>482</ele>
        <time>2014-03-29T14:37:16Z</time>
      </trkpt>
      <trkpt lat="43.36005" lon="5.85593">
        <ele>482</ele>
        <time>2014-03-29T14:37:17Z</time>
      </trkpt>
      <trkpt lat="43.36005" lon="5.85599">
        <ele>481</ele>
        <time>2014-03-29T14:37:18Z</time>
      </trkpt>
      <trkpt lat="43.36004" lon="5.85604">
        <ele>480</ele>
        <time>2014-03-29T14:37:19Z</time>
      </trkpt>
      <trkpt lat="43.36003" lon="5.85611">
        <ele>480</ele>
        <time>2014-03-29T14:37:20Z</time>
      </trkpt>
      <trkpt lat="43.36001" lon="5.85617">
        <ele>480</ele>
        <time>2014-03-29T14:37:21Z</time>
      </trkpt>
      <trkpt lat="43.35996" lon="5.8564">
        <ele>481</ele>
        <time>2014-03-29T14:37:26Z</time>
      </trkpt>
      <trkpt lat="43.35996" lon="5.85649">
        <ele>480</ele>
        <time>2014-03-29T14:37:27Z</time>
      </trkpt>
      <trkpt lat="43.35994" lon="5.8567">
        <ele>480</ele>
        <time>2014-03-29T14:37:30Z</time>
      </trkpt>
      <trkpt lat="43.35993" lon="5.85697">
        <ele>479</ele>
        <time>2014-03-29T14:37:34Z</time>
      </trkpt>
      <trkpt lat="43.35994" lon="5.85701">
        <ele>479</ele>
        <time>2014-03-29T14:37:35Z</time>
      </trkpt>
      <trkpt lat="43.35997" lon="5.85704">
        <ele>478</ele>
        <time>2014-03-29T14:37:36Z</time>
      </trkpt>
      <trkpt lat="43.36002" lon="5.85709">
        <ele>478</ele>
        <time>2014-03-29T14:37:38Z</time>
      </trkpt>
      <trkpt lat="43.36005" lon="5.85713">
        <ele>477</ele>
        <time>2014-03-29T14:37:39Z</time>
      </trkpt>
      <trkpt lat="43.36008" lon="5.85717">
        <ele>477</ele>
        <time>2014-03-29T14:37:40Z</time>
      </trkpt>
      <trkpt lat="43.36012" lon="5.85728">
        <ele>476</ele>
        <time>2014-03-29T14:37:42Z</time>
      </trkpt>
      <trkpt lat="43.36013" lon="5.8574">
        <ele>475</ele>
        <time>2014-03-29T14:37:44Z</time>
      </trkpt>
      <trkpt lat="43.36014" lon="5.85746">
        <ele>475</ele>
        <time>2014-03-29T14:37:45Z</time>
      </trkpt>
      <trkpt lat="43.36015" lon="5.85753">
        <ele>474</ele>
        <time>2014-03-29T14:37:46Z</time>
      </trkpt>
      <trkpt lat="43.36016" lon="5.8576">
        <ele>474</ele>
        <time>2014-03-29T14:37:47Z</time>
      </trkpt>
      <trkpt lat="43.36016" lon="5.85768">
        <ele>474</ele>
        <time>2014-03-29T14:37:48Z</time>
      </trkpt>
      <trkpt lat="43.36019" lon="5.85789">
        <ele>473</ele>
        <time>2014-03-29T14:37:51Z</time>
      </trkpt>
      <trkpt lat="43.3602" lon="5.85795">
        <ele>472</ele>
        <time>2014-03-29T14:37:52Z</time>
      </trkpt>
      <trkpt lat="43.3602" lon="5.858">
        <ele>472</ele>
        <time>2014-03-29T14:37:53Z</time>
      </trkpt>
      <trkpt lat="43.3602" lon="5.85803">
        <ele>472</ele>
        <time>2014-03-29T14:37:54Z</time>
      </trkpt>
      <trkpt lat="43.36019" lon="5.85805">
        <ele>472</ele>
        <time>2014-03-29T14:37:55Z</time>
      </trkpt>
      <trkpt lat="43.36018" lon="5.85808">
        <ele>472</ele>
        <time>2014-03-29T14:37:56Z</time>
      </trkpt>
      <trkpt lat="43.36018" lon="5.85818">
        <ele>472</ele>
        <time>2014-03-29T14:38:00Z</time>
      </trkpt>
      <trkpt lat="43.36018" lon="5.85821">
        <ele>472</ele>
        <time>2014-03-29T14:38:01Z</time>
      </trkpt>
      <trkpt lat="43.36018" lon="5.85832">
        <ele>471</ele>
        <time>2014-03-29T14:38:05Z</time>
      </trkpt>
      <trkpt lat="43.36018" lon="5.85835">
        <ele>471</ele>
        <time>2014-03-29T14:38:06Z</time>
      </trkpt>
      <trkpt lat="43.36021" lon="5.85847">
        <ele>470</ele>
        <time>2014-03-29T14:38:09Z</time>
      </trkpt>
      <trkpt lat="43.36032" lon="5.85868">
        <ele>468</ele>
        <time>2014-03-29T14:38:14Z</time>
      </trkpt>
      <trkpt lat="43.36035" lon="5.85882">
        <ele>467</ele>
        <time>2014-03-29T14:38:17Z</time>
      </trkpt>
      <trkpt lat="43.36036" lon="5.85887">
        <ele>467</ele>
        <time>2014-03-29T14:38:18Z</time>
      </trkpt>
      <trkpt lat="43.3604" lon="5.85904">
        <ele>466</ele>
        <time>2014-03-29T14:38:22Z</time>
      </trkpt>
      <trkpt lat="43.36043" lon="5.85924">
        <ele>465</ele>
        <time>2014-03-29T14:38:26Z</time>
      </trkpt>
      <trkpt lat="43.36044" lon="5.85929">
        <ele>464</ele>
        <time>2014-03-29T14:38:28Z</time>
      </trkpt>
      <trkpt lat="43.36047" lon="5.85938">
        <ele>463</ele>
        <time>2014-03-29T14:38:30Z</time>
      </trkpt>
      <trkpt lat="43.36049" lon="5.8595">
        <ele>463</ele>
        <time>2014-03-29T14:38:32Z</time>
      </trkpt>
      <trkpt lat="43.3605" lon="5.85957">
        <ele>462</ele>
        <time>2014-03-29T14:38:33Z</time>
      </trkpt>
      <trkpt lat="43.36052" lon="5.8597">
        <ele>462</ele>
        <time>2014-03-29T14:38:35Z</time>
      </trkpt>
      <trkpt lat="43.36058" lon="5.85995">
        <ele>460</ele>
        <time>2014-03-29T14:38:40Z</time>
      </trkpt>
      <trkpt lat="43.36058" lon="5.86003">
        <ele>460</ele>
        <time>2014-03-29T14:38:42Z</time>
      </trkpt>
      <trkpt lat="43.36061" lon="5.86012">
        <ele>460</ele>
        <time>2014-03-29T14:38:45Z</time>
      </trkpt>
      <trkpt lat="43.36062" lon="5.86015">
        <ele>460</ele>
        <time>2014-03-29T14:38:46Z</time>
      </trkpt>
      <trkpt lat="43.3606" lon="5.86024">
        <ele>459</ele>
        <time>2014-03-29T14:38:48Z</time>
      </trkpt>
      <trkpt lat="43.36057" lon="5.86029">
        <ele>459</ele>
        <time>2014-03-29T14:38:49Z</time>
      </trkpt>
      <trkpt lat="43.36055" lon="5.86035">
        <ele>459</ele>
        <time>2014-03-29T14:38:50Z</time>
      </trkpt>
      <trkpt lat="43.36049" lon="5.86047">
        <ele>460</ele>
        <time>2014-03-29T14:38:52Z</time>
      </trkpt>
      <trkpt lat="43.36047" lon="5.86052">
        <ele>460</ele>
        <time>2014-03-29T14:38:53Z</time>
      </trkpt>
      <trkpt lat="43.36045" lon="5.86063">
        <ele>459</ele>
        <time>2014-03-29T14:38:55Z</time>
      </trkpt>
      <trkpt lat="43.36045" lon="5.86069">
        <ele>459</ele>
        <time>2014-03-29T14:38:56Z</time>
      </trkpt>
      <trkpt lat="43.36044" lon="5.86075">
        <ele>459</ele>
        <time>2014-03-29T14:38:57Z</time>
      </trkpt>
      <trkpt lat="43.36043" lon="5.86081">
        <ele>459</ele>
        <time>2014-03-29T14:38:58Z</time>
      </trkpt>
      <trkpt lat="43.36042" lon="5.86093">
        <ele>459</ele>
        <time>2014-03-29T14:39:00Z</time>
      </trkpt>
      <trkpt lat="43.36048" lon="5.86119">
        <ele>458</ele>
        <time>2014-03-29T14:39:04Z</time>
      </trkpt>
      <trkpt lat="43.36051" lon="5.86126">
        <ele>457</ele>
        <time>2014-03-29T14:39:05Z</time>
      </trkpt>
      <trkpt lat="43.36054" lon="5.86132">
        <ele>456</ele>
        <time>2014-03-29T14:39:06Z</time>
      </trkpt>
      <trkpt lat="43.36066" lon="5.86156">
        <ele>456</ele>
        <time>2014-03-29T14:39:11Z</time>
      </trkpt>
      <trkpt lat="43.36068" lon="5.86162">
        <ele>456</ele>
        <time>2014-03-29T14:39:12Z</time>
      </trkpt>
      <trkpt lat="43.36069" lon="5.86167">
        <ele>455</ele>
        <time>2014-03-29T14:39:13Z</time>
      </trkpt>
      <trkpt lat="43.36071" lon="5.86178">
        <ele>455</ele>
        <time>2014-03-29T14:39:15Z</time>
      </trkpt>
      <trkpt lat="43.36072" lon="5.86188">
        <ele>455</ele>
        <time>2014-03-29T14:39:17Z</time>
      </trkpt>
      <trkpt lat="43.36073" lon="5.862">
        <ele>455</ele>
        <time>2014-03-29T14:39:19Z</time>
      </trkpt>
      <trkpt lat="43.36073" lon="5.86216">
        <ele>454</ele>
        <time>2014-03-29T14:39:21Z</time>
      </trkpt>
      <trkpt lat="43.36073" lon="5.86225">
        <ele>454</ele>
        <time>2014-03-29T14:39:22Z</time>
      </trkpt>
      <trkpt lat="43.36072" lon="5.86232">
        <ele>454</ele>
        <time>2014-03-29T14:39:23Z</time>
      </trkpt>
      <trkpt lat="43.36071" lon="5.8624">
        <ele>453</ele>
        <time>2014-03-29T14:39:24Z</time>
      </trkpt>
      <trkpt lat="43.36071" lon="5.86248">
        <ele>453</ele>
        <time>2014-03-29T14:39:25Z</time>
      </trkpt>
      <trkpt lat="43.36069" lon="5.86255">
        <ele>452</ele>
        <time>2014-03-29T14:39:26Z</time>
      </trkpt>
      <trkpt lat="43.36067" lon="5.86262">
        <ele>452</ele>
        <time>2014-03-29T14:39:27Z</time>
      </trkpt>
      <trkpt lat="43.3606" lon="5.86284">
        <ele>452</ele>
        <time>2014-03-29T14:39:30Z</time>
      </trkpt>
      <trkpt lat="43.36059" lon="5.86298">
        <ele>451</ele>
        <time>2014-03-29T14:39:32Z</time>
      </trkpt>
      <trkpt lat="43.36058" lon="5.86301">
        <ele>451</ele>
        <time>2014-03-29T14:39:33Z</time>
      </trkpt>
      <trkpt lat="43.36056" lon="5.86303">
        <ele>451</ele>
        <time>2014-03-29T14:39:34Z</time>
      </trkpt>
      <trkpt lat="43.3605" lon="5.86308">
        <ele>451</ele>
        <time>2014-03-29T14:39:36Z</time>
      </trkpt>
      <trkpt lat="43.36047" lon="5.86312">
        <ele>452</ele>
        <time>2014-03-29T14:39:37Z</time>
      </trkpt>
      <trkpt lat="43.3604" lon="5.86322">
        <ele>452</ele>
        <time>2014-03-29T14:39:39Z</time>
      </trkpt>
      <trkpt lat="43.36027" lon="5.8634">
        <ele>452</ele>
        <time>2014-03-29T14:39:43Z</time>
      </trkpt>
      <trkpt lat="43.36024" lon="5.86346">
        <ele>452</ele>
        <time>2014-03-29T14:39:44Z</time>
      </trkpt>
      <trkpt lat="43.36016" lon="5.86362">
        <ele>452</ele>
        <time>2014-03-29T14:39:47Z</time>
      </trkpt>
      <trkpt lat="43.36007" lon="5.86377">
        <ele>451</ele>
        <time>2014-03-29T14:39:50Z</time>
      </trkpt>
      <trkpt lat="43.36002" lon="5.864">
        <ele>451</ele>
        <time>2014-03-29T14:39:54Z</time>
      </trkpt>
      <trkpt lat="43.36" lon="5.86411">
        <ele>450</ele>
        <time>2014-03-29T14:39:56Z</time>
      </trkpt>
      <trkpt lat="43.36" lon="5.86426">
        <ele>450</ele>
        <time>2014-03-29T14:39:59Z</time>
      </trkpt>
      <trkpt lat="43.36007" lon="5.86444">
        <ele>449</ele>
        <time>2014-03-29T14:40:02Z</time>
      </trkpt>
      <trkpt lat="43.36008" lon="5.8645">
        <ele>448</ele>
        <time>2014-03-29T14:40:03Z</time>
      </trkpt>
      <trkpt lat="43.36008" lon="5.86474">
        <ele>447</ele>
        <time>2014-03-29T14:40:07Z</time>
      </trkpt>
      <trkpt lat="43.36015" lon="5.86496">
        <ele>446</ele>
        <time>2014-03-29T14:40:11Z</time>
      </trkpt>
      <trkpt lat="43.36024" lon="5.86551">
        <ele>443</ele>
        <time>2014-03-29T14:40:19Z</time>
      </trkpt>
      <trkpt lat="43.36026" lon="5.86564">
        <ele>443</ele>
        <time>2014-03-29T14:40:21Z</time>
      </trkpt>
      <trkpt lat="43.36027" lon="5.86571">
        <ele>442</ele>
        <time>2014-03-29T14:40:22Z</time>
      </trkpt>
      <trkpt lat="43.36034" lon="5.86617">
        <ele>440</ele>
        <time>2014-03-29T14:40:29Z</time>
      </trkpt>
      <trkpt lat="43.36042" lon="5.86634">
        <ele>440</ele>
        <time>2014-03-29T14:40:32Z</time>
      </trkpt>
      <trkpt lat="43.36051" lon="5.86642">
        <ele>440</ele>
        <time>2014-03-29T14:40:35Z</time>
      </trkpt>
      <trkpt lat="43.36057" lon="5.86657">
        <ele>440</ele>
        <time>2014-03-29T14:40:38Z</time>
      </trkpt>
      <trkpt lat="43.36064" lon="5.8667">
        <ele>440</ele>
        <time>2014-03-29T14:40:41Z</time>
      </trkpt>
      <trkpt lat="43.36069" lon="5.86674">
        <ele>440</ele>
        <time>2014-03-29T14:40:43Z</time>
      </trkpt>
      <trkpt lat="43.36076" lon="5.86681">
        <ele>440</ele>
        <time>2014-03-29T14:40:45Z</time>
      </trkpt>
      <trkpt lat="43.36082" lon="5.86689">
        <ele>440</ele>
        <time>2014-03-29T14:40:47Z</time>
      </trkpt>
      <trkpt lat="43.36091" lon="5.86704">
        <ele>440</ele>
        <time>2014-03-29T14:40:51Z</time>
      </trkpt>
      <trkpt lat="43.36109" lon="5.86727">
        <ele>440</ele>
        <time>2014-03-29T14:40:57Z</time>
      </trkpt>
      <trkpt lat="43.36126" lon="5.86749">
        <ele>440</ele>
        <time>2014-03-29T14:41:03Z</time>
      </trkpt>
      <trkpt lat="43.36146" lon="5.86772">
        <ele>440</ele>
        <time>2014-03-29T14:41:10Z</time>
      </trkpt>
      <trkpt lat="43.36163" lon="5.86799">
        <ele>440</ele>
        <time>2014-03-29T14:41:17Z</time>
      </trkpt>
      <trkpt lat="43.36187" lon="5.86826">
        <ele>440</ele>
        <time>2014-03-29T14:41:26Z</time>
      </trkpt>
      <trkpt lat="43.36189" lon="5.86829">
        <ele>440</ele>
        <time>2014-03-29T14:41:27Z</time>
      </trkpt>
      <trkpt lat="43.36191" lon="5.86832">
        <ele>440</ele>
        <time>2014-03-29T14:41:28Z</time>
      </trkpt>
      <trkpt lat="43.36195" lon="5.86839">
        <ele>440</ele>
        <time>2014-03-29T14:41:30Z</time>
      </trkpt>
      <trkpt lat="43.36204" lon="5.86863">
        <ele>440</ele>
        <time>2014-03-29T14:41:36Z</time>
      </trkpt>
      <trkpt lat="43.36219" lon="5.86892">
        <ele>440</ele>
        <time>2014-03-29T14:41:43Z</time>
      </trkpt>
      <trkpt lat="43.3623" lon="5.86908">
        <ele>440</ele>
        <time>2014-03-29T14:41:47Z</time>
      </trkpt>
      <trkpt lat="43.36241" lon="5.86918">
        <ele>440</ele>
        <time>2014-03-29T14:41:50Z</time>
      </trkpt>
      <trkpt lat="43.36257" lon="5.86935">
        <ele>440</ele>
        <time>2014-03-29T14:41:55Z</time>
      </trkpt>
      <trkpt lat="43.36264" lon="5.86957">
        <ele>440</ele>
        <time>2014-03-29T14:41:59Z</time>
      </trkpt>
      <trkpt lat="43.36267" lon="5.86968">
        <ele>440</ele>
        <time>2014-03-29T14:42:01Z</time>
      </trkpt>
      <trkpt lat="43.36269" lon="5.86973">
        <ele>440</ele>
        <time>2014-03-29T14:42:02Z</time>
      </trkpt>
      <trkpt lat="43.36272" lon="5.86978">
        <ele>440</ele>
        <time>2014-03-29T14:42:03Z</time>
      </trkpt>
      <trkpt lat="43.36276" lon="5.86983">
        <ele>440</ele>
        <time>2014-03-29T14:42:04Z</time>
      </trkpt>
      <trkpt lat="43.36294" lon="5.87003">
        <ele>440</ele>
        <time>2014-03-29T14:42:09Z</time>
      </trkpt>
      <trkpt lat="43.36304" lon="5.87013">
        <ele>440</ele>
        <time>2014-03-29T14:42:12Z</time>
      </trkpt>
      <trkpt lat="43.3631" lon="5.87017">
        <ele>440</ele>
        <time>2014-03-29T14:42:14Z</time>
      </trkpt>
      <trkpt lat="43.36332" lon="5.87032">
        <ele>439</ele>
        <time>2014-03-29T14:42:19Z</time>
      </trkpt>
      <trkpt lat="43.36354" lon="5.87049">
        <ele>438</ele>
        <time>2014-03-29T14:42:24Z</time>
      </trkpt>
      <trkpt lat="43.36363" lon="5.87057">
        <ele>438</ele>
        <time>2014-03-29T14:42:26Z</time>
      </trkpt>
      <trkpt lat="43.36377" lon="5.87063">
        <ele>437</ele>
        <time>2014-03-29T14:42:29Z</time>
      </trkpt>
      <trkpt lat="43.36391" lon="5.87068">
        <ele>436</ele>
        <time>2014-03-29T14:42:32Z</time>
      </trkpt>
      <trkpt lat="43.36404" lon="5.87078">
        <ele>436</ele>
        <time>2014-03-29T14:42:35Z</time>
      </trkpt>
      <trkpt lat="43.36421" lon="5.87092">
        <ele>434</ele>
        <time>2014-03-29T14:42:39Z</time>
      </trkpt>
      <trkpt lat="43.36433" lon="5.87107">
        <ele>433</ele>
        <time>2014-03-29T14:42:42Z</time>
      </trkpt>
      <trkpt lat="43.36446" lon="5.87118">
        <ele>432</ele>
        <time>2014-03-29T14:42:45Z</time>
      </trkpt>
      <trkpt lat="43.36479" lon="5.87148">
        <ele>428</ele>
        <time>2014-03-29T14:42:53Z</time>
      </trkpt>
      <trkpt lat="43.36495" lon="5.87175">
        <ele>427</ele>
        <time>2014-03-29T14:42:59Z</time>
      </trkpt>
      <trkpt lat="43.36508" lon="5.87203">
        <ele>425</ele>
        <time>2014-03-29T14:43:05Z</time>
      </trkpt>
      <trkpt lat="43.36517" lon="5.87224">
        <ele>425</ele>
        <time>2014-03-29T14:43:10Z</time>
      </trkpt>
      <trkpt lat="43.3653" lon="5.87233">
        <ele>425</ele>
        <time>2014-03-29T14:43:15Z</time>
      </trkpt>
      <trkpt lat="43.36543" lon="5.87244">
        <ele>425</ele>
        <time>2014-03-29T14:43:20Z</time>
      </trkpt>
      <trkpt lat="43.36547" lon="5.87251">
        <ele>425</ele>
        <time>2014-03-29T14:43:22Z</time>
      </trkpt>
      <trkpt lat="43.36552" lon="5.87265">
        <ele>424</ele>
        <time>2014-03-29T14:43:25Z</time>
      </trkpt>
      <trkpt lat="43.36568" lon="5.87309">
        <ele>423</ele>
        <time>2014-03-29T14:43:36Z</time>
      </trkpt>
      <trkpt lat="43.36573" lon="5.8734">
        <ele>421</ele>
        <time>2014-03-29T14:43:42Z</time>
      </trkpt>
      <trkpt lat="43.36579" lon="5.87354">
        <ele>420</ele>
        <time>2014-03-29T14:43:45Z</time>
      </trkpt>
      <trkpt lat="43.36582" lon="5.87364">
        <ele>420</ele>
        <time>2014-03-29T14:43:47Z</time>
      </trkpt>
      <trkpt lat="43.36588" lon="5.87379">
        <ele>421</ele>
        <time>2014-03-29T14:43:50Z</time>
      </trkpt>
      <trkpt lat="43.3659" lon="5.87384">
        <ele>422</ele>
        <time>2014-03-29T14:43:51Z</time>
      </trkpt>
      <trkpt lat="43.36596" lon="5.87392">
        <ele>423</ele>
        <time>2014-03-29T14:43:53Z</time>
      </trkpt>
      <trkpt lat="43.36605" lon="5.87407">
        <ele>424</ele>
        <time>2014-03-29T14:43:58Z</time>
      </trkpt>
      <trkpt lat="43.36605" lon="5.87425">
        <ele>423</ele>
        <time>2014-03-29T14:44:03Z</time>
      </trkpt>
      <trkpt lat="43.36607" lon="5.87427">
        <ele>423</ele>
        <time>2014-03-29T14:44:04Z</time>
      </trkpt>
      <trkpt lat="43.36611" lon="5.8743">
        <ele>423</ele>
        <time>2014-03-29T14:44:06Z</time>
      </trkpt>
      <trkpt lat="43.36612" lon="5.87432">
        <ele>424</ele>
        <time>2014-03-29T14:44:07Z</time>
      </trkpt>
      <trkpt lat="43.36612" lon="5.87438">
        <ele>424</ele>
        <time>2014-03-29T14:44:10Z</time>
      </trkpt>
      <trkpt lat="43.36612" lon="5.87443">
        <ele>423</ele>
        <time>2014-03-29T14:44:12Z</time>
      </trkpt>
      <trkpt lat="43.36612" lon="5.87453">
        <ele>422</ele>
        <time>2014-03-29T14:44:15Z</time>
      </trkpt>
      <trkpt lat="43.36613" lon="5.87475">
        <ele>422</ele>
        <time>2014-03-29T14:44:20Z</time>
      </trkpt>
      <trkpt lat="43.36618" lon="5.87497">
        <ele>422</ele>
        <time>2014-03-29T14:44:25Z</time>
      </trkpt>
      <trkpt lat="43.36622" lon="5.87522">
        <ele>423</ele>
        <time>2014-03-29T14:44:30Z</time>
      </trkpt>
      <trkpt lat="43.36629" lon="5.87555">
        <ele>425</ele>
        <time>2014-03-29T14:44:36Z</time>
      </trkpt>
      <trkpt lat="43.36632" lon="5.87617">
        <ele>424</ele>
        <time>2014-03-29T14:44:48Z</time>
      </trkpt>
      <trkpt lat="43.36636" lon="5.8765">
        <ele>423</ele>
        <time>2014-03-29T14:44:54Z</time>
      </trkpt>
      <trkpt lat="43.3664" lon="5.8768">
        <ele>422</ele>
        <time>2014-03-29T14:44:59Z</time>
      </trkpt>
      <trkpt lat="43.36639" lon="5.87692">
        <ele>422</ele>
        <time>2014-03-29T14:45:01Z</time>
      </trkpt>
      <trkpt lat="43.36633" lon="5.87708">
        <ele>421</ele>
        <time>2014-03-29T14:45:04Z</time>
      </trkpt>
      <trkpt lat="43.3663" lon="5.87719">
        <ele>421</ele>
        <time>2014-03-29T14:45:06Z</time>
      </trkpt>
      <trkpt lat="43.36627" lon="5.87738">
        <ele>420</ele>
        <time>2014-03-29T14:45:09Z</time>
      </trkpt>
      <trkpt lat="43.36626" lon="5.87744">
        <ele>420</ele>
        <time>2014-03-29T14:45:10Z</time>
      </trkpt>
      <trkpt lat="43.36623" lon="5.87767">
        <ele>420</ele>
        <time>2014-03-29T14:45:14Z</time>
      </trkpt>
      <trkpt lat="43.36617" lon="5.87782">
        <ele>419</ele>
        <time>2014-03-29T14:45:17Z</time>
      </trkpt>
      <trkpt lat="43.36615" lon="5.87786">
        <ele>419</ele>
        <time>2014-03-29T14:45:18Z</time>
      </trkpt>
      <trkpt lat="43.36613" lon="5.87789">
        <ele>419</ele>
        <time>2014-03-29T14:45:19Z</time>
      </trkpt>
      <trkpt lat="43.36607" lon="5.87791">
        <ele>418</ele>
        <time>2014-03-29T14:45:23Z</time>
      </trkpt>
      <trkpt lat="43.36605" lon="5.87791">
        <ele>418</ele>
        <time>2014-03-29T14:45:25Z</time>
      </trkpt>
      <trkpt lat="43.366" lon="5.87786">
        <ele>417</ele>
        <time>2014-03-29T14:45:28Z</time>
      </trkpt>
      <trkpt lat="43.3659" lon="5.87786">
        <ele>416</ele>
        <time>2014-03-29T14:45:34Z</time>
      </trkpt>
      <trkpt lat="43.36583" lon="5.87789">
        <ele>415</ele>
        <time>2014-03-29T14:45:38Z</time>
      </trkpt>
      <trkpt lat="43.36582" lon="5.87789">
        <ele>415</ele>
        <time>2014-03-29T14:45:39Z</time>
      </trkpt>
      <trkpt lat="43.36579" lon="5.87787">
        <ele>415</ele>
        <time>2014-03-29T14:45:42Z</time>
      </trkpt>
      <trkpt lat="43.36576" lon="5.87793">
        <ele>415</ele>
        <time>2014-03-29T14:45:46Z</time>
      </trkpt>
      <trkpt lat="43.36581" lon="5.87791">
        <ele>415</ele>
        <time>2014-03-29T14:45:49Z</time>
      </trkpt>
      <trkpt lat="43.36583" lon="5.87789">
        <ele>415</ele>
        <time>2014-03-29T14:45:54Z</time>
      </trkpt>
      <trkpt lat="43.36583" lon="5.87789">
        <ele>415</ele>
        <time>2014-03-29T14:46:04Z</time>
      </trkpt>
      <trkpt lat="43.36583" lon="5.87789">
        <ele>415</ele>
        <time>2014-03-29T14:46:20Z</time>
      </trkpt>
      <trkpt lat="43.36583" lon="5.87789">
        <ele>415</ele>
        <time>2014-03-29T14:46:25Z</time>
      </trkpt>
      <trkpt lat="43.36588" lon="5.87787">
        <ele>416</ele>
        <time>2014-03-29T14:46:28Z</time>
      </trkpt>
      <trkpt lat="43.36594" lon="5.87787">
        <ele>416</ele>
        <time>2014-03-29T14:46:31Z</time>
      </trkpt>
      <trkpt lat="43.36599" lon="5.87788">
        <ele>417</ele>
        <time>2014-03-29T14:46:33Z</time>
      </trkpt>
      <trkpt lat="43.36601" lon="5.87789">
        <ele>417</ele>
        <time>2014-03-29T14:46:34Z</time>
      </trkpt>
      <trkpt lat="43.36613" lon="5.87796">
        <ele>419</ele>
        <time>2014-03-29T14:46:39Z</time>
      </trkpt>
      <trkpt lat="43.36616" lon="5.87808">
        <ele>419</ele>
        <time>2014-03-29T14:46:42Z</time>
      </trkpt>
      <trkpt lat="43.36618" lon="5.8782">
        <ele>419</ele>
        <time>2014-03-29T14:46:45Z</time>
      </trkpt>
      <trkpt lat="43.36619" lon="5.87835">
        <ele>419</ele>
        <time>2014-03-29T14:46:49Z</time>
      </trkpt>
      <trkpt lat="43.3662" lon="5.87865">
        <ele>418</ele>
        <time>2014-03-29T14:46:56Z</time>
      </trkpt>
      <trkpt lat="43.36626" lon="5.8789">
        <ele>419</ele>
        <time>2014-03-29T14:47:02Z</time>
      </trkpt>
      <trkpt lat="43.36634" lon="5.87907">
        <ele>419</ele>
        <time>2014-03-29T14:47:07Z</time>
      </trkpt>
      <trkpt lat="43.36636" lon="5.87926">
        <ele>419</ele>
        <time>2014-03-29T14:47:11Z</time>
      </trkpt>
      <trkpt lat="43.36633" lon="5.87951">
        <ele>418</ele>
        <time>2014-03-29T14:47:16Z</time>
      </trkpt>
      <trkpt lat="43.36634" lon="5.87956">
        <ele>418</ele>
        <time>2014-03-29T14:47:17Z</time>
      </trkpt>
      <trkpt lat="43.36641" lon="5.87979">
        <ele>419</ele>
        <time>2014-03-29T14:47:22Z</time>
      </trkpt>
      <trkpt lat="43.36646" lon="5.88003">
        <ele>418</ele>
        <time>2014-03-29T14:47:27Z</time>
      </trkpt>
      <trkpt lat="43.36652" lon="5.88021">
        <ele>419</ele>
        <time>2014-03-29T14:47:31Z</time>
      </trkpt>
      <trkpt lat="43.36658" lon="5.88045">
        <ele>419</ele>
        <time>2014-03-29T14:47:36Z</time>
      </trkpt>
      <trkpt lat="43.36663" lon="5.8806">
        <ele>419</ele>
        <time>2014-03-29T14:47:39Z</time>
      </trkpt>
      <trkpt lat="43.36673" lon="5.88084">
        <ele>419</ele>
        <time>2014-03-29T14:47:44Z</time>
      </trkpt>
      <trkpt lat="43.36676" lon="5.88096">
        <ele>419</ele>
        <time>2014-03-29T14:47:46Z</time>
      </trkpt>
      <trkpt lat="43.36683" lon="5.88112">
        <ele>419</ele>
        <time>2014-03-29T14:47:49Z</time>
      </trkpt>
      <trkpt lat="43.36692" lon="5.88133">
        <ele>420</ele>
        <time>2014-03-29T14:47:53Z</time>
      </trkpt>
      <trkpt lat="43.36695" lon="5.88144">
        <ele>420</ele>
        <time>2014-03-29T14:47:55Z</time>
      </trkpt>
      <trkpt lat="43.36698" lon="5.88149">
        <ele>420</ele>
        <time>2014-03-29T14:47:56Z</time>
      </trkpt>
      <trkpt lat="43.367" lon="5.88154">
        <ele>420</ele>
        <time>2014-03-29T14:47:57Z</time>
      </trkpt>
      <trkpt lat="43.36702" lon="5.88159">
        <ele>419</ele>
        <time>2014-03-29T14:47:58Z</time>
      </trkpt>
      <trkpt lat="43.36704" lon="5.88164">
        <ele>419</ele>
        <time>2014-03-29T14:47:59Z</time>
      </trkpt>
      <trkpt lat="43.36708" lon="5.88182">
        <ele>419</ele>
        <time>2014-03-29T14:48:03Z</time>
      </trkpt>
      <trkpt lat="43.3671" lon="5.88194">
        <ele>420</ele>
        <time>2014-03-29T14:48:07Z</time>
      </trkpt>
      <trkpt lat="43.36718" lon="5.8821">
        <ele>420</ele>
        <time>2014-03-29T14:48:12Z</time>
      </trkpt>
      <trkpt lat="43.36722" lon="5.88214">
        <ele>420</ele>
        <time>2014-03-29T14:48:15Z</time>
      </trkpt>
      <trkpt lat="43.36723" lon="5.88214">
        <ele>420</ele>
        <time>2014-03-29T14:48:18Z</time>
      </trkpt>
      <trkpt lat="43.36723" lon="5.88215">
        <ele>420</ele>
        <time>2014-03-29T14:48:19Z</time>
      </trkpt>
      <trkpt lat="43.36725" lon="5.88216">
        <ele>420</ele>
        <time>2014-03-29T14:48:24Z</time>
      </trkpt>
      <trkpt lat="43.36729" lon="5.88222">
        <ele>420</ele>
        <time>2014-03-29T14:48:30Z</time>
      </trkpt>
      <trkpt lat="43.36731" lon="5.88226">
        <ele>420</ele>
        <time>2014-03-29T14:48:32Z</time>
      </trkpt>
      <trkpt lat="43.36735" lon="5.88234">
        <ele>420</ele>
        <time>2014-03-29T14:48:35Z</time>
      </trkpt>
      <trkpt lat="43.36736" lon="5.88238">
        <ele>420</ele>
        <time>2014-03-29T14:48:36Z</time>
      </trkpt>
      <trkpt lat="43.36738" lon="5.88249">
        <ele>420</ele>
        <time>2014-03-29T14:48:39Z</time>
      </trkpt>
      <trkpt lat="43.36739" lon="5.88252">
        <ele>420</ele>
        <time>2014-03-29T14:48:40Z</time>
      </trkpt>
      <trkpt lat="43.3674" lon="5.88255">
        <ele>420</ele>
        <time>2014-03-29T14:48:41Z</time>
      </trkpt>
      <trkpt lat="43.36742" lon="5.88258">
        <ele>420</ele>
        <time>2014-03-29T14:48:42Z</time>
      </trkpt>
      <trkpt lat="43.36745" lon="5.88264">
        <ele>420</ele>
        <time>2014-03-29T14:48:44Z</time>
      </trkpt>
      <trkpt lat="43.36749" lon="5.88278">
        <ele>420</ele>
        <time>2014-03-29T14:48:48Z</time>
      </trkpt>
      <trkpt lat="43.3675" lon="5.88291">
        <ele>420</ele>
        <time>2014-03-29T14:48:52Z</time>
      </trkpt>
      <trkpt lat="43.36752" lon="5.88294">
        <ele>419</ele>
        <time>2014-03-29T14:48:53Z</time>
      </trkpt>
      <trkpt lat="43.36756" lon="5.88302">
        <ele>419</ele>
        <time>2014-03-29T14:48:57Z</time>
      </trkpt>
      <trkpt lat="43.36759" lon="5.8831">
        <ele>419</ele>
        <time>2014-03-29T14:49:00Z</time>
      </trkpt>
      <trkpt lat="43.36757" lon="5.88314">
        <ele>419</ele>
        <time>2014-03-29T14:49:02Z</time>
      </trkpt>
      <trkpt lat="43.36752" lon="5.88317">
        <ele>419</ele>
        <time>2014-03-29T14:49:05Z</time>
      </trkpt>
      <trkpt lat="43.3675" lon="5.88319">
        <ele>419</ele>
        <time>2014-03-29T14:49:07Z</time>
      </trkpt>
      <trkpt lat="43.36749" lon="5.88326">
        <ele>419</ele>
        <time>2014-03-29T14:49:10Z</time>
      </trkpt>
      <trkpt lat="43.36749" lon="5.88335">
        <ele>419</ele>
        <time>2014-03-29T14:49:13Z</time>
      </trkpt>
      <trkpt lat="43.36747" lon="5.88337">
        <ele>419</ele>
        <time>2014-03-29T14:49:14Z</time>
      </trkpt>
      <trkpt lat="43.36739" lon="5.8835">
        <ele>418</ele>
        <time>2014-03-29T14:49:19Z</time>
      </trkpt>
      <trkpt lat="43.36737" lon="5.88357">
        <ele>418</ele>
        <time>2014-03-29T14:49:21Z</time>
      </trkpt>
      <trkpt lat="43.36737" lon="5.88361">
        <ele>418</ele>
        <time>2014-03-29T14:49:22Z</time>
      </trkpt>
      <trkpt lat="43.36737" lon="5.88367">
        <ele>418</ele>
        <time>2014-03-29T14:49:24Z</time>
      </trkpt>
      <trkpt lat="43.36739" lon="5.88388">
        <ele>418</ele>
        <time>2014-03-29T14:49:30Z</time>
      </trkpt>
      <trkpt lat="43.3674" lon="5.88406">
        <ele>418</ele>
        <time>2014-03-29T14:49:35Z</time>
      </trkpt>
      <trkpt lat="43.36732" lon="5.8841">
        <ele>417</ele>
        <time>2014-03-29T14:49:40Z</time>
      </trkpt>
      <trkpt lat="43.3673" lon="5.88409">
        <ele>417</ele>
        <time>2014-03-29T14:49:42Z</time>
      </trkpt>
      <trkpt lat="43.36728" lon="5.88407">
        <ele>417</ele>
        <time>2014-03-29T14:49:43Z</time>
      </trkpt>
      <trkpt lat="43.36721" lon="5.88402">
        <ele>417</ele>
        <time>2014-03-29T14:49:47Z</time>
      </trkpt>
      <trkpt lat="43.36713" lon="5.88408">
        <ele>417</ele>
        <time>2014-03-29T14:49:52Z</time>
      </trkpt>
      <trkpt lat="43.36701" lon="5.88417">
        <ele>416</ele>
        <time>2014-03-29T14:49:58Z</time>
      </trkpt>
      <trkpt lat="43.36698" lon="5.88424">
        <ele>416</ele>
        <time>2014-03-29T14:50:01Z</time>
      </trkpt>
      <trkpt lat="43.36695" lon="5.88433">
        <ele>416</ele>
        <time>2014-03-29T14:50:04Z</time>
      </trkpt>
      <trkpt lat="43.36686" lon="5.88447">
        <ele>415</ele>
        <time>2014-03-29T14:50:10Z</time>
      </trkpt>
      <trkpt lat="43.36677" lon="5.88462">
        <ele>414</ele>
        <time>2014-03-29T14:50:16Z</time>
      </trkpt>
      <trkpt lat="43.36665" lon="5.88477">
        <ele>412</ele>
        <time>2014-03-29T14:50:22Z</time>
      </trkpt>
      <trkpt lat="43.36631" lon="5.88518">
        <ele>409</ele>
        <time>2014-03-29T14:50:36Z</time>
      </trkpt>
      <trkpt lat="43.36618" lon="5.88537">
        <ele>408</ele>
        <time>2014-03-29T14:50:41Z</time>
      </trkpt>
      <trkpt lat="43.36616" lon="5.88543">
        <ele>407</ele>
        <time>2014-03-29T14:50:42Z</time>
      </trkpt>
      <trkpt lat="43.36612" lon="5.88553">
        <ele>407</ele>
        <time>2014-03-29T14:50:44Z</time>
      </trkpt>
      <trkpt lat="43.36604" lon="5.88575">
        <ele>406</ele>
        <time>2014-03-29T14:50:48Z</time>
      </trkpt>
      <trkpt lat="43.366" lon="5.88597">
        <ele>406</ele>
        <time>2014-03-29T14:50:52Z</time>
      </trkpt>
      <trkpt lat="43.36599" lon="5.88602">
        <ele>406</ele>
        <time>2014-03-29T14:50:53Z</time>
      </trkpt>
      <trkpt lat="43.36595" lon="5.88612">
        <ele>405</ele>
        <time>2014-03-29T14:50:55Z</time>
      </trkpt>
      <trkpt lat="43.3659" lon="5.8862">
        <ele>405</ele>
        <time>2014-03-29T14:50:57Z</time>
      </trkpt>
      <trkpt lat="43.36577" lon="5.88651">
        <ele>405</ele>
        <time>2014-03-29T14:51:04Z</time>
      </trkpt>
      <trkpt lat="43.36572" lon="5.88661">
        <ele>404</ele>
        <time>2014-03-29T14:51:07Z</time>
      </trkpt>
      <trkpt lat="43.36571" lon="5.88665">
        <ele>404</ele>
        <time>2014-03-29T14:51:08Z</time>
      </trkpt>
      <trkpt lat="43.36572" lon="5.88688">
        <ele>404</ele>
        <time>2014-03-29T14:51:13Z</time>
      </trkpt>
      <trkpt lat="43.36568" lon="5.88716">
        <ele>404</ele>
        <time>2014-03-29T14:51:19Z</time>
      </trkpt>
      <trkpt lat="43.36562" lon="5.88741">
        <ele>403</ele>
        <time>2014-03-29T14:51:24Z</time>
      </trkpt>
      <trkpt lat="43.36547" lon="5.88783">
        <ele>403</ele>
        <time>2014-03-29T14:51:32Z</time>
      </trkpt>
      <trkpt lat="43.36544" lon="5.88794">
        <ele>403</ele>
        <time>2014-03-29T14:51:34Z</time>
      </trkpt>
      <trkpt lat="43.36543" lon="5.88799">
        <ele>403</ele>
        <time>2014-03-29T14:51:35Z</time>
      </trkpt>
      <trkpt lat="43.36541" lon="5.88804">
        <ele>403</ele>
        <time>2014-03-29T14:51:36Z</time>
      </trkpt>
      <trkpt lat="43.36528" lon="5.88832">
        <ele>402</ele>
        <time>2014-03-29T14:51:41Z</time>
      </trkpt>
      <trkpt lat="43.36518" lon="5.88851">
        <ele>402</ele>
        <time>2014-03-29T14:51:44Z</time>
      </trkpt>
      <trkpt lat="43.36515" lon="5.88857">
        <ele>402</ele>
        <time>2014-03-29T14:51:45Z</time>
      </trkpt>
      <trkpt lat="43.36507" lon="5.88868">
        <ele>402</ele>
        <time>2014-03-29T14:51:47Z</time>
      </trkpt>
      <trkpt lat="43.36498" lon="5.88878">
        <ele>402</ele>
        <time>2014-03-29T14:51:49Z</time>
      </trkpt>
      <trkpt lat="43.36494" lon="5.88883">
        <ele>402</ele>
        <time>2014-03-29T14:51:50Z</time>
      </trkpt>
      <trkpt lat="43.36491" lon="5.8889">
        <ele>402</ele>
        <time>2014-03-29T14:51:51Z</time>
      </trkpt>
      <trkpt lat="43.36486" lon="5.88904">
        <ele>401</ele>
        <time>2014-03-29T14:51:53Z</time>
      </trkpt>
      <trkpt lat="43.36472" lon="5.88933">
        <ele>401</ele>
        <time>2014-03-29T14:51:57Z</time>
      </trkpt>
      <trkpt lat="43.36466" lon="5.88957">
        <ele>401</ele>
        <time>2014-03-29T14:52:00Z</time>
      </trkpt>
      <trkpt lat="43.36464" lon="5.88965">
        <ele>400</ele>
        <time>2014-03-29T14:52:01Z</time>
      </trkpt>
      <trkpt lat="43.36463" lon="5.88973">
        <ele>400</ele>
        <time>2014-03-29T14:52:02Z</time>
      </trkpt>
      <trkpt lat="43.36463" lon="5.88989">
        <ele>399</ele>
        <time>2014-03-29T14:52:04Z</time>
      </trkpt>
      <trkpt lat="43.36462" lon="5.88997">
        <ele>399</ele>
        <time>2014-03-29T14:52:05Z</time>
      </trkpt>
      <trkpt lat="43.36461" lon="5.89013">
        <ele>399</ele>
        <time>2014-03-29T14:52:07Z</time>
      </trkpt>
      <trkpt lat="43.36459" lon="5.89029">
        <ele>399</ele>
        <time>2014-03-29T14:52:09Z</time>
      </trkpt>
      <trkpt lat="43.36456" lon="5.89065">
        <ele>398</ele>
        <time>2014-03-29T14:52:14Z</time>
      </trkpt>
      <trkpt lat="43.36452" lon="5.89102">
        <ele>397</ele>
        <time>2014-03-29T14:52:20Z</time>
      </trkpt>
      <trkpt lat="43.36451" lon="5.89119">
        <ele>397</ele>
        <time>2014-03-29T14:52:23Z</time>
      </trkpt>
      <trkpt lat="43.36448" lon="5.89153">
        <ele>396</ele>
        <time>2014-03-29T14:52:30Z</time>
      </trkpt>
      <trkpt lat="43.36444" lon="5.89186">
        <ele>395</ele>
        <time>2014-03-29T14:52:36Z</time>
      </trkpt>
      <trkpt lat="43.36442" lon="5.89209">
        <ele>394</ele>
        <time>2014-03-29T14:52:40Z</time>
      </trkpt>
      <trkpt lat="43.36438" lon="5.89226">
        <ele>394</ele>
        <time>2014-03-29T14:52:43Z</time>
      </trkpt>
      <trkpt lat="43.36435" lon="5.89236">
        <ele>393</ele>
        <time>2014-03-29T14:52:45Z</time>
      </trkpt>
      <trkpt lat="43.36426" lon="5.89255">
        <ele>392</ele>
        <time>2014-03-29T14:52:49Z</time>
      </trkpt>
      <trkpt lat="43.36408" lon="5.89297">
        <ele>391</ele>
        <time>2014-03-29T14:52:58Z</time>
      </trkpt>
      <trkpt lat="43.36404" lon="5.89314">
        <ele>390</ele>
        <time>2014-03-29T14:53:01Z</time>
      </trkpt>
      <trkpt lat="43.36397" lon="5.8934">
        <ele>390</ele>
        <time>2014-03-29T14:53:06Z</time>
      </trkpt>
      <trkpt lat="43.36395" lon="5.8935">
        <ele>389</ele>
        <time>2014-03-29T14:53:08Z</time>
      </trkpt>
      <trkpt lat="43.36395" lon="5.89355">
        <ele>389</ele>
        <time>2014-03-29T14:53:09Z</time>
      </trkpt>
      <trkpt lat="43.36393" lon="5.89365">
        <ele>389</ele>
        <time>2014-03-29T14:53:11Z</time>
      </trkpt>
      <trkpt lat="43.36392" lon="5.89375">
        <ele>389</ele>
        <time>2014-03-29T14:53:13Z</time>
      </trkpt>
      <trkpt lat="43.36385" lon="5.89417">
        <ele>387</ele>
        <time>2014-03-29T14:53:20Z</time>
      </trkpt>
      <trkpt lat="43.36384" lon="5.8943">
        <ele>387</ele>
        <time>2014-03-29T14:53:22Z</time>
      </trkpt>
      <trkpt lat="43.36383" lon="5.89437">
        <ele>387</ele>
        <time>2014-03-29T14:53:23Z</time>
      </trkpt>
      <trkpt lat="43.36383" lon="5.89443">
        <ele>387</ele>
        <time>2014-03-29T14:53:24Z</time>
      </trkpt>
      <trkpt lat="43.36383" lon="5.8945">
        <ele>387</ele>
        <time>2014-03-29T14:53:25Z</time>
      </trkpt>
      <trkpt lat="43.36383" lon="5.89456">
        <ele>387</ele>
        <time>2014-03-29T14:53:26Z</time>
      </trkpt>
      <trkpt lat="43.36382" lon="5.89469">
        <ele>387</ele>
        <time>2014-03-29T14:53:28Z</time>
      </trkpt>
      <trkpt lat="43.36378" lon="5.89481">
        <ele>386</ele>
        <time>2014-03-29T14:53:30Z</time>
      </trkpt>
      <trkpt lat="43.36376" lon="5.89525">
        <ele>385</ele>
        <time>2014-03-29T14:53:40Z</time>
      </trkpt>
      <trkpt lat="43.36363" lon="5.89555">
        <ele>384</ele>
        <time>2014-03-29T14:53:48Z</time>
      </trkpt>
      <trkpt lat="43.36361" lon="5.89558">
        <ele>384</ele>
        <time>2014-03-29T14:53:50Z</time>
      </trkpt>
      <trkpt lat="43.36361" lon="5.89559">
        <ele>384</ele>
        <time>2014-03-29T14:53:51Z</time>
      </trkpt>
      <trkpt lat="43.36361" lon="5.89562">
        <ele>384</ele>
        <time>2014-03-29T14:53:53Z</time>
      </trkpt>
      <trkpt lat="43.36359" lon="5.89574">
        <ele>383</ele>
        <time>2014-03-29T14:53:57Z</time>
      </trkpt>
      <trkpt lat="43.36354" lon="5.89594">
        <ele>382</ele>
        <time>2014-03-29T14:54:01Z</time>
      </trkpt>
      <trkpt lat="43.36354" lon="5.896">
        <ele>381</ele>
        <time>2014-03-29T14:54:02Z</time>
      </trkpt>
      <trkpt lat="43.36353" lon="5.89611">
        <ele>381</ele>
        <time>2014-03-29T14:54:04Z</time>
      </trkpt>
      <trkpt lat="43.36354" lon="5.89628">
        <ele>380</ele>
        <time>2014-03-29T14:54:07Z</time>
      </trkpt>
      <trkpt lat="43.36354" lon="5.89639">
        <ele>380</ele>
        <time>2014-03-29T14:54:09Z</time>
      </trkpt>
      <trkpt lat="43.36353" lon="5.89666">
        <ele>380</ele>
        <time>2014-03-29T14:54:14Z</time>
      </trkpt>
      <trkpt lat="43.36353" lon="5.89677">
        <ele>380</ele>
        <time>2014-03-29T14:54:16Z</time>
      </trkpt>
      <trkpt lat="43.36353" lon="5.89682">
        <ele>380</ele>
        <time>2014-03-29T14:54:17Z</time>
      </trkpt>
      <trkpt lat="43.36352" lon="5.89693">
        <ele>380</ele>
        <time>2014-03-29T14:54:19Z</time>
      </trkpt>
      <trkpt lat="43.36352" lon="5.8971">
        <ele>379</ele>
        <time>2014-03-29T14:54:22Z</time>
      </trkpt>
      <trkpt lat="43.36355" lon="5.89725">
        <ele>379</ele>
        <time>2014-03-29T14:54:25Z</time>
      </trkpt>
      <trkpt lat="43.36355" lon="5.89737">
        <ele>379</ele>
        <time>2014-03-29T14:54:30Z</time>
      </trkpt>
      <trkpt lat="43.36359" lon="5.89752">
        <ele>379</ele>
        <time>2014-03-29T14:54:35Z</time>
      </trkpt>
      <trkpt lat="43.36359" lon="5.89766">
        <ele>379</ele>
        <time>2014-03-29T14:54:39Z</time>
      </trkpt>
      <trkpt lat="43.36359" lon="5.8977">
        <ele>379</ele>
        <time>2014-03-29T14:54:40Z</time>
      </trkpt>
      <trkpt lat="43.3636" lon="5.89789">
        <ele>379</ele>
        <time>2014-03-29T14:54:45Z</time>
      </trkpt>
      <trkpt lat="43.36358" lon="5.89798">
        <ele>379</ele>
        <time>2014-03-29T14:54:49Z</time>
      </trkpt>
      <trkpt lat="43.36358" lon="5.89798">
        <ele>379</ele>
        <time>2014-03-29T14:54:59Z</time>
      </trkpt>
      <trkpt lat="43.36358" lon="5.89798">
        <ele>379</ele>
        <time>2014-03-29T14:55:08Z</time>
      </trkpt>
      <trkpt lat="43.36357" lon="5.89796">
        <ele>379</ele>
        <time>2014-03-29T14:55:10Z</time>
      </trkpt>
      <trkpt lat="43.36357" lon="5.89788">
        <ele>379</ele>
        <time>2014-03-29T14:55:14Z</time>
      </trkpt>
      <trkpt lat="43.36357" lon="5.89785">
        <ele>379</ele>
        <time>2014-03-29T14:55:15Z</time>
      </trkpt>
      <trkpt lat="43.36359" lon="5.8978">
        <ele>379</ele>
        <time>2014-03-29T14:55:17Z</time>
      </trkpt>
      <trkpt lat="43.3636" lon="5.89772">
        <ele>379</ele>
        <time>2014-03-29T14:55:20Z</time>
      </trkpt>
      <trkpt lat="43.36361" lon="5.89768">
        <ele>379</ele>
        <time>2014-03-29T14:55:22Z</time>
      </trkpt>
      <trkpt lat="43.3636" lon="5.89764">
        <ele>379</ele>
        <time>2014-03-29T14:55:24Z</time>
      </trkpt>
      <trkpt lat="43.36358" lon="5.8975">
        <ele>379</ele>
        <time>2014-03-29T14:55:30Z</time>
      </trkpt>
      <trkpt lat="43.36359" lon="5.89748">
        <ele>379</ele>
        <time>2014-03-29T14:55:31Z</time>
      </trkpt>
      <trkpt lat="43.3636" lon="5.89746">
        <ele>379</ele>
        <time>2014-03-29T14:55:35Z</time>
      </trkpt>
      <trkpt lat="43.3636" lon="5.89746">
        <ele>379</ele>
        <time>2014-03-29T14:55:50Z</time>
      </trkpt>
      <trkpt lat="43.36361" lon="5.89747">
        <ele>379</ele>
        <time>2014-03-29T14:55:58Z</time>
      </trkpt>
      <trkpt lat="43.36361" lon="5.89747">
        <ele>379</ele>
        <time>2014-03-29T14:56:12Z</time>
      </trkpt>
      <trkpt lat="43.3636" lon="5.89751">
        <ele>379</ele>
        <time>2014-03-29T14:56:17Z</time>
      </trkpt>
      <trkpt lat="43.36359" lon="5.89766">
        <ele>379</ele>
        <time>2014-03-29T14:56:22Z</time>
      </trkpt>
      <trkpt lat="43.3636" lon="5.89787">
        <ele>379</ele>
        <time>2014-03-29T14:56:27Z</time>
      </trkpt>
      <trkpt lat="43.3636" lon="5.898">
        <ele>379</ele>
        <time>2014-03-29T14:56:30Z</time>
      </trkpt>
      <trkpt lat="43.36363" lon="5.89827">
        <ele>378</ele>
        <time>2014-03-29T14:56:36Z</time>
      </trkpt>
      <trkpt lat="43.36368" lon="5.89854">
        <ele>378</ele>
        <time>2014-03-29T14:56:42Z</time>
      </trkpt>
      <trkpt lat="43.36374" lon="5.89893">
        <ele>378</ele>
        <time>2014-03-29T14:56:50Z</time>
      </trkpt>
      <trkpt lat="43.36375" lon="5.89897">
        <ele>378</ele>
        <time>2014-03-29T14:56:51Z</time>
      </trkpt>
      <trkpt lat="43.36376" lon="5.89902">
        <ele>378</ele>
        <time>2014-03-29T14:56:52Z</time>
      </trkpt>
      <trkpt lat="43.36378" lon="5.89906">
        <ele>377</ele>
        <time>2014-03-29T14:56:53Z</time>
      </trkpt>
      <trkpt lat="43.36383" lon="5.89923">
        <ele>377</ele>
        <time>2014-03-29T14:56:57Z</time>
      </trkpt>
      <trkpt lat="43.36385" lon="5.89938">
        <ele>377</ele>
        <time>2014-03-29T14:57:00Z</time>
      </trkpt>
      <trkpt lat="43.36385" lon="5.8995">
        <ele>377</ele>
        <time>2014-03-29T14:57:02Z</time>
      </trkpt>
      <trkpt lat="43.36385" lon="5.89975">
        <ele>377</ele>
        <time>2014-03-29T14:57:06Z</time>
      </trkpt>
      <trkpt lat="43.36389" lon="5.89985">
        <ele>377</ele>
        <time>2014-03-29T14:57:08Z</time>
      </trkpt>
      <trkpt lat="43.36391" lon="5.89988">
        <ele>376</ele>
        <time>2014-03-29T14:57:09Z</time>
      </trkpt>
      <trkpt lat="43.36399" lon="5.9">
        <ele>376</ele>
        <time>2014-03-29T14:57:12Z</time>
      </trkpt>
      <trkpt lat="43.36407" lon="5.90022">
        <ele>377</ele>
        <time>2014-03-29T14:57:17Z</time>
      </trkpt>
      <trkpt lat="43.36409" lon="5.90029">
        <ele>377</ele>
        <time>2014-03-29T14:57:19Z</time>
      </trkpt>
      <trkpt lat="43.36408" lon="5.90038">
        <ele>376</ele>
        <time>2014-03-29T14:57:21Z</time>
      </trkpt>
      <trkpt lat="43.36408" lon="5.90074">
        <ele>376</ele>
        <time>2014-03-29T14:57:28Z</time>
      </trkpt>
      <trkpt lat="43.36406" lon="5.90103">
        <ele>376</ele>
        <time>2014-03-29T14:57:34Z</time>
      </trkpt>
      <trkpt lat="43.36403" lon="5.90134">
        <ele>375</ele>
        <time>2014-03-29T14:57:41Z</time>
      </trkpt>
      <trkpt lat="43.36402" lon="5.90177">
        <ele>375</ele>
        <time>2014-03-29T14:57:51Z</time>
      </trkpt>
      <trkpt lat="43.36401" lon="5.90207">
        <ele>374</ele>
        <time>2014-03-29T14:57:58Z</time>
      </trkpt>
      <trkpt lat="43.36398" lon="5.90232">
        <ele>374</ele>
        <time>2014-03-29T14:58:04Z</time>
      </trkpt>
      <trkpt lat="43.36393" lon="5.90257">
        <ele>374</ele>
        <time>2014-03-29T14:58:10Z</time>
      </trkpt>
      <trkpt lat="43.36388" lon="5.90277">
        <ele>373</ele>
        <time>2014-03-29T14:58:15Z</time>
      </trkpt>
      <trkpt lat="43.36382" lon="5.90305">
        <ele>373</ele>
        <time>2014-03-29T14:58:21Z</time>
      </trkpt>
      <trkpt lat="43.36382" lon="5.90333">
        <ele>373</ele>
        <time>2014-03-29T14:58:27Z</time>
      </trkpt>
      <trkpt lat="43.36378" lon="5.90361">
        <ele>372</ele>
        <time>2014-03-29T14:58:33Z</time>
      </trkpt>
      <trkpt lat="43.36374" lon="5.90389">
        <ele>372</ele>
        <time>2014-03-29T14:58:39Z</time>
      </trkpt>
      <trkpt lat="43.36374" lon="5.90422">
        <ele>372</ele>
        <time>2014-03-29T14:58:45Z</time>
      </trkpt>
      <trkpt lat="43.36382" lon="5.90447">
        <ele>372</ele>
        <time>2014-03-29T14:58:50Z</time>
      </trkpt>
      <trkpt lat="43.36383" lon="5.90452">
        <ele>372</ele>
        <time>2014-03-29T14:58:51Z</time>
      </trkpt>
      <trkpt lat="43.36387" lon="5.90461">
        <ele>371</ele>
        <time>2014-03-29T14:58:53Z</time>
      </trkpt>
      <trkpt lat="43.36388" lon="5.90465">
        <ele>371</ele>
        <time>2014-03-29T14:58:54Z</time>
      </trkpt>
      <trkpt lat="43.36389" lon="5.90478">
        <ele>371</ele>
        <time>2014-03-29T14:58:57Z</time>
      </trkpt>
      <trkpt lat="43.36383" lon="5.90503">
        <ele>371</ele>
        <time>2014-03-29T14:59:04Z</time>
      </trkpt>
      <trkpt lat="43.36383" lon="5.9053">
        <ele>371</ele>
        <time>2014-03-29T14:59:10Z</time>
      </trkpt>
      <trkpt lat="43.36378" lon="5.90551">
        <ele>370</ele>
        <time>2014-03-29T14:59:15Z</time>
      </trkpt>
      <trkpt lat="43.36368" lon="5.90578">
        <ele>370</ele>
        <time>2014-03-29T14:59:22Z</time>
      </trkpt>
      <trkpt lat="43.3636" lon="5.90606">
        <ele>370</ele>
        <time>2014-03-29T14:59:28Z</time>
      </trkpt>
      <trkpt lat="43.36355" lon="5.90637">
        <ele>369</ele>
        <time>2014-03-29T14:59:34Z</time>
      </trkpt>
      <trkpt lat="43.36352" lon="5.90661">
        <ele>369</ele>
        <time>2014-03-29T14:59:39Z</time>
      </trkpt>
      <trkpt lat="43.36354" lon="5.90685">
        <ele>369</ele>
        <time>2014-03-29T14:59:44Z</time>
      </trkpt>
      <trkpt lat="43.36356" lon="5.90688">
        <ele>369</ele>
        <time>2014-03-29T14:59:45Z</time>
      </trkpt>
      <trkpt lat="43.36362" lon="5.90697">
        <ele>369</ele>
        <time>2014-03-29T14:59:48Z</time>
      </trkpt>
      <trkpt lat="43.36374" lon="5.90715">
        <ele>368</ele>
        <time>2014-03-29T14:59:54Z</time>
      </trkpt>
      <trkpt lat="43.36385" lon="5.90734">
        <ele>368</ele>
        <time>2014-03-29T15:00:00Z</time>
      </trkpt>
      <trkpt lat="43.36401" lon="5.90763">
        <ele>368</ele>
        <time>2014-03-29T15:00:11Z</time>
      </trkpt>
      <trkpt lat="43.36406" lon="5.90766">
        <ele>368</ele>
        <time>2014-03-29T15:00:13Z</time>
      </trkpt>
      <trkpt lat="43.3641" lon="5.90766">
        <ele>368</ele>
        <time>2014-03-29T15:00:15Z</time>
      </trkpt>
      <trkpt lat="43.36417" lon="5.90774">
        <ele>368</ele>
        <time>2014-03-29T15:00:19Z</time>
      </trkpt>
      <trkpt lat="43.36417" lon="5.90778">
        <ele>368</ele>
        <time>2014-03-29T15:00:20Z</time>
      </trkpt>
      <trkpt lat="43.36424" lon="5.9079">
        <ele>368</ele>
        <time>2014-03-29T15:00:24Z</time>
      </trkpt>
      <trkpt lat="43.3644" lon="5.90809">
        <ele>369</ele>
        <time>2014-03-29T15:00:31Z</time>
      </trkpt>
      <trkpt lat="43.36444" lon="5.90827">
        <ele>369</ele>
        <time>2014-03-29T15:00:36Z</time>
      </trkpt>
      <trkpt lat="43.36446" lon="5.90841">
        <ele>369</ele>
        <time>2014-03-29T15:00:40Z</time>
      </trkpt>
      <trkpt lat="43.36449" lon="5.90851">
        <ele>369</ele>
        <time>2014-03-29T15:00:43Z</time>
      </trkpt>
      <trkpt lat="43.36454" lon="5.90875">
        <ele>369</ele>
        <time>2014-03-29T15:00:50Z</time>
      </trkpt>
      <trkpt lat="43.36453" lon="5.90878">
        <ele>369</ele>
        <time>2014-03-29T15:00:51Z</time>
      </trkpt>
      <trkpt lat="43.36449" lon="5.90927">
        <ele>368</ele>
        <time>2014-03-29T15:01:02Z</time>
      </trkpt>
      <trkpt lat="43.36453" lon="5.90947">
        <ele>368</ele>
        <time>2014-03-29T15:01:06Z</time>
      </trkpt>
      <trkpt lat="43.36454" lon="5.90957">
        <ele>368</ele>
        <time>2014-03-29T15:01:08Z</time>
      </trkpt>
      <trkpt lat="43.3646" lon="5.90972">
        <ele>368</ele>
        <time>2014-03-29T15:01:12Z</time>
      </trkpt>
      <trkpt lat="43.3647" lon="5.90985">
        <ele>369</ele>
        <time>2014-03-29T15:01:16Z</time>
      </trkpt>
      <trkpt lat="43.36473" lon="5.91004">
        <ele>369</ele>
        <time>2014-03-29T15:01:20Z</time>
      </trkpt>
      <trkpt lat="43.36474" lon="5.91017">
        <ele>368</ele>
        <time>2014-03-29T15:01:23Z</time>
      </trkpt>
      <trkpt lat="43.3648" lon="5.91031">
        <ele>369</ele>
        <time>2014-03-29T15:01:27Z</time>
      </trkpt>
      <trkpt lat="43.36487" lon="5.9105">
        <ele>369</ele>
        <time>2014-03-29T15:01:32Z</time>
      </trkpt>
      <trkpt lat="43.36488" lon="5.91077">
        <ele>369</ele>
        <time>2014-03-29T15:01:38Z</time>
      </trkpt>
      <trkpt lat="43.36488" lon="5.91103">
        <ele>368</ele>
        <time>2014-03-29T15:01:44Z</time>
      </trkpt>
      <trkpt lat="43.36494" lon="5.91118">
        <ele>369</ele>
        <time>2014-03-29T15:01:48Z</time>
      </trkpt>
      <trkpt lat="43.36497" lon="5.91139">
        <ele>369</ele>
        <time>2014-03-29T15:01:53Z</time>
      </trkpt>
      <trkpt lat="43.36498" lon="5.91163">
        <ele>368</ele>
        <time>2014-03-29T15:01:59Z</time>
      </trkpt>
      <trkpt lat="43.36501" lon="5.91202">
        <ele>368</ele>
        <time>2014-03-29T15:02:07Z</time>
      </trkpt>
      <trkpt lat="43.36504" lon="5.91244">
        <ele>368</ele>
        <time>2014-03-29T15:02:15Z</time>
      </trkpt>
      <trkpt lat="43.36502" lon="5.91267">
        <ele>368</ele>
        <time>2014-03-29T15:02:20Z</time>
      </trkpt>
      <trkpt lat="43.36497" lon="5.91286">
        <ele>367</ele>
        <time>2014-03-29T15:02:25Z</time>
      </trkpt>
      <trkpt lat="43.36491" lon="5.91307">
        <ele>367</ele>
        <time>2014-03-29T15:02:31Z</time>
      </trkpt>
      <trkpt lat="43.36483" lon="5.91325">
        <ele>366</ele>
        <time>2014-03-29T15:02:37Z</time>
      </trkpt>
      <trkpt lat="43.36483" lon="5.91334">
        <ele>366</ele>
        <time>2014-03-29T15:02:42Z</time>
      </trkpt>
      <trkpt lat="43.3649" lon="5.91338">
        <ele>366</ele>
        <time>2014-03-29T15:02:46Z</time>
      </trkpt>
      <trkpt lat="43.36496" lon="5.91344">
        <ele>367</ele>
        <time>2014-03-29T15:02:49Z</time>
      </trkpt>
      <trkpt lat="43.36496" lon="5.91347">
        <ele>367</ele>
        <time>2014-03-29T15:02:50Z</time>
      </trkpt>
      <trkpt lat="43.36496" lon="5.91354">
        <ele>367</ele>
        <time>2014-03-29T15:02:52Z</time>
      </trkpt>
      <trkpt lat="43.3649" lon="5.9137">
        <ele>366</ele>
        <time>2014-03-29T15:02:58Z</time>
      </trkpt>
      <trkpt lat="43.36489" lon="5.91374">
        <ele>366</ele>
        <time>2014-03-29T15:02:59Z</time>
      </trkpt>
      <trkpt lat="43.36491" lon="5.91379">
        <ele>366</ele>
        <time>2014-03-29T15:03:01Z</time>
      </trkpt>
      <trkpt lat="43.36501" lon="5.91382">
        <ele>367</ele>
        <time>2014-03-29T15:03:05Z</time>
      </trkpt>
      <trkpt lat="43.36508" lon="5.91384">
        <ele>367</ele>
        <time>2014-03-29T15:03:08Z</time>
      </trkpt>
      <trkpt lat="43.3651" lon="5.91384">
        <ele>367</ele>
        <time>2014-03-29T15:03:09Z</time>
      </trkpt>
      <trkpt lat="43.36515" lon="5.91388">
        <ele>368</ele>
        <time>2014-03-29T15:03:13Z</time>
      </trkpt>
      <trkpt lat="43.3652" lon="5.91394">
        <ele>368</ele>
        <time>2014-03-29T15:03:18Z</time>
      </trkpt>
      <trkpt lat="43.3652" lon="5.91398">
        <ele>368</ele>
        <time>2014-03-29T15:03:20Z</time>
      </trkpt>
      <trkpt lat="43.3652" lon="5.91406">
        <ele>368</ele>
        <time>2014-03-29T15:03:24Z</time>
      </trkpt>
      <trkpt lat="43.3652" lon="5.91409">
        <ele>368</ele>
        <time>2014-03-29T15:03:30Z</time>
      </trkpt>
      <trkpt lat="43.3652" lon="5.91409">
        <ele>368</ele>
        <time>2014-03-29T15:03:43Z</time>
      </trkpt>
      <trkpt lat="43.3652" lon="5.91409">
        <ele>368</ele>
        <time>2014-03-29T15:03:50Z</time>
      </trkpt>
      <trkpt lat="43.3652" lon="5.91412">
        <ele>368</ele>
        <time>2014-03-29T15:03:59Z</time>
      </trkpt>
    </trkseg>
  </trk>
</gpx>